[[{"header":{"parameterUnit":"m.s-1","parameterCategory":1,"la1":30.6,"la2":29.2853,"lo1":-89.7004,"lo2":-87.6739,"dy":0.0162,"dx":0.0183,"nx":112,"ny":82,"refTime":"2023-06-14T12:00:00:Z","depth":0,"parameterNumber":2,"parameterNumberName":"U-component_of_WINDS"},"data":[0.0,0.0,0.0,0.0,0.0,0.0,0.0,0.0,0.0,0.0,0.0,0.0,0.0,0.0,0.0,0.0,0.0,0.0,0.0,0.0,0.0,0.0,0.0,0.0,0.0,0.0,0.0,0.0,0.0,0.0,0.0,0.0,0.0,0.0,0.0,0.0,0.0,0.0,0.0,0.0,0.0,0.0,0.0,0.0,0.0,0.0,0.0,0.0,0.0,0.0,0.0,0.0,0.0,0.0,0.0,0.0,0.0,0.0,0.0,0.0,0.0,0.0,0.0,0.0,0.0,0.0,0.0,0.0,0.0,0.0,0.0,0.0,0.0,0.0,0.0,0.0,0.0,0.0,0.0,0.0,0.0,0.0,0.0,0.0,0.0,0.0,0.0,0.0,0.0,0.0,-5.5304,-5.767,-6.064,-6.226,-6.1755,-6.0605,-5.8862,-5.6285,0.0,0.0,0.0,0.0,0.0,0.0,0.0,0.0,0.0,0.0,0.0,0.0,0.0,0.0,0.0,0.0,0.0,0.0,0.0,0.0,0.0,0.0,0.0,0.0,0.0,0.0,0.0,0.0,0.0,0.0,0.0,0.0,0.0,0.0,0.0,0.0,0.0,0.0,0.0,0.0,0.0,0.0,0.0,0.0,0.0,0.0,0.0,0.0,0.0,0.0,0.0,0.0,0.0,0.0,0.0,0.0,0.0,0.0,0.0,0.0,0.0,0.0,0.0,0.0,0.0,0.0,0.0,0.0,0.0,0.0,0.0,0.0,0.0,0.0,0.0,0.0,0.0,0.0,0.0,0.0,0.0,0.0,0.0,0.0,0.0,0.0,0.0,0.0,0.0,0.0,0.0,0.0,0.0,0.0,0.0,0.0,0.0,0.0,0.0,0.0,0.0,0.0,0.0,0.0,-5.7289,-6.1617,-6.2163,-6.2476,-6.2989,-6.0969,-5.8771,-5.6719,0.0,0.0,0.0,0.0,0.0,0.0,0.0,0.0,0.0,0.0,0.0,0.0,0.0,0.0,0.0,0.0,0.0,0.0,0.0,0.0,0.0,0.0,0.0,0.0,0.0,0.0,0.0,0.0,0.0,0.0,0.0,0.0,0.0,0.0,0.0,0.0,0.0,0.0,0.0,0.0,0.0,0.0,0.0,0.0,0.0,0.0,0.0,0.0,0.0,0.0,0.0,0.0,0.0,0.0,0.0,0.0,0.0,0.0,0.0,0.0,0.0,0.0,0.0,0.0,0.0,0.0,0.0,0.0,0.0,0.0,0.0,0.0,0.0,0.0,0.0,0.0,0.0,0.0,0.0,0.0,0.0,0.0,0.0,0.0,0.0,0.0,0.0,0.0,0.0,0.0,0.0,0.0,0.0,0.0,0.0,0.0,0.0,0.0,0.0,0.0,0.0,0.0,0.0,-5.6916,-6.0091,-6.3381,-6.433,-6.4709,-6.4653,-6.3088,-6.1131,-5.8802,-5.5809,0.0,0.0,0.0,0.0,0.0,0.0,0.0,0.0,0.0,0.0,0.0,0.0,0.0,0.0,0.0,0.0,0.0,0.0,0.0,0.0,0.0,0.0,0.0,0.0,0.0,0.0,0.0,0.0,0.0,0.0,0.0,0.0,0.0,0.0,0.0,0.0,0.0,0.0,0.0,0.0,0.0,0.0,0.0,0.0,0.0,0.0,0.0,0.0,0.0,0.0,0.0,0.0,0.0,0.0,0.0,0.0,0.0,0.0,0.0,0.0,0.0,0.0,0.0,0.0,0.0,0.0,0.0,0.0,0.0,0.0,0.0,0.0,0.0,0.0,0.0,0.0,0.0,0.0,0.0,0.0,0.0,0.0,0.0,0.0,0.0,0.0,0.0,0.0,0.0,0.0,0.0,0.0,0.0,0.0,0.0,0.0,0.0,0.0,0.0,0.0,0.0,0.0,-6.0082,-6.2582,-6.4595,-6.6053,-6.6719,-6.6347,-6.5021,-6.3167,-6.0683,-5.7612,0.0,0.0,0.0,0.0,0.0,0.0,0.0,0.0,0.0,0.0,0.0,0.0,0.0,0.0,0.0,0.0,0.0,0.0,0.0,0.0,0.0,0.0,0.0,0.0,0.0,0.0,0.0,0.0,0.0,0.0,0.0,0.0,0.0,0.0,0.0,0.0,0.0,0.0,0.0,0.0,0.0,0.0,0.0,0.0,0.0,0.0,0.0,0.0,0.0,0.0,0.0,0.0,0.0,0.0,0.0,0.0,0.0,0.0,0.0,0.0,0.0,0.0,0.0,0.0,0.0,0.0,0.0,0.0,0.0,0.0,0.0,0.0,0.0,0.0,0.0,0.0,0.0,0.0,0.0,0.0,0.0,0.0,0.0,0.0,0.0,0.0,0.0,0.0,0.0,0.0,0.0,0.0,0.0,0.0,0.0,0.0,0.0,0.0,0.0,0.0,0.0,0.0,-6.161,-6.4182,-6.6045,-6.6582,-6.7084,-6.7797,-6.5507,-6.3201,-6.1236,-5.7777,0.0,0.0,0.0,0.0,0.0,0.0,0.0,0.0,0.0,0.0,0.0,0.0,0.0,0.0,0.0,0.0,0.0,0.0,0.0,0.0,0.0,0.0,0.0,0.0,0.0,0.0,0.0,0.0,0.0,0.0,0.0,0.0,0.0,0.0,0.0,0.0,0.0,0.0,0.0,0.0,0.0,0.0,0.0,0.0,0.0,0.0,0.0,0.0,0.0,0.0,0.0,0.0,0.0,0.0,0.0,0.0,0.0,0.0,0.0,0.0,0.0,0.0,0.0,0.0,0.0,0.0,0.0,0.0,0.0,0.0,0.0,0.0,0.0,0.0,0.0,0.0,0.0,0.0,0.0,0.0,0.0,0.0,0.0,0.0,0.0,0.0,0.0,0.0,0.0,0.0,0.0,0.0,0.0,0.0,0.0,0.0,0.0,0.0,0.0,0.0,0.0,0.0,-6.2452,-6.5299,-6.7703,-6.866,-6.9015,-6.879,-6.7732,-6.5829,-6.2866,0.0,0.0,0.0,0.0,0.0,0.0,0.0,0.0,0.0,0.0,0.0,0.0,0.0,0.0,0.0,0.0,0.0,0.0,0.0,0.0,0.0,0.0,0.0,0.0,0.0,0.0,0.0,0.0,0.0,0.0,0.0,0.0,0.0,0.0,0.0,0.0,0.0,0.0,0.0,0.0,0.0,0.0,0.0,0.0,0.0,0.0,0.0,0.0,0.0,0.0,0.0,0.0,0.0,0.0,0.0,0.0,0.0,0.0,0.0,0.0,0.0,0.0,0.0,0.0,0.0,0.0,0.0,0.0,0.0,0.0,0.0,0.0,0.0,0.0,0.0,0.0,0.0,0.0,0.0,0.0,0.0,0.0,0.0,0.0,0.0,0.0,0.0,0.0,0.0,0.0,0.0,0.0,0.0,0.0,0.0,0.0,0.0,0.0,0.0,0.0,0.0,0.0,-6.0212,-6.3405,-6.6337,-6.859,-7.0016,-7.0586,-7.0045,-6.9319,-6.762,-6.4576,0.0,0.0,0.0,0.0,0.0,0.0,0.0,0.0,0.0,0.0,0.0,0.0,0.0,0.0,0.0,0.0,0.0,0.0,0.0,0.0,0.0,0.0,0.0,0.0,0.0,0.0,0.0,0.0,0.0,0.0,0.0,0.0,0.0,0.0,0.0,0.0,0.0,0.0,0.0,0.0,0.0,0.0,0.0,0.0,0.0,0.0,0.0,0.0,0.0,0.0,0.0,0.0,0.0,0.0,0.0,0.0,0.0,0.0,0.0,0.0,0.0,0.0,0.0,0.0,0.0,0.0,0.0,0.0,0.0,0.0,0.0,0.0,0.0,0.0,0.0,0.0,0.0,0.0,0.0,0.0,0.0,0.0,0.0,0.0,0.0,0.0,0.0,0.0,0.0,0.0,0.0,0.0,0.0,0.0,0.0,0.0,0.0,0.0,0.0,0.0,0.0,0.0,-6.0949,-6.4547,-6.7383,-6.8599,-7.0387,-7.1583,-7.1696,-7.0016,-6.8143,0.0,0.0,0.0,0.0,0.0,0.0,0.0,0.0,0.0,0.0,0.0,0.0,0.0,0.0,0.0,0.0,0.0,0.0,0.0,0.0,0.0,0.0,0.0,0.0,0.0,0.0,0.0,0.0,0.0,0.0,0.0,0.0,0.0,0.0,0.0,0.0,0.0,0.0,0.0,0.0,0.0,0.0,0.0,0.0,0.0,0.0,0.0,0.0,0.0,0.0,0.0,0.0,0.0,0.0,0.0,0.0,0.0,0.0,0.0,0.0,0.0,0.0,0.0,0.0,0.0,0.0,0.0,0.0,0.0,0.0,0.0,0.0,0.0,0.0,0.0,0.0,0.0,0.0,0.0,0.0,0.0,0.0,0.0,0.0,0.0,0.0,0.0,0.0,0.0,0.0,0.0,0.0,0.0,0.0,0.0,0.0,0.0,0.0,0.0,0.0,0.0,0.0,0.0,-6.242,-6.5647,-6.8432,-7.0201,-7.1583,-7.2407,-7.2522,-7.1995,-7.0574,-6.8101,0.0,0.0,0.0,0.0,0.0,0.0,0.0,0.0,0.0,0.0,0.0,0.0,0.0,0.0,0.0,0.0,0.0,0.0,0.0,0.0,0.0,0.0,0.0,0.0,0.0,0.0,0.0,0.0,0.0,0.0,0.0,0.0,0.0,0.0,0.0,0.0,0.0,0.0,0.0,0.0,0.0,0.0,0.0,0.0,0.0,0.0,0.0,0.0,0.0,0.0,0.0,0.0,0.0,0.0,0.0,0.0,0.0,0.0,0.0,0.0,0.0,0.0,0.0,0.0,0.0,0.0,0.0,0.0,0.0,0.0,0.0,0.0,0.0,0.0,0.0,0.0,0.0,0.0,0.0,0.0,0.0,0.0,0.0,0.0,0.0,0.0,0.0,0.0,0.0,0.0,0.0,0.0,0.0,0.0,0.0,0.0,0.0,0.0,0.0,0.0,0.0,0.0,-6.3217,-6.6318,-6.9121,-7.1587,-7.2845,-7.3725,-7.4254,-7.3682,-7.2253,-6.9897,0.0,0.0,0.0,0.0,0.0,0.0,0.0,0.0,0.0,0.0,0.0,0.0,0.0,0.0,0.0,0.0,0.0,0.0,0.0,0.0,0.0,0.0,0.0,0.0,0.0,0.0,0.0,0.0,0.0,0.0,0.0,0.0,0.0,0.0,0.0,0.0,0.0,0.0,0.0,0.0,0.0,0.0,0.0,0.0,0.0,0.0,0.0,0.0,0.0,0.0,0.0,0.0,0.0,0.0,0.0,0.0,0.0,0.0,0.0,0.0,0.0,0.0,0.0,0.0,0.0,0.0,0.0,0.0,0.0,0.0,0.0,0.0,0.0,0.0,0.0,0.0,0.0,0.0,0.0,0.0,0.0,0.0,0.0,0.0,0.0,0.0,0.0,0.0,0.0,0.0,0.0,0.0,0.0,0.0,0.0,0.0,0.0,0.0,0.0,0.0,0.0,0.0,-6.3758,-6.6751,-6.9721,-7.2595,-7.4126,-7.5282,-7.6319,-7.5057,-7.3437,-7.1658,0.0,0.0,0.0,0.0,0.0,0.0,0.0,0.0,0.0,0.0,0.0,0.0,0.0,0.0,0.0,0.0,0.0,0.0,0.0,0.0,0.0,0.0,0.0,0.0,0.0,0.0,0.0,0.0,0.0,0.0,0.0,0.0,0.0,0.0,0.0,0.0,0.0,0.0,0.0,0.0,0.0,0.0,0.0,0.0,0.0,0.0,0.0,0.0,0.0,0.0,0.0,0.0,0.0,0.0,0.0,0.0,0.0,0.0,0.0,0.0,-4.7714,0.0,0.0,0.0,0.0,0.0,0.0,0.0,0.0,0.0,0.0,0.0,0.0,0.0,0.0,0.0,0.0,0.0,0.0,0.0,0.0,0.0,0.0,0.0,0.0,0.0,0.0,0.0,0.0,0.0,0.0,0.0,0.0,0.0,0.0,0.0,0.0,0.0,0.0,0.0,0.0,0.0,-6.5412,-6.8427,-7.0938,-7.2706,-7.4512,-7.5787,-7.6356,-7.6081,-7.5183,-7.3535,-7.1499,0.0,0.0,0.0,0.0,0.0,0.0,0.0,0.0,0.0,0.0,0.0,0.0,0.0,0.0,0.0,0.0,0.0,0.0,0.0,0.0,0.0,0.0,0.0,0.0,0.0,0.0,0.0,0.0,0.0,0.0,0.0,0.0,0.0,0.0,0.0,0.0,0.0,0.0,0.0,0.0,0.0,0.0,0.0,0.0,0.0,0.0,0.0,0.0,0.0,0.0,0.0,0.0,0.0,0.0,0.0,0.0,0.0,0.0,0.0,0.0,-4.9768,0.0,0.0,0.0,0.0,0.0,0.0,0.0,0.0,0.0,0.0,0.0,0.0,0.0,0.0,0.0,0.0,0.0,0.0,0.0,0.0,0.0,0.0,0.0,0.0,0.0,0.0,0.0,0.0,0.0,0.0,0.0,0.0,0.0,0.0,0.0,0.0,0.0,0.0,0.0,0.0,-6.6149,-6.9084,-7.1593,-7.3458,-7.517,-7.654,-7.7338,-7.7192,-7.6355,-7.4779,-7.3348,0.0,0.0,0.0,0.0,0.0,0.0,0.0,0.0,0.0,0.0,0.0,0.0,0.0,0.0,0.0,0.0,0.0,0.0,0.0,0.0,0.0,0.0,0.0,0.0,0.0,0.0,0.0,0.0,0.0,0.0,0.0,0.0,0.0,0.0,0.0,0.0,0.0,0.0,0.0,0.0,0.0,0.0,0.0,0.0,0.0,0.0,0.0,0.0,0.0,0.0,0.0,0.0,0.0,-5.5526,-5.6308,-5.7015,-5.7854,-5.8581,-5.9045,-5.6006,-5.3875,-5.2532,-5.1667,0.0,0.0,0.0,0.0,0.0,0.0,0.0,0.0,0.0,0.0,0.0,0.0,0.0,0.0,0.0,0.0,0.0,0.0,0.0,0.0,0.0,0.0,0.0,0.0,-5.6887,-5.673,-5.5684,0.0,0.0,0.0,0.0,0.0,0.0,0.0,0.0,0.0,0.0,0.0,-6.6972,-6.9573,-7.2001,-7.4269,-7.5946,-7.7316,-7.8312,-7.817,-7.7392,-7.5877,-7.4792,-7.2753,0.0,0.0,0.0,0.0,0.0,0.0,0.0,0.0,0.0,0.0,0.0,0.0,0.0,0.0,0.0,0.0,0.0,0.0,0.0,0.0,0.0,0.0,0.0,0.0,0.0,0.0,0.0,0.0,0.0,0.0,0.0,0.0,-4.1704,-4.2537,0.0,0.0,0.0,0.0,0.0,0.0,0.0,0.0,0.0,0.0,0.0,0.0,0.0,-5.4334,-5.5884,-5.6033,-5.6836,-5.8405,-5.9226,-5.9674,-5.9786,-6.0746,-6.1197,-6.1272,-6.0845,0.0,-5.5629,-5.4734,0.0,0.0,0.0,0.0,0.0,0.0,0.0,0.0,0.0,0.0,0.0,0.0,0.0,0.0,0.0,0.0,0.0,0.0,0.0,0.0,0.0,0.0,-5.8415,-5.9326,-6.019,-6.0899,0.0,-5.9817,-5.8503,-5.8397,-5.931,0.0,0.0,0.0,0.0,0.0,0.0,0.0,-6.907,-7.0835,-7.2597,-7.4714,-7.6829,-7.8088,-7.8051,-7.8806,-7.8746,-7.7492,-7.5919,-7.4148,-7.2171,-6.9519,0.0,0.0,0.0,0.0,0.0,0.0,0.0,0.0,0.0,0.0,0.0,0.0,0.0,0.0,0.0,0.0,0.0,0.0,0.0,0.0,0.0,0.0,0.0,0.0,0.0,0.0,0.0,0.0,0.0,-4.2548,-4.3741,-4.4969,-4.5453,-4.6137,0.0,0.0,0.0,0.0,0.0,0.0,0.0,0.0,0.0,-5.4605,-5.573,-5.7135,-5.884,-5.884,-5.9702,-6.1351,-6.1706,-6.2383,-6.3343,-6.3778,-6.4251,-6.4724,-6.4236,-6.3124,-6.1448,-5.9082,-5.7526,-5.6664,0.0,0.0,0.0,0.0,-5.4912,-5.478,-5.3829,-5.3492,-5.3492,-5.3472,0.0,0.0,0.0,0.0,0.0,0.0,0.0,0.0,0.0,0.0,-6.1474,-6.2782,-6.3402,-6.3979,-6.5076,-6.4415,-6.3222,0.0,-6.2058,-6.2595,-6.3285,0.0,0.0,0.0,0.0,-6.7759,-6.9238,-7.1154,-7.3046,-7.4726,-7.6436,-7.7771,-7.849,-7.8853,-7.8689,-7.7866,-7.6819,-7.5217,-7.2967,-7.1202,-6.8904,0.0,0.0,0.0,0.0,0.0,0.0,0.0,0.0,0.0,0.0,0.0,0.0,0.0,0.0,0.0,0.0,0.0,0.0,0.0,0.0,0.0,0.0,0.0,0.0,0.0,0.0,0.0,0.0,-4.4423,-4.5715,-4.7117,-4.8133,-4.9013,0.0,0.0,0.0,0.0,0.0,0.0,-5.5169,-5.6253,-5.7152,-5.7826,-5.8614,-5.9853,-6.1543,-6.1543,-6.2407,-6.4059,-6.4059,-6.4738,-6.5983,-6.6024,-6.6422,-6.7068,-6.6446,-6.6163,-6.5993,-6.2881,-6.1018,-6.0115,-6.0056,-5.9826,-5.9424,-5.8706,-5.8442,-5.8347,-5.755,-5.7249,-5.7286,-5.7487,-5.7709,-5.7915,-5.8016,0.0,0.0,0.0,0.0,-6.1595,-6.2267,-6.3289,-6.452,-6.5757,-6.6373,-6.6924,-6.7964,-6.8095,-6.7383,0.0,-6.4882,-6.4956,-6.5569,0.0,0.0,0.0,0.0,-6.9234,-6.9614,-7.1482,-7.3304,-7.4623,-7.6112,-7.7452,-7.8553,-7.8617,-7.8374,-7.7894,-7.7139,-7.5689,-7.3573,-7.2374,-7.0449,-6.7651,0.0,0.0,0.0,0.0,0.0,0.0,0.0,0.0,0.0,0.0,0.0,0.0,0.0,0.0,0.0,0.0,0.0,0.0,0.0,0.0,0.0,0.0,0.0,0.0,0.0,0.0,0.0,0.0,0.0,-4.8787,-5.0281,0.0,0.0,0.0,0.0,-5.495,-5.5809,-5.6725,-5.766,-5.9289,-6.0246,-6.0417,-6.1205,-6.2407,-6.4096,-6.4096,-6.496,-6.6633,-6.6633,-6.6671,-6.6746,-6.6791,-6.693,-6.7086,-6.7108,-6.7203,-6.7182,-6.5219,-6.3917,-6.3182,-6.2992,-6.2369,-6.1617,-6.1399,-6.128,-6.128,-6.1243,-6.1185,-6.1355,-6.2102,-6.2923,-6.3595,-6.3617,-6.3654,0.0,0.0,-6.4411,-6.5132,-6.517,-6.6453,-6.7776,-6.7851,-6.8981,-6.9985,-6.9825,-7.0252,-7.0101,0.0,-6.7816,-6.7817,-6.7374,0.0,-6.8576,-6.873,-6.915,-6.9945,-7.1229,-7.2258,-7.335,-7.4566,-7.6413,-7.7575,-7.7662,-7.8027,-7.8122,-7.7823,-7.6517,-7.5367,-7.4555,-7.2838,-7.0866,-6.8744,-6.6463,0.0,0.0,0.0,0.0,0.0,0.0,0.0,0.0,0.0,0.0,0.0,0.0,0.0,0.0,0.0,0.0,0.0,0.0,0.0,0.0,0.0,0.0,0.0,0.0,0.0,0.0,0.0,0.0,-5.1936,-5.307,0.0,-5.5614,-5.6043,-5.6846,-5.8246,-5.8659,-5.9241,-6.0182,-6.1266,-6.2147,-6.2711,-6.3535,-6.4507,-6.5651,-6.5715,-6.6357,-6.7444,-6.753,-6.7894,-6.8504,-6.9014,-6.9361,-6.9501,-7.007,-7.0337,-7.032,-6.9655,-6.7954,-6.5766,-6.5688,-6.5401,-6.4998,-6.4916,-6.4895,-6.4874,-6.4727,-6.4662,-6.4678,-6.486,-6.5113,-6.5396,-6.5515,-6.5895,-6.635,-6.6539,-6.7203,-6.7953,-6.845,-6.9012,-6.9574,-7.0031,-7.0476,-7.1056,-7.1787,-7.1971,-7.1978,-7.1881,-7.0665,-6.9575,-6.9483,-6.96,-6.9755,-6.9792,-7.0106,-7.0507,-7.1012,-7.176,-7.2856,-7.4398,-7.5303,-7.6253,-7.739,-7.7349,-7.7227,-7.7123,-7.6231,-7.5259,-7.4138,-7.2817,-7.1151,-6.9034,-6.6813,-6.445,0.0,0.0,0.0,0.0,0.0,0.0,0.0,0.0,0.0,0.0,0.0,0.0,0.0,0.0,0.0,0.0,0.0,0.0,0.0,0.0,0.0,0.0,0.0,0.0,0.0,0.0,-5.2715,-5.4309,-5.5458,-5.6681,-5.809,-5.8461,-5.9075,-6.0237,-6.0831,-6.1432,-6.2119,-6.3205,-6.4069,-6.465,-6.5254,-6.6007,-6.6792,-6.6918,-6.7351,-6.8174,-6.8563,-6.9041,-6.9654,-7.048,-7.0921,-7.1068,-7.1595,-7.1842,-7.1864,-7.1864,-7.0562,-6.8546,-6.8063,-6.7416,-6.68,-6.7058,-6.7112,-6.7085,-6.7173,-6.7389,-6.7628,-6.7482,-6.7621,-6.7892,-6.8016,-6.8435,-6.8869,-6.9065,-6.9484,-7.0024,-7.0448,-7.0985,-7.1461,-7.1814,-7.2223,-7.2722,-7.3444,-7.3353,-7.3234,-7.3667,-7.2416,-7.1218,-7.1051,-7.0826,-7.067,-7.0607,-7.076,-7.0929,-7.1025,-7.157,-7.2419,-7.3677,-7.4172,-7.4952,-7.6268,-7.6001,-7.5734,-7.5554,-7.5072,-7.415,-7.2721,-7.2047,-7.0724,-6.8648,-6.6194,-6.3497,-6.0637,0.0,0.0,0.0,0.0,0.0,0.0,0.0,0.0,0.0,0.0,0.0,0.0,0.0,0.0,0.0,0.0,0.0,0.0,0.0,0.0,0.0,0.0,0.0,-5.1189,-5.2555,-5.4236,-5.5787,-5.7374,-5.8703,-5.9626,-6.0402,-6.0882,-6.0955,-6.2395,-6.3353,-6.3447,-6.5106,-6.6077,-6.6216,-6.6366,-6.6844,-6.7628,-6.7628,-6.8076,-6.8935,-6.9757,-7.013,-7.0168,-7.0976,-7.142,-7.1537,-7.1551,-7.162,-7.1659,-7.1636,-7.1629,-7.1387,-7.0003,-6.8387,-6.6946,-6.7626,-6.7815,-6.7815,-6.8599,-6.9398,-7.0107,-7.0107,-7.0653,-7.1288,-7.1288,-7.1288,-7.1325,-7.1325,-7.1363,-7.1376,-7.1268,-7.2373,-7.3487,-7.3199,-7.4256,-7.5174,-7.4671,-7.4337,-7.3888,-7.3183,-7.3009,-7.2798,-7.1964,-7.1628,-7.1353,-7.1142,-7.1071,0.0,-7.1441,-7.1796,-7.2139,-7.2426,-7.3102,-7.3668,-7.419,-7.3982,-7.3628,-7.3135,-7.2881,-7.2049,-7.0515,-7.0413,-6.9449,-6.7521,-6.4473,-6.1384,-5.8208,0.0,0.0,0.0,0.0,0.0,0.0,0.0,0.0,0.0,0.0,0.0,0.0,0.0,0.0,0.0,0.0,0.0,0.0,0.0,0.0,0.0,0.0,-5.2684,-5.2773,-5.5233,-5.7116,-5.7617,-5.9109,-6.066,-6.2063,-6.2395,-6.3023,-6.4192,-6.4709,-6.4967,-6.5016,-6.6063,-6.6679,-6.6729,-6.7309,-6.7741,-6.7963,-6.863,-6.9088,-6.9348,-7.0362,-7.0808,-7.0845,-7.1749,-7.2171,-7.2256,-7.2892,-7.3178,-7.3202,-7.3105,-7.2658,-7.1986,-7.1237,-7.0548,-7.0037,-7.0144,-7.0065,-6.9868,-7.009,-7.0275,-7.0383,-7.0383,-7.0531,-7.0742,-7.0845,-7.1278,-7.1898,-7.2557,-7.3215,-7.3759,-7.4088,-7.445,-7.47,-7.4309,-7.4432,-7.4665,-7.4671,-7.4418,-7.4115,-7.3893,-7.3776,-7.3472,-7.2673,-7.227,-7.1921,-7.1637,-7.1079,0.0,-7.0777,-7.0631,-7.0706,-7.1077,-7.1301,-7.1561,-7.1875,-7.2087,-7.2001,-7.1713,-7.1342,-7.0682,-6.9676,-6.8511,-6.6905,-6.488,-6.2695,-6.0527,0.0,0.0,0.0,0.0,0.0,0.0,0.0,0.0,0.0,0.0,0.0,0.0,0.0,0.0,0.0,0.0,0.0,0.0,0.0,0.0,0.0,0.0,-5.3667,-5.4916,-5.5185,-5.6808,-5.8373,-5.9402,-6.0687,-6.1973,-6.3222,-6.3663,-6.4251,-6.5169,-6.5573,-6.5757,-6.5757,-6.6644,-6.7111,-6.7111,-6.7936,-6.8431,-6.8509,-6.9373,-6.9858,-6.991,-7.0879,-7.1327,-7.1364,-7.2283,-7.2681,-7.2718,-7.3238,-7.3461,-7.3461,-7.3383,-7.2997,0.0,0.0,0.0,0.0,0.0,-7.142,-7.1531,-7.1531,-7.1451,-7.1388,-7.1757,-7.1867,-7.1904,-7.2319,-7.2789,-7.3259,-7.3822,-7.4275,-7.4642,-7.4853,-7.5102,-7.5178,-7.4679,-7.4675,-7.4771,-7.4618,-7.4508,-7.4302,-7.4052,-7.3849,0.0,-7.314,-7.2527,-7.1971,-7.167,-7.0935,-7.0385,-7.022,-6.9927,-6.9716,-6.9693,-6.9667,-6.9693,-6.9719,-7.0004,0.0,0.0,0.0,-6.8818,-6.7663,-6.5933,0.0,0.0,0.0,-5.9451,-5.7914,-5.6303,0.0,0.0,-5.1856,-5.0712,0.0,0.0,0.0,0.0,0.0,0.0,0.0,0.0,0.0,0.0,0.0,0.0,0.0,0.0,0.0,0.0,-5.5642,-5.7607,-5.7862,-5.7971,-5.8869,-6.1084,-6.2068,-6.2907,-6.3782,-6.4512,-6.4959,-6.5031,-6.5724,-6.6097,-6.6069,0.0,0.0,0.0,0.0,-6.8972,-6.9144,-6.9926,-7.0413,-7.0548,-7.135,-7.1756,-7.1793,-7.2595,-7.2927,-7.2927,-7.2927,-7.2927,-7.2927,-7.2927,-7.2881,-7.2732,-7.2331,-7.1606,-7.0919,-7.1552,-7.219,-7.2777,-7.2777,0.0,0.0,-7.3545,-7.3736,-7.3882,-7.4579,-7.4799,-7.4799,-7.4909,-7.4787,-7.4603,-7.4556,-7.4942,-7.5189,-7.4612,-7.4977,-7.526,-7.4626,-7.4642,-7.4517,-7.3835,-7.3538,-7.3359,-7.3291,-7.2448,-7.1703,-7.1342,-7.0598,-6.9975,-6.9724,-6.9414,-6.8948,-6.8268,0.0,0.0,-6.7668,-6.7848,-6.7664,-6.7027,-6.7141,-6.6559,-6.4934,-6.3096,-6.1896,-6.1231,-5.9742,-5.8275,-5.6959,-5.5729,-5.4681,-5.3801,-5.2279,-5.1194,0.0,0.0,0.0,0.0,0.0,0.0,0.0,0.0,0.0,0.0,0.0,0.0,0.0,0.0,0.0,-5.5609,-5.6547,-5.7628,-5.9565,-6.0367,-6.1109,-6.2026,-6.2871,-6.3928,-6.5396,-6.5688,-6.5988,-6.6531,-6.6721,-6.6736,-6.6584,-6.7528,-6.8051,-6.8051,-6.8961,-6.9485,-6.9514,-7.0281,-7.0712,-7.0741,0.0,0.0,-7.2116,-7.2451,-7.2582,-7.2582,-7.2582,-7.2582,-7.2582,-7.2401,-7.2621,-7.3081,-7.2598,-7.2214,-7.1924,-7.2079,-7.2512,-7.3124,-7.3124,-7.3532,-7.4019,-7.4009,-7.4019,-7.4056,-7.4074,-7.4115,0.0,-7.4877,-7.4928,-7.4872,-7.5354,-7.54,-7.5227,-7.4611,-7.5101,-7.5401,-7.4612,-7.4629,-7.4593,-7.3922,-7.3568,-7.3175,-7.2509,-7.2055,-7.1721,-7.1585,-7.0616,-6.9662,-6.9151,-6.8358,-6.7699,-6.7274,-6.6785,-6.6322,-6.6011,-6.5981,-6.5893,-6.5775,-6.5058,-6.4132,-6.3004,-6.1786,-6.0916,-6.0279,-5.9164,-5.7751,-5.5971,-5.5205,-5.4498,-5.3839,-5.2356,-5.1427,0.0,0.0,0.0,0.0,0.0,0.0,0.0,0.0,0.0,0.0,0.0,-5.057,0.0,0.0,-5.4773,-5.6429,-5.7684,-5.8868,-6.008,-6.1236,-6.2134,-6.2502,-6.3607,-6.4657,-6.5453,-6.5917,-6.6286,-6.6595,-6.7029,-6.7186,-6.7125,-6.7945,-6.8409,-6.8409,-6.926,-6.972,-6.9878,-7.0701,-7.1193,-7.132,-7.1865,-7.2108,-7.2108,-7.2197,-7.2263,-7.2263,-7.2174,-7.2363,-7.2735,-7.2824,-7.3098,-7.3398,-7.3062,-7.3006,-7.316,-7.3068,-7.3198,-7.3402,-7.3402,-7.3623,-7.3961,-7.426,-7.4335,-7.4374,-7.4639,-7.4713,-7.475,-7.5007,-7.4975,-7.4905,-7.5047,-7.5256,-7.5238,-7.4585,-7.4943,-7.5218,-7.442,-7.4518,-7.448,-7.3737,-7.3571,-7.3272,-7.2483,-7.1905,-7.1358,-7.0997,-7.0016,-6.9065,-6.8298,-6.7638,-6.6908,-6.6103,-6.5727,-6.5285,-6.4775,-6.449,-6.4361,-6.4138,-6.3021,-6.2151,-6.1675,-6.0524,-5.9697,-5.9171,-5.8344,-5.7317,-5.6173,-5.533,-5.4766,-5.4497,-5.3362,-5.2673,0.0,0.0,0.0,0.0,0.0,0.0,0.0,0.0,-4.9101,-5.0514,-5.1439,-5.2222,-5.3067,-5.4821,-5.6372,-5.683,-5.8645,-6.0038,-6.0152,-6.1575,-6.2636,-6.2725,-6.407,-6.5069,-6.5212,-6.5818,-6.6213,-6.6146,-6.6868,-6.7303,-6.7271,-6.8195,-6.873,-6.873,-6.9584,-7.0109,-7.0269,-7.1011,-7.1463,-7.1625,-7.1744,-7.1805,-7.1805,-7.1805,-7.1878,-7.206,-7.2086,-7.2459,-7.3043,-7.3582,-7.3774,-7.3742,-7.3751,-7.3958,-7.4221,-7.3931,-7.3799,-7.3774,-7.3774,-7.378,-7.3895,-7.4507,-7.4688,-7.4725,-7.5192,-7.5334,-7.5262,-7.5043,-7.4821,-7.4704,-7.4582,-7.4843,-7.5053,-7.458,-7.4911,-7.5119,-7.4332,-7.4487,-7.4498,-7.3689,-7.3505,-7.3318,-7.2529,-7.1644,-7.0869,-7.0331,-6.9472,-6.8535,-6.7729,-6.7121,-6.6382,-6.5222,-6.4932,-6.4454,-6.3769,-6.3348,-6.3018,-6.262,-6.1481,-6.0804,-6.0737,-5.9629,-5.8793,-5.8388,-5.7709,-5.7109,-5.6496,-5.5618,-5.5203,-5.5163,-5.4595,-5.402,-4.4347,-4.5338,0.0,-4.6401,-4.7475,-4.8749,0.0,0.0,-5.1157,-5.2033,-5.2812,-5.3627,-5.4441,-5.5327,-5.639,-5.7871,-5.8893,-5.9714,-6.0423,-6.1907,-6.2864,-6.2896,-6.393,-6.4943,-6.5653,-6.5796,-6.5804,-6.5607,-6.6322,-6.6683,-6.6516,-6.824,-6.9227,-6.9227,-7.0276,-7.0904,-7.0904,-7.1009,-7.1045,-7.1078,-7.111,-7.111,-7.111,-7.111,-7.1506,-7.223,-7.2916,-7.3276,-7.3384,-7.4178,-7.4398,-7.426,-7.4798,-7.4939,-7.4689,-7.379,-7.389,-7.4467,-7.4467,-7.483,-7.5227,-7.5155,-7.501,-7.4861,-7.4709,-7.4707,-7.4669,-7.4441,-7.4248,-7.419,-7.4657,-7.4502,-7.4371,-7.4766,-7.5229,-7.5423,-7.4691,-7.4924,-7.4996,-7.4173,-7.3478,-7.2762,-7.2176,-7.1171,-7.0419,-7.0306,-6.924,-6.8358,-6.797,-6.6876,-6.5945,-6.5475,-6.4647,-6.3704,-6.2648,-6.2515,-6.2248,-6.1506,-6.1016,-6.062,-6.0276,-5.9488,-5.8778,-5.8249,-5.7834,-5.7042,-5.5853,-5.5714,-5.5547,-5.5361,-5.529,-5.4752,-4.5901,0.0,0.0,0.0,-4.8627,-4.9853,-5.0196,-5.122,-5.2306,-5.3077,-5.3462,-5.401,-5.4869,-5.6058,-5.7173,0.0,-5.9148,-6.0101,-6.0419,-6.17,-6.2554,-6.2455,-6.3578,-6.466,-6.5445,-6.5513,-6.5658,-6.5984,-6.6764,-6.7369,-6.7796,-6.8962,-6.9635,-6.9635,-7.0093,-7.0374,-7.0374,-7.0615,-7.0716,-7.0716,-7.088,-7.0979,-7.1015,-7.1483,-7.1996,-7.2615,-7.3297,-7.3512,-7.3475,-7.4259,-7.4543,-7.4506,-7.475,-7.4782,-7.4673,-7.4258,-7.4295,-7.458,-7.458,-7.4793,-7.4968,-7.4857,-7.4782,-7.4669,-7.4325,-7.4283,-7.417,-7.3817,-7.3657,-7.3671,-7.4108,-7.4375,-7.4636,-7.4898,-7.5378,-7.5518,-7.4984,-7.4701,-7.4406,-7.3749,-7.311,-7.2476,-7.1884,-7.0949,-7.0218,-7.0047,-6.8948,-6.8059,-6.7729,-6.6691,-6.563,-6.4711,-6.4001,-6.3216,-6.2153,-6.2018,-6.1749,-6.1029,-6.0411,-5.9969,-5.9857,-5.9158,-5.8604,-5.8368,-5.8016,-5.7532,-5.6946,-5.6759,-5.6673,-5.659,-5.659,-5.6319,-4.7282,0.0,0.0,-4.87,-4.9708,-5.0815,-5.1239,-5.2178,-5.3222,-5.3987,-5.4126,-5.4361,-5.5004,-5.6431,0.0,-5.779,-5.912,-6.0174,-6.0174,-6.1375,-6.2223,-6.2053,-6.3311,-6.4393,-6.4946,-6.5014,-6.5332,-6.6106,-6.6918,-6.7729,-6.8576,-6.9389,-6.9813,-6.9813,-6.9849,-6.9885,-6.9885,-7.0202,-7.0306,-7.0341,-7.0579,-7.0788,-7.1038,-7.2077,-7.269,-7.2976,-7.3649,-7.3856,-7.3777,-7.4381,-7.4555,-7.4517,-7.4517,-7.4441,-7.4325,-7.4325,-7.4441,-7.4593,-7.4593,-7.4555,-7.4517,-7.4441,-7.4402,-7.4287,-7.3896,-7.3777,-7.3697,-7.3334,-7.317,-7.3254,-7.3878,-7.4316,-7.4748,-7.5068,-7.5385,-7.547,-7.5018,-7.4489,-7.3953,-7.3389,-7.2794,-7.2208,-7.1698,-7.0782,-7.0104,-6.9875,-6.8772,-6.791,-6.7669,-6.6629,-6.5441,-6.4289,-6.3675,-6.3084,-6.2192,-6.1923,-6.1546,-6.0961,-6.0204,-5.9718,-5.9578,-5.9017,-5.8594,-5.8523,-5.8212,-5.7999,-5.7927,-5.7667,-5.7523,-5.7379,-5.7379,-5.7379,0.0,0.0,-4.9423,-5.0154,-5.0891,-5.1865,-5.3361,-5.3744,-5.3987,-5.4783,-5.4957,-5.4957,-5.5022,-5.6245,-5.7289,-5.7321,-5.8611,-5.9621,-5.9621,-6.0977,-6.1917,-6.1917,-6.324,-6.418,0.0,-6.4216,-6.4601,-6.5547,-6.6387,-6.7229,-6.8182,-6.9101,-6.9598,-6.9598,-6.9778,-6.9885,-6.9885,-6.9885,-6.992,-6.992,-6.9956,-7.0345,-7.116,-7.2646,-7.3354,-7.3425,-7.4239,-7.4558,-7.4593,-7.4593,-7.4479,-7.4325,-7.4325,-7.4053,-7.3732,-7.3732,-7.4092,-7.4593,-7.4593,-7.4479,-7.4287,-7.4088,-7.3891,-7.3692,-7.3415,-7.3334,-7.3293,-7.3088,-7.288,-7.3015,-7.4272,-7.4285,-7.4206,-7.5432,-7.5484,-7.5179,-7.4722,-7.4339,-7.3953,-7.3389,-7.2603,-7.1906,-7.1612,-7.0613,-6.9787,-6.9787,-6.8772,-6.803,-6.797,-6.6538,-6.5222,-6.4547,-6.3834,-6.3282,-6.2886,-6.2192,-6.1681,-6.1302,-6.0618,-5.9969,-5.9648,-5.9228,-5.8876,-5.8523,-5.8523,-5.831,-5.7927,-5.7856,-5.7713,-5.7379,-5.7379,-5.7379,0.0,0.0,-5.0535,-5.0812,-5.1815,-5.2887,-5.3406,-5.3925,-5.434,-5.4617,-5.4652,-5.4683,-5.4842,-5.5706,-5.6571,-5.7187,-5.8159,-5.8961,-5.9516,-6.039,-6.1155,-6.1641,-6.2506,0.0,0.0,0.0,0.0,-6.6098,-6.6448,-6.7146,-6.8441,-6.883,-6.9008,-6.9008,-6.9266,-6.934,-6.934,-6.9597,-6.9988,-7.0482,-7.1122,-7.1867,-7.2644,-7.3028,-7.3482,-7.3976,-7.4142,-7.417,-7.417,-7.4088,-7.3935,-7.3856,-7.3697,-7.3577,-7.3456,-7.3456,-7.3577,-7.3737,-7.3737,-7.3662,-7.3657,-7.3577,-7.3496,-7.3415,-7.317,-7.3129,-7.3046,-7.2671,-7.2501,-7.2717,-7.3864,-7.3878,-7.3929,-7.5181,-7.5131,-7.4722,-7.4339,-7.3902,-7.3389,-7.2847,-7.2208,-7.1666,-7.1369,-7.0501,-6.9557,-6.8976,-6.8358,-6.7789,-6.7121,-6.6319,-6.5567,-6.4932,-6.4224,-6.3545,-6.2952,-6.2487,-6.1979,-6.1302,-6.0797,-6.0384,-5.9969,-5.9648,-5.9228,-5.8876,-5.8876,-5.8735,-5.831,-5.831,-5.8239,-5.8167,-5.8167,-5.8167,0.0,-5.0207,-5.1183,-5.1459,-5.2459,-5.346,-5.3736,-5.4149,-5.4529,-5.4592,-5.4623,-5.4655,-5.4842,-5.5463,-5.6122,-5.6707,-5.7645,-5.8481,-5.8935,-5.9804,-6.067,-6.1396,-6.2085,0.0,0.0,0.0,0.0,-6.6262,-6.6366,-6.7064,-6.8635,-6.8705,-6.8705,-6.8705,-6.8892,-6.8967,-6.8967,-6.9437,-7.0148,-7.0996,-7.1922,-7.2705,-7.3199,-7.3329,-7.3713,-7.417,-7.4088,-7.397,-7.3891,-7.3772,-7.3617,-7.3537,-7.3375,-7.3252,-7.3211,-7.3211,-7.317,-7.3129,-7.3252,-7.3293,-7.3293,-7.3211,-7.3211,-7.317,-7.2963,-7.2838,-7.2713,-7.2382,-7.2202,-7.2327,-7.3595,-7.3603,-7.3649,-7.4892,-7.4787,-7.4339,-7.4037,-7.3577,-7.3005,-7.2615,-7.1992,-7.1534,-7.1258,-7.0444,-6.9499,-6.8505,-6.8179,-6.7669,-6.6814,-6.6257,-6.5819,-6.5222,-6.4612,-6.3965,-6.3348,-6.282,-6.2315,-6.1709,-6.1234,-6.0728,-6.0384,-6.0039,-5.9648,-5.9298,-5.9298,-5.9158,-5.8876,-5.8876,-5.8806,-5.8735,-5.8735,-5.8664,-4.9804,-5.0592,-5.1356,-5.2046,-5.2839,-5.3663,-5.4388,-5.446,-5.4523,-5.471,-5.4741,-5.4738,0.0,0.0,-5.5973,-5.592,-5.7136,-5.804,-5.7942,-5.915,-6.0392,0.0,0.0,0.0,0.0,0.0,0.0,-6.6038,0.0,-6.6913,-6.8597,-6.8667,-6.8667,-6.8667,-6.8705,-6.8705,-6.8774,-6.9575,-7.0453,-7.1346,-7.2349,-7.2813,-7.2886,-7.3659,-7.401,-7.401,-7.401,-7.3891,-7.3692,-7.3692,-7.3496,-7.3293,-7.3293,-7.317,-7.3005,-7.3005,-7.288,-7.2755,-7.3129,-7.3252,-7.3252,-7.3046,-7.2963,-7.2922,-7.2755,-7.2501,-7.2288,-7.2288,-7.1951,-7.194,-7.3391,-7.343,-7.3379,-7.4616,-7.4506,-7.4003,-7.3815,-7.3299,-7.2827,-7.2508,-7.197,-7.1479,-7.1203,-7.0388,-6.9441,-6.8564,-6.8179,-6.7789,-6.7121,-6.6444,-6.5882,-6.5538,-6.4932,-6.4354,-6.403,-6.3348,-6.2753,-6.2448,-6.1709,-6.1166,-6.0728,-6.0384,-6.0039,-5.9648,-5.9648,-5.9648,-5.9578,-5.9578,-5.9438,-5.9088,-5.9088,-5.8947,-5.0083,-5.1292,-5.2339,-5.2513,-5.3584,-5.4626,-5.4834,-5.4417,-5.397,-5.4031,-5.3614,-5.3401,0.0,0.0,0.0,-5.5869,-5.633,0.0,-5.7971,-5.8321,0.0,0.0,0.0,-6.1897,-6.3199,-6.3665,0.0,0.0,-6.5645,-6.6493,-6.8172,-6.8241,-6.8241,-6.8241,-6.8397,-6.8752,-6.9341,-7.0853,-7.1738,-7.1987,-7.2793,-7.3263,-7.3457,-7.3667,-7.3772,-7.3772,-7.3772,-7.3617,-7.3415,-7.3252,-7.3129,-7.3088,-7.2922,-7.2838,-7.2755,-7.2755,-7.2755,-7.2671,-7.2586,-7.2713,-7.2838,-7.2797,-7.2628,-7.2501,-7.2416,-7.2245,-7.2029,-7.182,-7.1688,-7.1715,-7.2303,-7.2653,-7.3007,-7.3736,-7.3874,-7.3815,-7.3473,-7.3005,-7.2455,-7.197,-7.1171,-7.0501,-7.0218,-6.9818,-6.9356,-6.883,-6.8298,-6.785,-6.7426,-6.6814,-6.6257,-6.5882,-6.5251,-6.4612,-6.403,-6.3545,-6.3018,-6.2448,-6.1951,-6.1478,-6.1166,-6.0824,-6.048,-6.0039,-6.0039,-5.99,-5.9578,-5.9578,-5.9578,-5.9438,-5.9438,-5.9438,-5.0265,-5.1239,-5.2178,-5.2178,-5.3112,-5.3982,-5.3982,-5.3639,-5.3321,-5.338,-5.3096,0.0,0.0,0.0,0.0,0.0,0.0,0.0,-5.7517,-5.7868,-5.8873,0.0,-6.1145,0.0,-6.3052,-6.3645,-6.4278,0.0,-6.5568,-6.6484,-6.7771,-6.7919,-6.7999,-6.7999,-6.8507,-6.9317,-7.0424,-7.1527,-7.2238,-7.2545,-7.3044,-7.3375,-7.3496,-7.3496,-7.3496,-7.3496,0.0,-7.3375,-7.317,-7.3046,-7.2963,-7.2838,-7.2755,-7.2628,-7.2544,-7.2544,-7.2459,-7.2373,-7.2202,-7.2288,-7.2373,-7.2373,-7.2288,-7.2159,-7.2159,-7.2029,-7.1776,-7.1644,-7.1467,-7.1368,-7.1883,-7.2284,-7.2686,-7.3209,-7.349,-7.3506,-7.3214,-7.2688,-7.2133,-7.1534,-7.0813,-7.0161,-6.9875,-6.9588,-6.9329,-6.8948,-6.8358,-6.791,-6.7729,-6.6999,-6.6382,-6.6007,-6.5567,-6.4932,-6.4289,-6.39,-6.3442,-6.2848,-6.2354,-6.1884,-6.1546,-6.1166,-6.0824,-6.048,-6.048,-6.0342,-6.0135,-6.0135,-6.0065,-5.9857,-5.9857,-5.9787,-5.0453,-5.1011,-5.1575,-5.1575,-5.2167,-5.2788,-5.2788,-5.2683,-5.2672,-5.2781,0.0,0.0,-5.3036,0.0,-5.4039,-5.4139,0.0,-5.6299,-5.6958,-5.7621,-5.8836,-6.091,-6.104,-6.1439,-6.273,-6.3524,-6.4183,-6.4794,-6.5806,-6.6677,-6.7441,-6.7678,-6.7793,-6.7896,-6.8957,-7.0147,-7.1456,-7.1801,-7.2306,-7.2963,-7.3129,-7.3252,-7.3252,-7.3252,-7.3252,-7.3252,-7.3252,-7.317,-7.2963,-7.2963,-7.2838,-7.2628,-7.2628,-7.2501,-7.2288,-7.2288,-7.2159,-7.1985,-7.1942,-7.1942,-7.1942,-7.1985,-7.1985,-7.1942,-7.1942,-7.1766,-7.1556,-7.1512,-7.1199,-7.1005,-7.1598,-7.1961,-7.2295,-7.2796,-7.3021,-7.3083,-7.2952,-7.2455,-7.1862,-7.1258,-7.0645,-7.0161,-6.9875,-6.953,-6.924,-6.8948,-6.8417,-6.803,-6.803,-6.7182,-6.6444,-6.607,-6.5756,-6.5285,-6.4612,-6.4224,-6.3834,-6.3413,-6.2781,-6.2248,-6.1884,-6.1506,-6.1166,-6.0824,-6.0851,-6.0782,-6.0782,-6.0782,-6.0618,-6.0246,-6.0246,-6.0108,-5.0589,-5.1352,-5.1913,-5.1913,-5.2509,-5.3134,-5.3134,-5.2692,0.0,0.0,0.0,-5.1759,-5.2395,-5.256,0.0,-5.4218,0.0,0.0,0.0,0.0,-5.8005,0.0,0.0,0.0,0.0,0.0,0.0,0.0,0.0,-6.6928,-6.7475,-6.7516,-6.7865,-6.8446,-7.0058,-7.0999,-7.124,-7.2111,-7.2651,-7.2755,-7.2797,-7.288,-7.3046,-7.3046,-7.3046,-7.3046,-7.3046,0.0,-7.2755,-7.2755,-7.2586,-7.2373,-7.2373,-7.2245,-7.2029,-7.2029,-7.2029,-7.1942,-7.1732,-7.1644,-7.1688,-7.1942,-7.1854,-7.1644,-7.1644,-7.1546,-7.1312,-7.1098,-7.0961,-7.0858,-7.0577,-7.0814,-7.1289,-7.1771,-7.2011,-7.2287,-7.2802,-7.2294,-7.1534,-7.1013,-7.0363,-6.9875,-6.9787,-6.9356,-6.8948,-6.8889,-6.8595,-6.8238,-6.803,-6.7365,-6.6814,-6.6444,-6.6132,-6.563,-6.4996,-6.4354,-6.3834,-6.3413,-6.2781,-6.2381,-6.2315,-6.1641,-6.1234,-6.1234,-6.0961,-6.0782,-6.0782,-6.0782,-6.0755,-6.0687,-6.0687,-6.0687,-5.0171,-5.0838,-5.1462,-5.1517,-5.1825,-5.2134,-5.2216,0.0,0.0,0.0,0.0,-5.1263,-5.1201,0.0,0.0,0.0,0.0,0.0,0.0,0.0,0.0,0.0,0.0,0.0,0.0,0.0,0.0,0.0,0.0,-6.6896,-6.7105,-6.7645,-6.8308,-6.9149,-7.0362,-7.1157,-7.1611,-7.2202,-7.2501,-7.2501,-7.2628,-7.2755,-7.2838,-7.2838,-7.2838,-7.2838,-7.2838,-7.2797,-7.2671,-7.2544,-7.2416,-7.2288,-7.2202,-7.1985,-7.1776,-7.1776,-7.1722,-7.1624,-7.1323,-7.1278,-7.1199,-7.1199,-7.1323,-7.1412,-7.1278,-7.1188,-7.1007,-7.0779,-7.0641,-7.0456,-7.0223,-7.0424,-7.0748,-7.0782,-7.1145,-7.1581,-7.2133,-7.1807,-7.1258,-7.0901,-7.0218,-6.9787,-6.9787,-6.9298,-6.8889,-6.8889,-6.8623,-6.8298,-6.803,-6.7548,-6.706,-6.6568,-6.6195,-6.5819,-6.5285,-6.4676,-6.4095,-6.3769,-6.3244,-6.2781,-6.2381,-6.2046,-6.1777,-6.1546,-6.1234,-6.1029,-6.1029,-6.0892,-6.0782,-6.0782,-6.0782,-6.0782,-4.9714,-5.0242,-5.077,-5.1052,-5.1008,-5.0894,-5.1025,-5.0935,0.0,0.0,0.0,-5.0738,-5.0277,0.0,0.0,0.0,0.0,0.0,0.0,0.0,0.0,0.0,0.0,0.0,0.0,0.0,0.0,0.0,0.0,0.0,-6.6812,-6.7862,-6.8812,-6.9561,-7.0456,-7.1284,-7.1898,-7.2115,-7.2245,-7.2331,-7.2501,-7.2628,-7.2713,-7.2713,-7.2713,-7.2713,-7.2713,-7.2671,-7.2586,-7.2416,-7.2245,-7.2124,-7.1985,-7.1722,-7.1467,-7.1467,-7.1323,-7.1131,-7.087,-7.0825,-7.0779,-7.0561,-7.0779,-7.1086,-7.087,-7.0825,-7.0779,-7.0502,-7.0316,-7.0176,-7.0035,-7.0133,-7.0157,-6.9943,-7.0377,-7.0878,-7.1314,-7.1201,-7.0989,-7.0813,-7.0218,-6.9787,-6.9787,-6.9298,-6.8889,-6.8889,-6.8713,-6.8417,-6.803,-6.7789,-6.7365,-6.6691,-6.6319,-6.6007,-6.5601,-6.4996,-6.4483,-6.416,-6.3675,-6.315,-6.2648,-6.2448,-6.2248,-6.1951,-6.1574,-6.1438,-6.1438,-6.1098,-6.0892,-6.0892,-6.0851,-6.0782,-4.9664,-5.0114,-5.0362,-5.1095,-5.0741,-5.0211,-5.0211,0.0,0.0,0.0,-4.9375,-4.9697,-5.0339,-5.0388,0.0,0.0,0.0,0.0,0.0,0.0,0.0,0.0,0.0,0.0,0.0,0.0,0.0,0.0,0.0,0.0,-6.677,-6.8199,-6.9055,-6.9122,-7.0697,-7.1576,-7.1644,-7.1898,-7.2115,-7.2331,-7.2331,-7.2459,-7.2713,-7.2713,-7.2713,-7.2713,-7.2713,-7.2544,0.0,-7.2331,-7.2038,-7.1644,-7.1644,-7.1334,-7.0961,-7.0961,-7.0825,-7.0561,-7.0561,-7.0515,-7.0515,-7.0515,-7.0515,-7.0561,-7.0561,-7.0515,-7.0469,-7.027,-7.0223,-7.0082,-6.9607,-6.9303,-6.9157,-6.9343,-6.9763,-7.0223,-7.0578,-7.0467,-7.0385,-7.0718,-7.0218,-6.9787,-6.9787,-6.9298,-6.8889,-6.8889,-6.8889,-6.8654,-6.809,-6.797,-6.7729,-6.706,-6.6629,-6.6319,-6.6007,-6.5314,-6.4804,-6.4512,-6.3834,-6.3348,-6.3282,-6.2715,-6.2381,-6.2315,-6.1951,-6.1749,-6.1749,-6.1438,-6.1234,-6.1234,-6.0961,-6.0782,-4.8406,-4.9043,-4.9457,-4.9877,-4.9735,-4.9511,-4.9586,0.0,0.0,-4.8639,-4.8948,-4.9233,-4.9019,-4.9618,-5.0256,0.0,0.0,0.0,0.0,0.0,0.0,0.0,0.0,0.0,0.0,0.0,0.0,0.0,0.0,0.0,-6.6354,-6.7974,-6.887,-6.887,-7.05,-7.1412,-7.1412,-7.1678,-7.1776,-7.1864,-7.2029,-7.2159,-7.2288,-7.2288,-7.2288,-7.2288,-7.2288,-7.2202,0.0,-7.1951,-7.1688,-7.1378,-7.1244,-7.0973,-7.0654,-7.0654,-7.0561,-7.0469,-7.0363,-7.0316,-7.0316,-7.0096,-7.0049,-7.0129,-7.027,-7.0316,-7.027,-7.0035,-6.9846,-6.9655,-6.9463,-6.9091,-6.8845,-6.9209,-6.922,-6.9221,-6.9788,-6.9572,-6.9341,-6.9517,-6.8994,-6.8726,-6.9132,-6.871,-6.8427,-6.8828,-6.8889,-6.8772,-6.8298,-6.809,-6.785,-6.7365,-6.6814,-6.6382,-6.6007,-6.5567,-6.5031,-6.4547,-6.4224,-6.39,-6.3413,-6.315,-6.2914,-6.2715,-6.2381,-6.218,-6.218,-6.1749,-6.1614,-6.1614,-6.1234,-6.1098,-4.7323,-4.8103,-4.8766,-4.9077,-4.8994,-4.8841,0.0,0.0,0.0,-4.7949,-4.8223,-4.8437,-4.8057,-4.8941,-4.9719,0.0,0.0,0.0,0.0,0.0,0.0,0.0,0.0,0.0,0.0,0.0,0.0,0.0,0.0,0.0,-6.6212,-6.768,-6.8528,-6.8573,-7.0277,-7.1176,-7.1176,-7.1412,-7.1512,-7.16,-7.1776,-7.1898,-7.1985,-7.1985,-7.1985,-7.1985,-7.1985,-7.1942,0.0,-7.16,-7.1378,-7.1143,-7.0916,-7.0641,-7.0376,-7.0376,-7.0283,-7.0143,-7.0035,-6.9893,-6.9798,-6.9622,-6.9526,-6.9607,-6.9798,-6.9941,-7.0035,-6.9846,-6.9559,-6.9237,-6.9188,-6.8847,-6.8581,-6.8899,-6.857,-6.838,-6.9084,-6.8733,-6.8419,-6.864,-6.8178,-6.7946,-6.8445,-6.8183,-6.8089,-6.852,-6.8766,-6.8772,-6.8446,-6.8179,-6.785,-6.7548,-6.6999,-6.6506,-6.6195,-6.5819,-6.5412,-6.4804,-6.4612,-6.4289,-6.3769,-6.3545,-6.3282,-6.3046,-6.2715,-6.2515,-6.2515,-6.2153,-6.1951,-6.1951,-6.1614,-6.137,-4.6761,-4.7627,-4.8354,-4.9115,-4.8746,-4.8199,0.0,0.0,0.0,-4.6998,-4.6906,-4.7062,-4.7844,-4.8381,-4.8956,-4.9565,0.0,0.0,0.0,0.0,0.0,0.0,0.0,0.0,0.0,0.0,0.0,0.0,0.0,0.0,-6.6452,-6.7488,-6.8114,-6.8294,-7.0006,-7.0916,-7.0916,-7.1176,-7.1412,-7.16,-7.16,-7.1732,-7.1985,-7.1985,-7.1985,-7.1985,0.0,-7.1854,0.0,-7.1412,-7.1143,-7.087,-7.0608,-7.041,-7.0176,-7.0176,-6.9893,-6.9382,-6.9382,-6.9237,-6.8994,-6.8994,-6.8994,-6.8994,-6.8994,-6.9382,-6.9798,-6.9798,-6.9415,-6.8945,-6.8699,-6.8401,-6.8201,-6.8201,-6.7797,-6.7612,-6.838,-6.8002,-6.7818,-6.8545,-6.8178,-6.779,-6.7821,-6.7874,-6.7935,-6.7935,-6.8489,-6.8772,-6.8446,-6.8179,-6.785,-6.7548,-6.7182,-6.6876,-6.6506,-6.6195,-6.5882,-6.5538,-6.4868,-6.4512,-6.4512,-6.3834,-6.3413,-6.3413,-6.3046,-6.2876,-6.2876,-6.2582,-6.2381,-6.2381,-6.1951,-6.1614,-4.512,-4.557,-4.5927,-4.6712,-4.6748,-4.6712,-4.7247,0.0,-4.6975,-4.6906,-4.6824,-4.698,-4.7603,-4.8207,-4.8766,-4.9441,-5.1169,0.0,0.0,0.0,0.0,0.0,0.0,0.0,0.0,0.0,0.0,0.0,0.0,0.0,-6.6485,-6.726,-6.8074,-6.8802,-7.0013,-7.0608,-7.0608,-7.0699,-7.0825,-7.0837,-7.1019,-7.1188,-7.1233,-7.1233,-7.1233,0.0,0.0,-7.0928,-7.0837,-7.0791,-7.0641,-7.041,-7.0316,-7.0035,-6.9655,-6.9655,-6.943,-6.914,-6.914,-6.9091,-6.8994,-6.8994,-6.8994,-6.8994,-6.8994,-6.9091,-6.9188,-6.9042,-6.8847,-6.8649,-6.8401,-6.8251,-6.8201,-6.8201,-6.7797,-6.7452,-6.7708,-6.7271,-6.6997,-6.7218,-6.6766,-6.6511,-6.6979,-6.6759,-6.6858,-6.7781,-6.8089,-6.8338,-6.871,-6.8298,-6.797,-6.785,-6.7365,-6.6876,-6.6506,-6.6195,-6.5882,-6.5538,-6.5124,-6.474,-6.4512,-6.4289,-6.39,-6.3413,-6.331,-6.3112,-6.2942,-6.2781,-6.2582,-6.2381,-6.2248,-6.2018,0.0,-4.4371,-4.4728,-4.5213,-4.5526,0.0,0.0,0.0,-4.6836,-4.6731,-4.6637,-4.6766,-4.7407,-4.7969,-4.8635,-4.9527,0.0,0.0,0.0,0.0,0.0,0.0,0.0,0.0,0.0,0.0,0.0,0.0,0.0,0.0,-6.6837,-6.7334,-6.8122,-6.9337,-7.0003,-7.041,-7.041,-7.0469,-7.0515,-7.0515,-7.0687,-7.0779,-7.0779,-7.0779,-7.0779,0.0,0.0,-7.0515,0.0,-7.0283,-7.0176,-7.0035,-6.9846,-6.9559,-6.9237,-6.9237,-6.9091,-6.8847,-6.8847,-6.8797,-6.8699,-6.8699,-6.8699,-6.8699,-6.8699,-6.8847,-6.8945,-6.8699,-6.86,-6.855,-6.8251,-6.8201,-6.8201,-6.8201,-6.7797,-6.7388,-6.7388,-6.7005,-6.6617,-6.6617,-6.6108,-6.5825,-6.6262,-6.6078,-6.618,-6.7042,-6.7596,-6.8058,-6.8458,-6.8235,-6.803,-6.803,-6.7426,-6.6937,-6.6691,-6.6382,-6.607,-6.5664,-6.5348,-6.506,-6.4676,-6.4547,-6.4289,-6.3834,-6.3675,-6.3442,-6.3112,-6.298,-6.2781,-6.2582,-6.2582,-6.2381,0.0,0.0,0.0,0.0,0.0,0.0,0.0,0.0,0.0,-4.659,-4.6409,-4.652,-4.7302,-4.7841,-4.8556,-4.9798,0.0,0.0,0.0,0.0,0.0,0.0,0.0,0.0,0.0,0.0,0.0,0.0,0.0,0.0,-6.7499,-6.7566,-6.8307,-6.9732,-7.0035,-7.0129,-7.0176,-7.0363,-7.0423,-7.0423,-7.0469,-7.0469,-7.0469,-7.0469,-7.0469,0.0,-7.0423,-7.0423,-7.0376,-6.9907,-6.9751,-6.9703,-6.9188,-6.8994,-6.8994,-6.8994,-6.8797,-6.855,-6.855,-6.8401,-6.8201,-6.8201,-6.8201,-6.8201,-6.8201,-6.855,-6.8896,-6.8649,-6.855,-6.8501,-6.8251,-6.8201,-6.8201,-6.8201,-6.7797,-6.7388,-6.7388,-6.7005,-6.6617,-6.6617,-6.6108,-6.57,-6.57,-6.5768,-6.5842,-6.5903,-6.6981,-6.7781,-6.7843,-6.7899,-6.7879,-6.7879,-6.7396,-6.6999,-6.6999,-6.6691,-6.6382,-6.607,-6.5664,-6.5348,-6.506,-6.474,-6.4483,-6.4512,-6.416,-6.3834,-6.3413,-6.3112,-6.2914,-6.2942,-6.2942,-6.2715,-4.1187,0.0,-4.2839,-4.3444,-4.4103,0.0,0.0,0.0,0.0,0.0,0.0,0.0,0.0,0.0,0.0,0.0,0.0,0.0,0.0,0.0,0.0,0.0,0.0,0.0,0.0,0.0,0.0,0.0,0.0,-6.6055,-6.7499,-6.7566,-6.8307,-6.9732,-6.9655,-6.9703,-6.9893,-6.9941,-6.9988,-6.9988,-7.0176,-7.027,-7.027,-7.027,-7.0176,-6.9941,-6.9717,-6.9526,-6.9334,-6.9237,-6.9188,-6.9188,-6.9042,-6.8896,-6.8699,-6.8699,-6.855,-6.8301,-6.8301,-6.8251,-6.8201,-6.8201,-6.8201,-6.8201,-6.8201,-6.8301,-6.8351,-6.8301,-6.8301,-6.8301,-6.8201,-6.8201,-6.8201,-6.8201,-6.7797,-6.7388,-6.7388,-6.7005,-6.6617,-6.6617,-6.6108,-6.57,-6.57,-6.5366,-6.5319,-6.5842,-6.618,-6.6581,-6.7104,-6.7138,-6.715,-6.715,-6.7034,-6.6999,-6.6999,-6.6691,-6.6444,-6.6382,-6.5853,-6.5475,-6.5412,-6.506,-6.474,-6.4512,-6.416,-6.3834,-6.3413,-6.3282,-6.3178,-6.2942,-6.2942,-6.2876,-4.0131,-4.0999,-4.178,-4.252,-4.3474,-4.4317,0.0,0.0,0.0,0.0,0.0,0.0,0.0,0.0,0.0,0.0,0.0,0.0,0.0,0.0,0.0,0.0,0.0,0.0,0.0,0.0,0.0,0.0,0.0,-6.6238,-6.7394,-6.7584,-6.8229,-6.9397,-6.9285,-6.9334,-6.9607,-6.9478,-6.943,-6.943,-6.9607,-6.9655,-6.9655,-6.9655,-6.9574,-6.943,-6.9285,-6.914,-6.8994,-6.8847,-6.8797,-6.8797,-6.8699,-6.8451,-6.8251,-6.8251,-6.805,-6.7848,-6.7848,-6.7899,-6.805,-6.8151,-6.8201,-6.8201,-6.8201,-6.8201,-6.8201,-6.8201,-6.8201,-6.8201,-6.8201,-6.8201,-6.8201,-6.8201,-6.7899,-6.7542,-6.7471,-6.7057,-6.6744,-6.6586,-6.6214,-6.5893,-6.5754,-6.5351,-6.5177,-6.538,-6.5719,-6.6027,-6.6396,-6.6552,-6.66,-6.6482,-6.6401,-6.6402,-6.652,-6.6367,-6.6364,-6.6476,-6.6165,-6.579,-6.5538,-6.5348,-6.5031,-6.474,-6.4418,-6.4095,-6.39,-6.3545,-6.3282,-6.3112,-6.298,-6.2942,-3.9538,-4.0319,-4.115,-4.1909,-4.3071,-4.4026,0.0,0.0,0.0,0.0,0.0,0.0,0.0,0.0,0.0,0.0,0.0,0.0,0.0,0.0,0.0,0.0,0.0,0.0,0.0,0.0,0.0,0.0,0.0,-6.6423,-6.7246,-6.768,-6.824,-6.8961,-6.8945,-6.9042,-6.9285,-6.9091,-6.8994,-6.8994,-6.8994,-6.8994,-6.8994,-6.8994,-6.8994,-6.8945,0.0,0.0,-6.8797,-6.855,-6.8451,-6.8401,-6.8151,-6.7949,-6.7746,-6.7746,-6.7593,-6.7388,-6.7388,-6.7542,-6.7797,-6.805,-6.8151,-6.8151,-6.8201,-6.8201,-6.8201,-6.8201,-6.8201,-6.8201,-6.8201,-6.8201,-6.8201,-6.8201,-6.8,-6.7746,-6.7439,-6.7213,-6.6901,-6.6638,-6.6406,-6.6085,-6.5754,-6.5483,-6.5187,-6.4943,-6.538,-6.575,-6.575,-6.6051,-6.6104,-6.5872,-6.5613,-6.562,-6.5802,-6.5862,-6.598,-6.6241,-6.6387,-6.6195,-6.5538,-6.5475,-6.5348,-6.4996,-6.474,-6.4547,-6.4512,-6.39,-6.3479,-6.3413,-6.3112,-6.2914,-3.9378,-4.0094,-4.0969,-4.2268,-4.3173,-4.3896,0.0,0.0,0.0,0.0,0.0,0.0,0.0,0.0,0.0,0.0,0.0,0.0,0.0,0.0,0.0,0.0,0.0,0.0,0.0,0.0,0.0,0.0,0.0,-6.642,-6.7731,-6.7847,-6.824,-6.8961,-6.8797,-6.8699,-6.8699,-6.8896,-6.8994,-6.8994,-6.8994,-6.8994,-6.8994,-6.8994,-6.8896,-6.8649,0.0,-6.8401,-6.8,-6.7949,-6.7797,-6.7593,-6.7542,-6.7491,-6.7439,-6.7439,-6.7471,-6.7388,-6.7388,-6.7471,-6.7491,-6.7746,-6.7848,-6.7899,-6.8151,-6.8201,-6.8201,-6.8201,-6.8201,-6.8201,-6.8201,-6.8201,-6.8201,-6.8201,-6.8,-6.7746,-6.7439,-6.7213,-6.6901,-6.6638,-6.6406,-6.6085,-6.5754,-6.5483,-6.5187,-6.4943,-6.498,-6.5042,-6.5042,-6.5346,-6.5403,-6.5086,-6.5341,-6.544,-6.5173,-6.5173,-6.5174,-6.5203,-6.6004,-6.6195,-6.5538,-6.5475,-6.5348,-6.4996,-6.4932,-6.4804,-6.4512,-6.4354,-6.403,-6.3413,-6.3348,-6.3178,-3.9317,-4.025,-4.1362,-4.2789,-4.3429,-4.394,0.0,0.0,0.0,0.0,0.0,0.0,0.0,0.0,0.0,0.0,0.0,0.0,0.0,0.0,0.0,0.0,0.0,0.0,0.0,0.0,0.0,0.0,0.0,0.0,-6.7654,-6.7932,-6.8192,-6.855,-6.8451,-6.8301,-6.8151,-6.7945,-6.8093,-6.855,-6.855,-6.8501,-6.8351,-6.8351,-6.8201,-6.7949,0.0,-6.7797,-6.7593,-6.7593,-6.7491,-6.7388,-6.7388,-6.7285,-6.7161,-6.7005,-6.6953,-6.7005,-6.7161,-6.7213,-6.7265,-6.7644,-6.7797,-6.7848,-6.8101,-6.8201,-6.8201,-6.8201,-6.8201,-6.8201,-6.8201,-6.8201,-6.8201,-6.8201,-6.8101,-6.7899,-6.7491,-6.7317,-6.7109,-6.6638,-6.6406,-6.6085,-6.5754,-6.5483,-6.5187,-6.4943,-6.4888,-6.4888,-6.4888,-6.5053,-6.5014,-6.4671,-6.4805,-6.4852,-6.4749,-6.4721,-6.4842,-6.4994,-6.5291,-6.5463,-6.5509,-6.5136,-6.5061,-6.5285,-6.5124,-6.4932,-6.474,-6.4612,-6.4354,-6.3965,-6.3834,-6.3638,-3.925,-4.0508,-4.1951,-4.3121,0.0,-4.4362,-4.5389,0.0,0.0,0.0,0.0,0.0,0.0,0.0,0.0,0.0,0.0,0.0,0.0,0.0,0.0,0.0,0.0,0.0,0.0,0.0,0.0,0.0,0.0,0.0,-6.7395,-6.775,-6.7877,-6.7616,-6.7583,-6.7515,-6.7213,-6.6699,-6.6864,-6.7792,-6.758,-6.7479,-6.7438,-6.7438,-6.7465,-6.7388,-6.7388,-6.7336,-6.7317,-6.7317,-6.7265,-6.7213,-6.7213,-6.7109,-6.6901,-6.667,-6.6617,-6.6617,-6.6849,-6.6901,-6.7005,-6.7439,-6.7644,-6.7746,-6.8,-6.8151,-6.8201,-6.8201,-6.8201,-6.8201,-6.8201,-6.8201,-6.8201,-6.8201,-6.8151,-6.8,-6.7491,-6.7336,-6.7161,-6.6691,-6.6406,-6.6085,-6.5754,-6.5483,-6.5187,-6.4943,-6.4888,-6.4888,-6.4888,-6.4888,-6.4777,-6.4437,-6.4382,-6.4371,-6.4347,-6.4292,-6.4387,-6.4663,-6.4666,-6.4813,-6.5258,-6.4769,-6.4725,-6.5036,-6.4784,-6.4595,-6.4532,-6.4306,-6.4115,-6.4051,-6.3794,-6.3637,-3.9168,-4.0796,-4.2602,-4.3039,-4.4216,0.0,-4.6096,0.0,0.0,0.0,0.0,0.0,0.0,0.0,0.0,0.0,0.0,0.0,0.0,0.0,0.0,0.0,0.0,0.0,0.0,0.0,0.0,0.0,0.0,0.0,-6.7182,-6.723,-6.6839,-6.5915,-6.5883,-6.5734,-6.5486,-6.5454,-6.5774,-6.6529,-6.5856,-6.5838,-6.6479,-6.6479,-6.6831,-6.7388,-6.7388,-6.7265,-6.7005,-6.7005,-6.6901,-6.667,-6.667,-6.667,-6.6617,-6.6617,-6.6617,-6.6617,-6.6617,-6.6617,-6.667,-6.6953,-6.7213,-6.7491,-6.7746,-6.8,-6.8201,-6.8201,-6.8201,-6.8201,-6.8201,-6.8201,-6.8201,-6.8201,-6.8,-6.7746,-6.7439,-6.7213,-6.6953,-6.667,-6.6406,-6.6085,-6.5754,-6.5483,-6.5187,-6.4943,-6.4888,-6.4888,-6.4888,-6.4888,-6.4777,-6.4437,-6.4382,-6.43,-6.4054,-6.377,-6.3571,-6.3602,-6.4483,-6.4875,-6.4575,-6.4515,-6.4272,-6.3749,-6.3687,-6.3564,-6.3225,-6.3225,-6.3039,-6.2755,-6.2692,-6.2475,-4.0294,-4.1742,-4.328,-4.4276,0.0,0.0,0.0,0.0,0.0,0.0,0.0,0.0,0.0,0.0,0.0,0.0,0.0,0.0,0.0,0.0,0.0,0.0,0.0,0.0,0.0,0.0,0.0,0.0,0.0,0.0,-6.6256,-6.6239,-6.6012,-6.5507,-6.5425,-6.5326,-6.5058,-6.4611,-6.4498,-6.4602,-6.5062,-6.5386,-6.5472,-6.5969,-6.6218,-6.6266,-6.671,-6.6849,-6.6744,-6.6744,-6.6691,-6.6617,-6.6617,-6.6617,-6.6617,-6.6617,-6.6617,-6.6617,-6.6617,-6.6617,-6.6638,-6.6901,-6.7057,-6.7213,-6.7439,-6.7746,-6.7949,-6.7949,-6.805,-6.8201,-6.8201,-6.8201,-6.8151,-6.8,-6.7848,-6.7695,-6.7265,-6.7057,-6.6849,-6.6459,-6.6108,-6.5785,-6.5515,-6.5242,-6.4998,-6.4888,-6.4888,-6.4888,-6.4888,-6.4888,-6.4832,-6.4721,-6.4524,-6.4326,-6.4244,-6.3963,-6.3709,-6.3508,-6.3702,-6.3918,-6.4188,-6.4011,-6.386,-6.3909,-6.3725,-6.3418,-6.308,-6.308,-6.3018,-6.2923,-6.2923,-6.2832,-4.0964,-4.2413,-4.3878,0.0,0.0,0.0,0.0,0.0,0.0,0.0,0.0,0.0,0.0,0.0,0.0,0.0,0.0,0.0,0.0,0.0,0.0,0.0,0.0,0.0,0.0,0.0,0.0,0.0,0.0,0.0,0.0,-6.5301,-6.5008,-6.4537,-6.4537,-6.4388,-6.4088,-6.3662,-6.3341,-6.3141,-6.4016,-6.4416,-6.4488,-6.4996,-6.5338,-6.5658,-6.608,-6.6396,-6.6617,-6.6617,-6.6617,-6.6617,-6.6617,-6.6617,-6.6617,-6.6617,-6.6617,-6.6617,-6.6617,-6.6617,-6.667,-6.6796,-6.6953,-6.7057,-6.7213,-6.7439,-6.7644,-6.7644,-6.7797,-6.7949,-6.7949,-6.8,-6.8,-6.7746,-6.7593,-6.7439,-6.7109,-6.6953,-6.6744,-6.6299,-6.5947,-6.5592,-6.5351,-6.5108,-6.4888,-6.4888,-6.4888,-6.4888,-6.4888,-6.4888,-6.4888,-6.4888,-6.4691,-6.4579,-6.4579,-6.43,-6.4019,-6.3793,-6.3394,-6.3374,-6.3677,-6.3473,-6.3476,-6.3652,-6.3291,-6.2988,-6.2654,-6.2532,-6.2499,-6.2499,-6.2499,-6.2499,-4.0897,-4.26,0.0,0.0,0.0,0.0,0.0,0.0,0.0,0.0,0.0,0.0,0.0,0.0,0.0,0.0,0.0,0.0,0.0,0.0,0.0,0.0,0.0,0.0,0.0,0.0,0.0,0.0,0.0,0.0,0.0,-6.4431,-6.3834,-6.2839,-6.2808,-6.2661,-6.2396,-6.2396,-6.2396,-6.2396,-6.2396,-6.2793,-6.3457,-6.3489,-6.4247,-6.5595,-6.5574,-6.5954,-6.6586,-6.6586,-6.6617,-6.6617,-6.6617,-6.6617,-6.6617,-6.6617,-6.6617,-6.6617,-6.6617,-6.6617,-6.6617,-6.6617,-6.6796,-6.7005,-6.7005,-6.7213,-6.742,-6.742,-6.7388,-6.7388,-6.7388,-6.7593,-6.7746,-6.7439,-6.7213,-6.7005,-6.7005,-6.6796,-6.6512,-6.6246,-6.5947,-6.5592,-6.5351,-6.5108,-6.4888,-6.4888,-6.4888,-6.4888,-6.4888,-6.4888,-6.4888,-6.4888,-6.4888,-6.4888,-6.4888,-6.4579,-6.4382,-6.4382,-6.3849,-6.3424,-6.3137,-6.3079,-6.2963,-6.2615,-6.2292,-6.191,-6.1613,-6.1344,-6.1193,-6.1193,-6.1193,-6.1193,-4.2185,0.0,0.0,0.0,0.0,0.0,0.0,0.0,0.0,0.0,0.0,0.0,0.0,0.0,0.0,0.0,0.0,0.0,0.0,0.0,0.0,0.0,0.0,0.0,0.0,0.0,0.0,0.0,0.0,0.0,0.0,-6.337,-6.303,-6.2513,-6.2513,-6.2464,-6.2396,-6.2396,-6.2396,-6.2396,-6.2396,-6.2491,-6.2762,-6.3268,-6.3609,-6.3877,-6.4821,-6.5219,-6.5311,-6.6026,-6.6406,-6.6617,-6.6617,-6.6617,-6.6617,-6.6617,-6.6617,-6.6617,-6.6617,-6.6617,-6.6617,-6.6617,-6.6638,-6.6691,-6.6691,-6.6901,-6.7109,-6.7109,-6.7265,-6.7368,-6.7161,-6.7213,-6.7213,-6.7161,-6.7057,-6.6953,-6.6744,-6.6512,-6.6246,-6.5893,-6.5623,-6.5351,-6.5053,-6.4943,-6.4888,-6.4888,-6.4888,-6.4888,-6.4888,-6.4888,-6.4888,-6.4888,-6.4888,-6.4888,-6.4888,-6.4832,-6.4635,-6.4382,-6.4214,-6.3906,-6.3424,-6.3194,-6.2963,-6.2615,-6.2498,-6.2175,-6.1613,-6.1494,-6.1404,-6.1193,-6.1193,-6.1284,0.0,0.0,0.0,0.0,0.0,0.0,0.0,0.0,0.0,0.0,0.0,0.0,0.0,0.0,0.0,0.0,0.0,0.0,0.0,0.0,0.0,0.0,0.0,0.0,0.0,0.0,0.0,0.0,0.0,0.0,0.0,-6.2759,-6.2562,-6.2446,-6.2396,-6.2396,-6.2396,-6.2396,-6.2396,-6.2396,-6.2396,-6.2396,-6.2396,-6.2857,-6.3085,-6.3178,-6.4424,-6.4986,-6.5161,-6.5897,-6.6299,-6.6459,-6.6565,-6.6617,-6.6617,-6.6617,-6.6617,-6.6617,-6.6617,-6.6617,-6.6617,-6.6617,-6.6617,-6.6617,-6.6617,-6.6691,-6.6849,-6.6849,-6.6953,-6.7057,-6.6901,-6.6849,-6.6849,-6.6849,-6.6744,-6.667,-6.6459,-6.6246,-6.5893,-6.5592,-6.5406,-6.5187,-6.4746,-6.4691,-6.4666,-6.4554,-6.4666,-6.4777,-6.4888,-6.4888,-6.4888,-6.4888,-6.4888,-6.4888,-6.4888,-6.4888,-6.4832,-6.4635,-6.4437,-6.4188,-6.3709,-6.3424,-6.3137,-6.2789,-6.2673,-6.2439,-6.1969,-6.185,-6.1702,-6.1552,-6.1552,-6.1642,0.0,0.0,0.0,0.0,0.0,0.0,0.0,0.0,0.0,0.0,0.0,0.0,0.0,0.0,0.0,0.0,0.0,0.0,0.0,0.0,0.0,0.0,0.0,0.0,0.0,0.0,0.0,0.0,0.0,0.0,0.0,-6.2562,-6.2396,-6.2396,-6.2396,-6.2396,-6.2396,-6.2396,-6.2396,-6.2396,-6.2396,-6.2396,-6.2396,-6.2396,-6.2625,-6.3127,-6.4099,-6.4929,-6.5607,-6.6,-6.6139,-6.6192,-6.6512,-6.6617,-6.6617,-6.6617,-6.6617,-6.6617,-6.6617,-6.6617,-6.6617,-6.6617,-6.6617,-6.6617,-6.6617,-6.6617,-6.6617,-6.6617,-6.6617,-6.6617,-6.6565,-6.6565,-6.6565,-6.6565,-6.6352,-6.6192,-6.6139,-6.5893,-6.5592,-6.5351,-6.5242,-6.5077,-6.4493,-6.4382,-6.43,-6.4106,-6.4244,-6.4524,-6.4832,-6.4888,-6.4888,-6.4888,-6.4888,-6.4888,-6.4888,-6.4888,-6.4888,-6.4888,-6.4635,-6.4356,-6.4049,-6.3709,-6.3367,-6.3137,-6.2789,-6.2615,-6.2615,-6.2292,-6.2116,-6.2116,-6.2116,-6.2116,0.0,0.0,0.0,0.0,0.0,0.0,0.0,0.0,0.0,0.0,0.0,0.0,0.0,0.0,0.0,0.0,0.0,0.0,0.0,0.0,0.0,0.0,0.0,0.0,0.0,0.0,0.0,0.0,0.0,0.0,-6.2808,-6.2562,-6.2396,-6.2396,-6.2396,-6.2396,-6.2396,-6.2396,-6.2396,-6.2396,-6.2396,-6.2396,-6.2396,-6.2396,-6.2494,-6.2726,-6.3043,-6.3733,-6.463,-6.5482,-6.5947,-6.6192,-6.6512,-6.6617,-6.6617,-6.6617,-6.6617,-6.6617,-6.6617,-6.6617,-6.6617,-6.6617,-6.6617,-6.6617,-6.6617,-6.6617,-6.6617,-6.6617,-6.6617,-6.6565,-6.6352,-6.6299,-6.6246,-6.5947,-6.6054,-6.6139,-6.5893,-6.5623,-6.5351,-6.5297,-6.4912,-6.4549,-6.4437,-6.4244,-6.4132,-6.43,-6.4326,-6.4524,-6.4832,-6.4888,-6.4888,-6.4888,-6.4888,-6.4888,-6.4888,-6.4888,-6.4888,-6.4888,-6.4832,-6.4635,-6.4356,-6.3793,-6.3367,-6.3137,-6.3021,-6.2847,-6.2615,-6.2556,-6.2351,-6.2116,-6.2116,-6.2234,0.0,0.0,0.0,0.0,0.0,0.0,0.0,0.0,0.0,0.0,0.0,0.0,0.0,0.0,0.0,0.0,0.0,0.0,0.0,0.0,0.0,0.0,0.0,0.0,0.0,0.0,0.0,0.0,0.0,-6.3034,-6.2612,-6.2495,-6.2396,-6.2396,-6.2396,-6.2396,-6.2396,-6.2396,-6.2396,-6.2396,-6.2396,-6.2396,-6.2365,-6.2116,-6.2242,-6.2591,-6.239,-6.3078,-6.4359,-6.4969,-6.558,-6.6192,-6.6512,-6.6617,-6.6617,-6.6617,-6.6617,-6.6617,-6.6617,-6.6617,-6.6617,-6.6617,-6.6617,-6.6617,-6.6617,-6.6512,-6.6406,-6.6406,-6.6268,-6.6161,-6.6,-6.5947,-6.5893,-6.5538,-6.5623,-6.5731,-6.5569,-6.5297,-6.5108,-6.5108,-6.4746,-6.4326,-6.4244,-6.3849,-6.3709,-6.4132,-6.4188,-6.4356,-6.4832,-6.4888,-6.4888,-6.4888,-6.4888,-6.4888,-6.4888,-6.4888,-6.4888,-6.4888,-6.4888,-6.4777,-6.4382,-6.4132,-6.3736,-6.3309,-6.3194,-6.3021,-6.2847,-6.2847,-6.2731,-6.2585,-6.2585,-6.2643,0.0,0.0,0.0,0.0,0.0,0.0,0.0,0.0,0.0,0.0,0.0,0.0,0.0,0.0,0.0,0.0,0.0,0.0,0.0,0.0,0.0,0.0,0.0,0.0,0.0,0.0,0.0,0.0,0.0,-6.2986,-6.2446,-6.2396,-6.2396,-6.2396,-6.2396,-6.2396,-6.2396,-6.2396,-6.2396,-6.2396,-6.2396,-6.2396,-6.2365,-6.1834,-6.1894,-6.2404,-6.1958,-6.2615,-6.3986,-6.4346,-6.508,-6.6004,-6.6322,-6.6491,-6.6617,-6.6617,-6.6617,-6.6617,-6.6617,-6.6617,-6.6617,-6.6617,-6.6565,-6.6565,-6.6565,-6.6352,-6.6085,-6.6085,-6.5893,-6.57,-6.5646,-6.5646,-6.5538,-6.5297,-6.5242,-6.5242,-6.5242,-6.5053,-6.4888,-6.4888,-6.4579,-6.4244,-6.3963,-6.3481,-6.3367,-6.3993,-6.4106,-6.4275,-6.4832,-6.4888,-6.4888,-6.4888,-6.4888,-6.4888,-6.4888,-6.4888,-6.4888,-6.4888,-6.4888,-6.4777,-6.4524,-6.4437,-6.4188,-6.3679,-6.3367,-6.3137,-6.3079,-6.3079,-6.3079,-6.3079,-6.3079,-6.3079,0.0,0.0,0.0,0.0,0.0,0.0,0.0,0.0,0.0,0.0,0.0,0.0,0.0,0.0,0.0,0.0,0.0,0.0,0.0,0.0,0.0,0.0,0.0,0.0,0.0,0.0,0.0,0.0,-6.3228,-6.2986,-6.2446,-6.2396,-6.2396,-6.2396,-6.2396,-6.2396,-6.2396,-6.2396,-6.2396,-6.2396,-6.2396,-6.2396,-6.2365,-6.1834,-6.1645,-6.1769,-6.1794,-6.206,-6.2569,-6.3474,-6.4392,-6.525,-6.5597,-6.608,-6.6617,-6.6617,-6.6617,-6.6617,-6.6617,-6.6617,-6.6617,-6.6617,-6.6459,-6.6246,-6.6246,-6.6,-6.5754,-6.5754,-6.5754,-6.5646,-6.5406,-6.5351,-6.5297,-6.4998,-6.4943,-6.4943,-6.4943,-6.4943,-6.4888,-6.4888,-6.4443,-6.3936,-6.3652,-6.3538,-6.3622,-6.43,-6.4326,-6.4468,-6.4832,-6.4888,-6.4888,-6.4888,-6.4888,-6.4888,-6.4888,-6.4888,-6.4888,-6.4888,-6.4888,-6.4888,-6.4832,-6.4579,-6.4382,-6.427,-6.3736,-6.3367,-6.3079,-6.3079,-6.3079,-6.3079,-6.3079,-6.3079,0.0,0.0,0.0,0.0,0.0,0.0,0.0,0.0,0.0,0.0,0.0,0.0,0.0,0.0,0.0,0.0,0.0,0.0,0.0,0.0,0.0,0.0,0.0,0.0,0.0,0.0,0.0,0.0,-6.3228,-6.2986,-6.2446,-6.2396,-6.2396,-6.2396,-6.2396,-6.2396,-6.2396,-6.2396,-6.2396,-6.2396,-6.2396,-6.2396,-6.2365,-6.1834,-6.1582,-6.1613,-6.1361,-6.1732,-6.2519,-6.2934,-6.3776,-6.4767,-6.4922,-6.5164,-6.548,-6.589,-6.6017,-6.608,-6.6459,-6.6617,-6.6565,-6.6406,-6.6299,-6.6139,-6.5947,-6.5731,-6.5515,-6.5515,-6.5351,-6.5242,-6.5108,-6.5108,-6.5053,-6.4943,-6.4888,-6.4888,-6.4888,-6.4888,-6.4832,-6.4635,-6.4412,-6.4132,-6.3793,-6.3766,-6.3906,-6.4326,-6.4382,-6.4524,-6.4832,-6.4888,-6.4888,-6.4888,-6.4888,-6.4888,-6.4888,-6.4888,-6.4888,-6.4888,-6.4888,-6.4888,-6.4888,-6.4777,-6.4579,-6.4382,-6.3963,-6.3652,-6.3309,-6.3309,-6.3252,-6.3079,-6.3079,-6.3194,0.0,0.0,0.0,0.0,0.0,0.0,0.0,0.0,0.0,0.0,0.0,0.0,0.0,0.0,0.0,0.0,0.0,0.0,0.0,0.0,0.0,0.0,0.0,0.0,0.0,0.0,0.0,0.0,-6.3131,-6.2856,-6.2446,-6.2396,-6.2396,-6.2396,-6.2396,-6.2396,-6.2396,-6.2396,-6.2396,-6.2396,-6.2396,-6.2396,-6.2365,-6.1834,-6.1582,-6.1582,-6.1052,-6.1413,-6.2393,-6.2393,-6.3158,-6.4247,-6.4247,-6.4374,-6.4595,-6.51,-6.529,-6.5416,-6.5975,-6.6228,-6.6206,-6.613,-6.6032,-6.5924,-6.5646,-6.5406,-6.5187,-6.5187,-6.5053,-6.4888,-6.4888,-6.4888,-6.4888,-6.4888,-6.4888,-6.4888,-6.4888,-6.4888,-6.4777,-6.4437,-6.4382,-6.4356,-6.4132,-6.4075,-6.4188,-6.4468,-6.4524,-6.4635,-6.4888,-6.4888,-6.4888,-6.4888,-6.4888,-6.4943,-6.4998,-6.4998,-6.5053,-6.5108,-6.5108,-6.5053,-6.4998,-6.4998,-6.4857,-6.4524,-6.43,-6.4049,-6.3652,-6.3652,-6.3538,-6.3309,-6.3309,-6.3424,0.0,0.0,0.0,0.0,0.0,0.0,0.0,0.0,0.0,0.0,0.0,0.0,0.0,0.0,0.0,0.0,0.0,0.0,0.0,0.0,0.0,0.0,0.0,0.0,0.0,0.0,0.0,0.0,-6.2954,-6.271,-6.2446,-6.2396,-6.2396,-6.2396,-6.2396,-6.2396,-6.2396,-6.2396,-6.2396,-6.2396,-6.2396,-6.2396,-6.2365,-6.1834,-6.1582,-6.1582,-6.1052,-6.1134,-6.1645,-6.1645,-6.2437,-6.352,-6.352,-6.3931,-6.4532,-6.4563,-6.4563,-6.4607,-6.5041,-6.5156,-6.5229,-6.5589,-6.5538,-6.5351,-6.5351,-6.5132,-6.4888,-6.4888,-6.4888,-6.4888,-6.4888,-6.4888,-6.4888,-6.4888,-6.4888,-6.4888,-6.4888,-6.4888,-6.4777,-6.4437,-6.4382,-6.4382,-6.4382,-6.4382,-6.4524,-6.4832,-6.4888,-6.4888,-6.4888,-6.4888,-6.4888,-6.4888,-6.4888,-6.4998,-6.5242,-6.5297,-6.5406,-6.5646,-6.5646,-6.5538,-6.5297,-6.5297,-6.5132,-6.4888,-6.4832,-6.4554,-6.3993,-6.3993,-6.3993,-6.3936,-6.3936,-6.3993,0.0,0.0,0.0,0.0,0.0,0.0,0.0,0.0,0.0,0.0,0.0,0.0,0.0,0.0,0.0,0.0,0.0,0.0,0.0,0.0,0.0,0.0,0.0,0.0,0.0,0.0,0.0,0.0,0.0,-6.1344,-6.1055,-6.1055,-6.1055,-6.1055,-6.1055,-6.1277,-6.1751,-6.1782,-6.1972,-6.2396,-6.2396,-6.2396,-6.2365,-6.1834,-6.1582,-6.1582,-6.1052,-6.1,-6.1359,-6.1563,-6.1941,-6.2544,-6.2744,-6.2951,-6.3236,-6.3678,-6.3767,-6.3657,-6.4266,-6.4361,-6.4236,-6.4168,-6.4381,-6.4646,-6.4398,-6.4573,-6.4888,-6.4888,-6.4888,-6.4888,-6.4888,-6.4888,-6.4888,-6.4888,-6.4888,-6.4888,-6.4888,-6.4888,-6.4832,-6.4777,-6.4721,-6.4721,-6.4721,-6.4721,-6.4777,-6.4888,-6.4888,-6.4888,-6.4888,-6.4888,-6.4888,-6.4888,-6.5053,-6.5187,-6.5297,-6.546,-6.5592,-6.57,-6.57,-6.5646,-6.5538,-6.5538,-6.546,-6.5132,-6.5132,-6.4857,-6.4244,-6.4244,-6.4188,-6.3993,-6.3993,-6.4075,0.0,0.0,0.0,0.0,0.0,0.0,0.0,0.0,0.0,0.0,0.0,0.0,0.0,0.0,0.0,0.0,0.0,0.0,0.0,0.0,0.0,0.0,0.0,0.0,0.0,0.0,0.0,0.0,0.0,0.0,-6.0297,-6.0297,-6.0297,-6.0297,-6.0297,-6.0518,-6.1024,-6.1024,-6.1245,-6.1719,-6.1972,-6.2067,-6.2049,-6.174,-6.1582,-6.1582,-6.1052,-6.0949,-6.1206,-6.141,-6.1714,-6.2016,-6.2216,-6.2266,-6.2329,-6.2801,-6.284,-6.268,-6.3235,-6.3381,-6.3204,-6.3136,-6.3348,-6.3611,-6.3394,-6.3647,-6.4101,-6.4101,-6.4156,-6.421,-6.421,-6.4364,-6.4611,-6.4826,-6.4888,-6.4888,-6.4888,-6.4888,-6.4888,-6.4888,-6.4888,-6.4888,-6.4888,-6.4888,-6.4888,-6.4888,-6.4888,-6.4888,-6.4888,-6.4888,-6.4943,-6.5053,-6.5187,-6.5351,-6.5569,-6.5785,-6.5947,-6.5969,-6.5969,-6.5969,-6.5893,-6.5893,-6.5731,-6.546,-6.546,-6.5156,-6.4715,-6.4635,-6.4468,-6.4331,-6.4331,-6.4387,0.0,0.0,0.0,0.0,0.0,0.0,0.0,0.0,0.0,0.0,0.0,0.0,0.0,0.0,0.0,0.0,0.0,0.0,0.0,0.0,0.0,0.0,0.0,0.0,0.0,0.0,0.0,0.0,-6.0551,-6.0234,-6.0234,-6.0234,-6.0234,-6.0234,-6.0234,-6.0234,-6.0265,-6.0265,-6.0265,-6.0297,-6.1024,-6.1371,-6.1403,-6.1521,-6.1582,-6.1582,-6.1052,-6.0949,-6.1155,-6.1206,-6.1512,-6.1966,-6.2016,-6.2016,-6.2016,-6.2016,-6.1815,-6.1625,-6.2032,-6.2145,-6.2217,-6.2601,-6.2549,-6.2364,-6.2364,-6.2364,-6.2395,-6.2395,-6.261,-6.2825,-6.2825,-6.3318,-6.3964,-6.4703,-6.4857,-6.4857,-6.4888,-6.4888,-6.4888,-6.4888,-6.4888,-6.4888,-6.4888,-6.4888,-6.4888,-6.4888,-6.4888,-6.4888,-6.4888,-6.4888,-6.4998,-6.5242,-6.5297,-6.5569,-6.6139,-6.6224,-6.6299,-6.6617,-6.6617,-6.6459,-6.6192,-6.6192,-6.6085,-6.57,-6.57,-6.5592,-6.5297,-6.5053,-6.4888,-6.4888,-6.4888,-6.4888,-5.2587,0.0,0.0,0.0,0.0,0.0,0.0,0.0,0.0,0.0,0.0,0.0,0.0,0.0,0.0,0.0,0.0,0.0,0.0,0.0,0.0,0.0,0.0,0.0,0.0,0.0,0.0,0.0,-5.9122,-5.8843,-5.8843,-5.8843,-5.8843,-5.8843,-5.8843,-5.9064,-5.957,-5.957,-5.9823,-6.0297,-6.0518,-6.0866,-6.1403,-6.1051,-6.1145,-6.1582,-6.1052,-6.0845,-6.0897,-6.1103,-6.1257,-6.141,-6.1664,-6.1683,-6.1683,-6.1683,-6.1563,-6.1339,-6.1423,-6.133,-6.1154,-6.1077,-6.1317,-6.1661,-6.1446,-6.1889,-6.2395,-6.2395,-6.261,-6.2825,-6.2825,-6.2948,-6.3256,-6.3964,-6.4118,-6.4272,-6.4795,-6.4888,-6.4888,-6.4888,-6.4888,-6.4888,-6.4888,-6.4888,-6.4888,-6.4888,-6.4888,-6.4888,-6.4888,-6.5053,-6.5187,-6.5297,-6.5708,-6.6032,-6.6224,-6.6352,-6.6512,-6.6617,-6.6617,-6.6565,-6.6512,-6.6512,-6.6352,-6.6085,-6.6085,-6.5893,-6.5592,-6.5297,-6.5108,-6.4888,-6.4888,-6.4888,-5.3419,-5.3494,-5.3902,0.0,0.0,0.0,-5.6921,-5.7548,0.0,0.0,0.0,0.0,0.0,0.0,0.0,0.0,0.0,0.0,0.0,0.0,0.0,0.0,0.0,0.0,0.0,-5.9499,-5.9004,-5.9004,-5.8596,-5.8321,-5.8321,-5.8321,-5.8321,-5.8321,-5.8321,-5.8464,-5.8875,-5.8875,-5.9064,-5.9444,-5.976,-6.0234,-6.0961,-6.0707,-6.0989,-6.1582,-6.1052,-6.0794,-6.0794,-6.0949,-6.1103,-6.1237,-6.1359,-6.1461,-6.1461,-6.1461,-6.1257,-6.1,-6.1,-6.0897,-6.0742,-6.0481,-6.0599,-6.0776,-6.0479,-6.0859,-6.1409,-6.1409,-6.1676,-6.2025,-6.2333,-6.2394,-6.2579,-6.3364,-6.368,-6.3933,-6.4529,-6.4782,-6.4888,-6.4888,-6.4888,-6.4888,-6.4888,-6.4888,-6.4888,-6.4888,-6.4888,-6.4943,-6.5053,-6.5187,-6.5406,-6.5623,-6.5978,-6.6246,-6.6352,-6.6512,-6.6617,-6.6617,-6.6617,-6.6617,-6.6617,-6.6617,-6.6512,-6.6352,-6.6352,-6.6246,-6.5893,-6.5515,-6.5132,-6.4888,-6.4888,-6.4888,-5.4011,-5.4016,-5.4219,-5.5172,-5.5259,0.0,-5.6159,-5.657,-5.6808,0.0,0.0,0.0,0.0,0.0,0.0,0.0,0.0,0.0,0.0,0.0,0.0,0.0,0.0,0.0,-5.949,-5.9016,-5.8748,-5.8748,-5.8391,-5.8194,-5.8194,-5.8289,-5.8321,-5.8321,-5.8321,-5.8321,-5.8321,-5.8321,-5.8321,-5.8321,-5.8906,-5.9538,-6.0154,-6.0376,-6.0865,-6.1438,-6.1021,-6.0794,-6.0794,-6.0794,-6.0949,-6.1186,-6.1186,-6.1186,-6.1186,-6.1186,-6.1,-6.0794,-6.0794,-6.0794,-6.0742,-6.0481,-6.025,-5.9933,-5.9636,-5.9773,-6.0016,-6.0039,-6.046,-6.0948,-6.1532,-6.1686,-6.1976,-6.2867,-6.3379,-6.3788,-6.415,-6.4545,-6.4906,-6.485,-6.4857,-6.4888,-6.4888,-6.4888,-6.4888,-6.4888,-6.4943,-6.5053,-6.5242,-6.5351,-6.56,-6.6139,-6.6192,-6.6352,-6.6565,-6.6617,-6.6617,-6.6617,-6.6617,-6.6617,-6.6617,-6.6617,-6.6617,-6.6617,-6.6617,-6.6459,-6.6192,-6.5569,-6.5187,-6.4943,-6.4888,-6.4888,-5.4665,-5.4692,-5.4972,-5.5772,-5.5896,0.0,-5.6132,-5.649,-5.6808,0.0,0.0,0.0,0.0,0.0,0.0,0.0,0.0,0.0,0.0,0.0,0.0,0.0,0.0,0.0,-5.8,-5.7613,-5.7277,-5.7277,-5.7375,-5.7421,-5.7421,-5.7958,-5.8321,-5.8321,-5.8321,-5.8321,-5.8321,-5.8321,-5.8321,-5.8321,-5.8401,-5.8718,-5.9175,-5.9576,-5.9967,-6.0482,-6.0702,-6.0794,-6.0794,-6.0794,-6.0845,-6.0897,-6.0897,-6.0897,-6.0897,-6.0897,-6.0845,-6.0794,-6.0794,-6.0794,-6.0742,-6.0481,-6.025,-6.0016,-5.9933,-5.9933,-6.0122,-6.0512,-6.069,-6.0824,-6.0948,-6.1165,-6.1474,-6.2207,-6.2612,-6.3017,-6.363,-6.4262,-6.4652,-6.4437,-6.4683,-6.4888,-6.4888,-6.4888,-6.4888,-6.4888,-6.5108,-6.5242,-6.5297,-6.5708,-6.6085,-6.6224,-6.6406,-6.6565,-6.6617,-6.6617,-6.6617,-6.6617,-6.6617,-6.6617,-6.6617,-6.6617,-6.6617,-6.6617,-6.6617,-6.6459,-6.6192,-6.5569,-6.5242,-6.5187,-6.4998,-6.4888,-5.6222,-5.5946,-5.5871,-5.6311,-5.6107,0.0,0.0,-5.6027,-5.6092,0.0,0.0,0.0,0.0,0.0,0.0,0.0,0.0,0.0,0.0,0.0,0.0,0.0,0.0,0.0,-5.7621,-5.7195,-5.6805,-5.6587,-5.6639,-5.6694,-5.6694,-5.7358,-5.7737,-5.7737,-5.8085,-5.8321,-5.8321,-5.8321,-5.8321,-5.8321,-5.8321,-5.8482,-5.8939,-5.9308,-5.9781,-6.0245,-6.062,-6.0794,-6.0794,-6.0794,-6.0794,-6.0794,-6.0794,-6.0794,-6.0794,-6.0794,-6.0794,-6.0794,-6.0794,-6.0794,-6.0742,-6.0481,-6.0272,-6.0197,-6.0069,-6.0092,-6.0302,-6.069,-6.0794,-6.0794,-6.0794,-6.1,-6.1299,-6.1794,-6.2259,-6.2705,-6.3204,-6.3725,-6.4119,-6.396,-6.4079,-6.4383,-6.482,-6.4888,-6.4943,-6.5108,-6.5187,-6.5406,-6.5708,-6.6032,-6.6246,-6.6406,-6.6512,-6.6617,-6.6617,-6.6617,-6.6617,-6.6617,-6.6617,-6.6617,-6.6617,-6.6617,-6.6617,-6.6617,-6.6617,-6.6459,-6.6192,-6.5731,-6.546,-6.5297,-6.5053,-6.4888,-5.7686,-5.7158,-5.6746,-5.688,-5.6375,-5.5839,0.0,0.0,0.0,0.0,0.0,0.0,0.0,0.0,0.0,0.0,0.0,0.0,0.0,0.0,0.0,0.0,0.0,0.0,0.0,-5.6274,-5.5909,-5.5632,-5.5715,-5.5841,-5.5967,-5.6631,-5.7073,-5.7231,-5.7769,-5.8148,-5.8321,-5.8321,-5.8321,-5.8321,-5.8321,-5.8419,-5.8624,-5.9246,-5.9638,-5.9959,-6.0558,-6.0794,-6.0794,-6.0794,-6.0794,-6.0794,-6.0794,-6.0794,-6.0794,-6.0794,-6.0794,-6.0794,-6.0794,-6.0794,-6.0742,-6.0534,-6.0481,-6.0429,-6.0144,-6.025,-6.0534,-6.0742,-6.0794,-6.0794,-6.0845,-6.1052,-6.1359,-6.1582,-6.2121,-6.2629,-6.2833,-6.3213,-6.3558,-6.3506,-6.36,-6.391,-6.4576,-6.4775,-6.4892,-6.5165,-6.5313,-6.5623,-6.6139,-6.6246,-6.6352,-6.6565,-6.6617,-6.6617,-6.6617,-6.6617,-6.6617,-6.6617,-6.6617,-6.6617,-6.6617,-6.6617,-6.6617,-6.6617,-6.6617,-6.6459,-6.6192,-6.5893,-6.5538,-6.5297,-6.5053,-6.4826,-5.7935,-5.7557,-5.7492,-5.7492,-5.7427,-5.72,-5.6552,0.0,-5.6187,-5.5539,0.0,0.0,0.0,0.0,0.0,0.0,0.0,0.0,0.0,0.0,0.0,0.0,0.0,0.0,0.0,-5.3149,-5.3067,-5.3408,-5.4008,-5.4609,-5.5165,-5.5936,-5.6599,-5.72,-5.7295,-5.7642,-5.8321,-5.8321,-5.8321,-5.8321,-5.8321,-5.8074,-5.7699,-5.893,-5.929,-5.9028,-6.024,-6.0794,-6.0794,-6.0794,-6.0794,-6.0794,-6.0794,-6.0794,-6.0794,-6.0794,-6.0794,-6.0794,-6.0794,-6.0794,-6.0794,-6.0742,-6.0742,-6.069,-6.0429,-6.0534,-6.0742,-6.0794,-6.0794,-6.0845,-6.1103,-6.1359,-6.1633,-6.1916,-6.2179,-6.2441,-6.2441,-6.3009,-6.3432,-6.3096,-6.3598,-6.3964,-6.3807,-6.4315,-6.472,-6.4773,-6.5518,-6.6139,-6.6192,-6.6406,-6.6565,-6.6617,-6.6617,-6.6617,-6.6617,-6.6617,-6.6617,-6.6617,-6.6617,-6.6617,-6.6617,-6.6617,-6.6617,-6.6617,-6.6617,-6.6459,-6.6192,-6.5893,-6.5538,-6.5297,-6.5053,-6.4549,-5.9673,-5.9134,-5.8713,-5.8292,-5.7871,-5.7524,-5.7191,-5.6802,-5.6413,-5.6089,0.0,0.0,0.0,0.0,0.0,0.0,-5.3434,0.0,0.0,0.0,0.0,0.0,0.0,0.0,0.0,0.0,0.0,0.0,-5.3123,-5.366,-5.3945,-5.4988,-5.5715,-5.5955,-5.6744,-5.7358,-5.7674,-5.8053,-5.8321,-5.8321,-5.8321,-5.8011,-5.7527,-5.8899,-5.9259,-5.8854,-6.0209,-6.0794,-6.0794,-6.0794,-6.0794,-6.0794,-6.0949,-6.0949,-6.0794,-6.0794,-6.0794,-6.0794,-6.0794,-6.0794,-6.0794,-6.0794,-6.0794,-6.0794,-6.0638,-6.069,-6.0794,-6.0794,-6.0794,-6.0845,-6.1103,-6.141,-6.1633,-6.1966,-6.2216,-6.2396,-6.2396,-6.2667,-6.2807,-6.2657,-6.2877,-6.3098,-6.2915,-6.3516,-6.4162,-6.4319,-6.502,-6.5617,-6.5807,-6.6312,-6.6617,-6.6617,-6.6617,-6.6617,-6.6617,-6.6617,-6.6617,-6.6617,-6.6617,-6.6617,-6.6617,-6.6617,-6.6617,-6.6617,-6.6459,-6.6246,-6.5893,-6.5623,-6.5134,-6.4436,-6.4327,-6.4118,-6.1135,-6.0643,-6.0105,-5.9349,-5.8842,-5.8356,-5.7968,-5.745,-5.6964,-5.6575,-5.6089,0.0,0.0,0.0,-5.4034,-5.4034,0.0,-5.1682,0.0,0.0,0.0,0.0,0.0,0.0,0.0,0.0,0.0,-5.1701,-5.2207,-5.2618,-5.2807,-5.3945,-5.4628,-5.4786,-5.6031,-5.6821,-5.7231,-5.7737,-5.8085,-5.8321,-5.8228,-5.7918,-5.7527,-5.8833,-5.921,-5.8854,-6.0209,-6.0794,-6.0794,-6.0794,-6.0845,-6.0897,-6.1103,-6.1103,-6.1,-6.1,-6.1,-6.1,-6.0949,-6.0845,-6.0794,-6.0794,-6.0794,-6.0794,-6.0794,-6.0794,-6.0794,-6.0794,-6.0845,-6.0949,-6.1257,-6.1512,-6.1815,-6.2066,-6.2266,-6.2396,-6.2396,-6.2396,-6.2396,-6.2396,-6.2396,-6.2396,-6.2396,-6.304,-6.3651,-6.3909,-6.4506,-6.5114,-6.5543,-6.6017,-6.6396,-6.6586,-6.6617,-6.6617,-6.6617,-6.6617,-6.6617,-6.6617,-6.6617,-6.6617,-6.6617,-6.6617,-6.6565,-6.6512,-6.611,-6.5719,-6.5312,-6.494,-6.4329,-6.3564,-6.3749,-6.3626,-6.1681,-6.1607,-6.1562,-6.0882,-6.072,-6.0332,-5.8863,-5.854,-5.8119,-5.677,-5.6478,-5.6251,-5.5539,-5.4116,-5.3061,-5.3061,-5.1674,0.0,0.0,0.0,0.0,0.0,0.0,0.0,0.0,0.0,0.0,-5.0951,-5.1078,-5.1322,-5.2017,-5.2776,-5.3471,-5.4103,-5.483,-5.5797,-5.72,-5.7231,-5.7579,-5.8321,-5.8043,-5.7778,-5.7527,-5.8687,-5.9092,-5.8854,-6.0209,-6.0794,-6.0794,-6.0794,-6.0949,-6.1155,-6.1206,-6.1359,-6.1582,-6.1582,-6.1582,-6.1531,-6.1257,-6.1,-6.0794,-6.0794,-6.0794,-6.0794,-6.0794,-6.0794,-6.0794,-6.0794,-6.1,-6.1257,-6.1481,-6.1815,-6.2066,-6.2315,-6.2365,-6.2396,-6.2396,-6.2396,-6.2396,-6.2396,-6.2396,-6.2396,-6.2396,-6.3015,-6.352,-6.352,-6.4121,-6.4784,-6.5532,-6.5658,-6.5859,-6.6523,-6.6617,-6.6617,-6.6617,-6.6617,-6.6617,-6.6617,-6.6617,-6.6617,-6.6617,-6.6617,-6.6459,-6.6192,-6.5502,-6.4892,-6.4359,-6.3707,-6.3207,-6.2856,-6.3533,-6.3133,-6.2764,-6.2329,-6.1831,-6.1156,-6.0642,-6.016,-5.9633,-5.8811,-5.8008,-5.7527,-5.6691,-5.5953,-5.5696,-5.4113,-5.2821,-5.2821,-5.1556,-5.055,0.0,0.0,0.0,0.0,0.0,0.0,0.0,0.0,0.0,-4.9521,-5.0026,-5.0595,-5.129,-5.246,-5.3218,-5.3439,-5.4502,-5.5588,-5.6536,-5.6979,-5.7579,-5.8321,-5.8011,-5.7778,-5.7527,-5.8142,-5.8579,-5.8824,-5.9747,-6.0393,-6.0794,-6.1,-6.1103,-6.1206,-6.1613,-6.1765,-6.1866,-6.1633,-6.1582,-6.1582,-6.1512,-6.141,-6.1308,-6.1103,-6.1052,-6.1,-6.0845,-6.0897,-6.1052,-6.1052,-6.1257,-6.1563,-6.1815,-6.1966,-6.2066,-6.2315,-6.2396,-6.2396,-6.2396,-6.2396,-6.2396,-6.2396,-6.2396,-6.2396,-6.2396,-6.2635,-6.2793,-6.2793,-6.3394,-6.3931,-6.4152,-6.5006,-6.5721,-6.589,-6.6333,-6.6617,-6.6617,-6.6617,-6.6617,-6.6617,-6.6617,-6.6617,-6.6617,-6.5933,-6.5576,-6.547,-6.4412,-6.3804,-6.3676,-6.3216,-6.2686,-6.2148,-6.2394,-6.224,-6.3896,-6.3323,-6.2716,-6.2012,-6.1308,-6.0654,-6.043,-5.9471,-5.8576,-5.8364,-5.7181,-5.6125,-5.5869,-5.4218,-5.2867,-5.2612,-5.155,-5.0452,0.0,-4.8561,0.0,0.0,0.0,0.0,0.0,0.0,-4.7782,-4.8478,-4.9173,-4.9742,0.0,-5.1575,-5.246,-5.2712,-5.3733,-5.4731,-5.5721,-5.628,-5.6972,-5.7803,-5.7777,-5.7731,-5.7668,-5.8038,-5.8404,-5.8752,-5.968,-6.0361,-6.0763,-6.1164,-6.141,-6.1512,-6.1866,-6.2066,-6.2116,-6.1966,-6.1784,-6.1734,-6.1734,-6.1683,-6.1582,-6.141,-6.1359,-6.1308,-6.1155,-6.1206,-6.1359,-6.1359,-6.1563,-6.1784,-6.1966,-6.2066,-6.2166,-6.2365,-6.2396,-6.2396,-6.2396,-6.2396,-6.2396,-6.2396,-6.2396,-6.2396,-6.2396,-6.2396,-6.2396,-6.2396,-6.2825,-6.3204,-6.3457,-6.4279,-6.4911,-6.5164,-6.5827,-6.6333,-6.6586,-6.6617,-6.6491,-6.627,-6.6238,-6.6112,-6.5859,-6.5156,-6.4696,-6.4591,-6.3515,-6.291,-6.2805,-6.2316,-6.1871,-6.144,-6.144,-6.144]},{"header":{"parameterUnit":"m.s-1","parameterCategory":1,"la1":30.6,"la2":29.2853,"lo1":-89.7004,"lo2":-87.6739,"dy":0.0162,"dx":0.0183,"nx":112,"ny":82,"refTime":"2023-06-14T12:00:00:Z","depth":0,"parameterNumber":3,"parameterNumberName":"V-component_of_WINDS"},"data":[0.0,0.0,0.0,0.0,0.0,0.0,0.0,0.0,0.0,0.0,0.0,0.0,0.0,0.0,0.0,0.0,0.0,0.0,0.0,0.0,0.0,0.0,0.0,0.0,0.0,0.0,0.0,0.0,0.0,0.0,0.0,0.0,0.0,0.0,0.0,0.0,0.0,0.0,0.0,0.0,0.0,0.0,0.0,0.0,0.0,0.0,0.0,0.0,0.0,0.0,0.0,0.0,0.0,0.0,0.0,0.0,0.0,0.0,0.0,0.0,0.0,0.0,0.0,0.0,0.0,0.0,0.0,0.0,0.0,0.0,0.0,0.0,0.0,0.0,0.0,0.0,0.0,0.0,0.0,0.0,0.0,0.0,0.0,0.0,0.0,0.0,0.0,0.0,0.0,0.0,-1.671,-1.6129,-1.5612,-1.5091,-1.4684,-1.462,-1.4676,-1.4819,0.0,0.0,0.0,0.0,0.0,0.0,0.0,0.0,0.0,0.0,0.0,0.0,0.0,0.0,0.0,0.0,0.0,0.0,0.0,0.0,0.0,0.0,0.0,0.0,0.0,0.0,0.0,0.0,0.0,0.0,0.0,0.0,0.0,0.0,0.0,0.0,0.0,0.0,0.0,0.0,0.0,0.0,0.0,0.0,0.0,0.0,0.0,0.0,0.0,0.0,0.0,0.0,0.0,0.0,0.0,0.0,0.0,0.0,0.0,0.0,0.0,0.0,0.0,0.0,0.0,0.0,0.0,0.0,0.0,0.0,0.0,0.0,0.0,0.0,0.0,0.0,0.0,0.0,0.0,0.0,0.0,0.0,0.0,0.0,0.0,0.0,0.0,0.0,0.0,0.0,0.0,0.0,0.0,0.0,0.0,0.0,0.0,0.0,0.0,0.0,0.0,0.0,0.0,0.0,-1.8476,-1.7814,-1.6729,-1.6157,-1.651,-1.6052,-1.5954,-1.6331,0.0,0.0,0.0,0.0,0.0,0.0,0.0,0.0,0.0,0.0,0.0,0.0,0.0,0.0,0.0,0.0,0.0,0.0,0.0,0.0,0.0,0.0,0.0,0.0,0.0,0.0,0.0,0.0,0.0,0.0,0.0,0.0,0.0,0.0,0.0,0.0,0.0,0.0,0.0,0.0,0.0,0.0,0.0,0.0,0.0,0.0,0.0,0.0,0.0,0.0,0.0,0.0,0.0,0.0,0.0,0.0,0.0,0.0,0.0,0.0,0.0,0.0,0.0,0.0,0.0,0.0,0.0,0.0,0.0,0.0,0.0,0.0,0.0,0.0,0.0,0.0,0.0,0.0,0.0,0.0,0.0,0.0,0.0,0.0,0.0,0.0,0.0,0.0,0.0,0.0,0.0,0.0,0.0,0.0,0.0,0.0,0.0,0.0,0.0,0.0,0.0,0.0,0.0,-1.9113,-1.8947,-1.8324,-1.784,-1.749,-1.7399,-1.7348,-1.7385,-1.7558,-1.7196,0.0,0.0,0.0,0.0,0.0,0.0,0.0,0.0,0.0,0.0,0.0,0.0,0.0,0.0,0.0,0.0,0.0,0.0,0.0,0.0,0.0,0.0,0.0,0.0,0.0,0.0,0.0,0.0,0.0,0.0,0.0,0.0,0.0,0.0,0.0,0.0,0.0,0.0,0.0,0.0,0.0,0.0,0.0,0.0,0.0,0.0,0.0,0.0,0.0,0.0,0.0,0.0,0.0,0.0,0.0,0.0,0.0,0.0,0.0,0.0,0.0,0.0,0.0,0.0,0.0,0.0,0.0,0.0,0.0,0.0,0.0,0.0,0.0,0.0,0.0,0.0,0.0,0.0,0.0,0.0,0.0,0.0,0.0,0.0,0.0,0.0,0.0,0.0,0.0,0.0,0.0,0.0,0.0,0.0,0.0,0.0,0.0,0.0,0.0,0.0,0.0,0.0,-1.974,-1.9357,-1.8904,-1.8784,-1.8581,-1.8166,-1.8414,-1.8636,-1.8625,-1.8998,0.0,0.0,0.0,0.0,0.0,0.0,0.0,0.0,0.0,0.0,0.0,0.0,0.0,0.0,0.0,0.0,0.0,0.0,0.0,0.0,0.0,0.0,0.0,0.0,0.0,0.0,0.0,0.0,0.0,0.0,0.0,0.0,0.0,0.0,0.0,0.0,0.0,0.0,0.0,0.0,0.0,0.0,0.0,0.0,0.0,0.0,0.0,0.0,0.0,0.0,0.0,0.0,0.0,0.0,0.0,0.0,0.0,0.0,0.0,0.0,0.0,0.0,0.0,0.0,0.0,0.0,0.0,0.0,0.0,0.0,0.0,0.0,0.0,0.0,0.0,0.0,0.0,0.0,0.0,0.0,0.0,0.0,0.0,0.0,0.0,0.0,0.0,0.0,0.0,0.0,0.0,0.0,0.0,0.0,0.0,0.0,0.0,0.0,0.0,0.0,0.0,0.0,-2.0839,-2.0391,-2.0192,-1.9486,-1.9157,-1.9361,-1.9404,-1.9473,-1.9602,-1.9613,0.0,0.0,0.0,0.0,0.0,0.0,0.0,0.0,0.0,0.0,0.0,0.0,0.0,0.0,0.0,0.0,0.0,0.0,0.0,0.0,0.0,0.0,0.0,0.0,0.0,0.0,0.0,0.0,0.0,0.0,0.0,0.0,0.0,0.0,0.0,0.0,0.0,0.0,0.0,0.0,0.0,0.0,0.0,0.0,0.0,0.0,0.0,0.0,0.0,0.0,0.0,0.0,0.0,0.0,0.0,0.0,0.0,0.0,0.0,0.0,0.0,0.0,0.0,0.0,0.0,0.0,0.0,0.0,0.0,0.0,0.0,0.0,0.0,0.0,0.0,0.0,0.0,0.0,0.0,0.0,0.0,0.0,0.0,0.0,0.0,0.0,0.0,0.0,0.0,0.0,0.0,0.0,0.0,0.0,0.0,0.0,0.0,0.0,0.0,0.0,0.0,0.0,-2.1276,-2.0746,-2.078,-2.0175,-1.979,-1.9725,-2.0144,-2.0362,-2.0275,0.0,0.0,0.0,0.0,0.0,0.0,0.0,0.0,0.0,0.0,0.0,0.0,0.0,0.0,0.0,0.0,0.0,0.0,0.0,0.0,0.0,0.0,0.0,0.0,0.0,0.0,0.0,0.0,0.0,0.0,0.0,0.0,0.0,0.0,0.0,0.0,0.0,0.0,0.0,0.0,0.0,0.0,0.0,0.0,0.0,0.0,0.0,0.0,0.0,0.0,0.0,0.0,0.0,0.0,0.0,0.0,0.0,0.0,0.0,0.0,0.0,0.0,0.0,0.0,0.0,0.0,0.0,0.0,0.0,0.0,0.0,0.0,0.0,0.0,0.0,0.0,0.0,0.0,0.0,0.0,0.0,0.0,0.0,0.0,0.0,0.0,0.0,0.0,0.0,0.0,0.0,0.0,0.0,0.0,0.0,0.0,0.0,0.0,0.0,0.0,0.0,0.0,-2.2662,-2.1987,-2.1474,-2.1216,-2.0823,-2.0407,-2.0168,-2.0698,-2.0916,-2.0826,0.0,0.0,0.0,0.0,0.0,0.0,0.0,0.0,0.0,0.0,0.0,0.0,0.0,0.0,0.0,0.0,0.0,0.0,0.0,0.0,0.0,0.0,0.0,0.0,0.0,0.0,0.0,0.0,0.0,0.0,0.0,0.0,0.0,0.0,0.0,0.0,0.0,0.0,0.0,0.0,0.0,0.0,0.0,0.0,0.0,0.0,0.0,0.0,0.0,0.0,0.0,0.0,0.0,0.0,0.0,0.0,0.0,0.0,0.0,0.0,0.0,0.0,0.0,0.0,0.0,0.0,0.0,0.0,0.0,0.0,0.0,0.0,0.0,0.0,0.0,0.0,0.0,0.0,0.0,0.0,0.0,0.0,0.0,0.0,0.0,0.0,0.0,0.0,0.0,0.0,0.0,0.0,0.0,0.0,0.0,0.0,0.0,0.0,0.0,0.0,0.0,0.0,-2.3472,-2.3095,-2.2546,-2.1712,-2.1352,-2.1034,-2.0643,-2.0823,-2.1077,0.0,0.0,0.0,0.0,0.0,0.0,0.0,0.0,0.0,0.0,0.0,0.0,0.0,0.0,0.0,0.0,0.0,0.0,0.0,0.0,0.0,0.0,0.0,0.0,0.0,0.0,0.0,0.0,0.0,0.0,0.0,0.0,0.0,0.0,0.0,0.0,0.0,0.0,0.0,0.0,0.0,0.0,0.0,0.0,0.0,0.0,0.0,0.0,0.0,0.0,0.0,0.0,0.0,0.0,0.0,0.0,0.0,0.0,0.0,0.0,0.0,0.0,0.0,0.0,0.0,0.0,0.0,0.0,0.0,0.0,0.0,0.0,0.0,0.0,0.0,0.0,0.0,0.0,0.0,0.0,0.0,0.0,0.0,0.0,0.0,0.0,0.0,0.0,0.0,0.0,0.0,0.0,0.0,0.0,0.0,0.0,0.0,0.0,0.0,0.0,0.0,0.0,0.0,-2.4431,-2.3731,-2.298,-2.2218,-2.1715,-2.1276,-2.0881,-2.1155,-2.1408,-2.1472,0.0,0.0,0.0,0.0,0.0,0.0,0.0,0.0,0.0,0.0,0.0,0.0,0.0,0.0,0.0,0.0,0.0,0.0,0.0,0.0,0.0,0.0,0.0,0.0,0.0,0.0,0.0,0.0,0.0,0.0,0.0,0.0,0.0,0.0,0.0,0.0,0.0,0.0,0.0,0.0,0.0,0.0,0.0,0.0,0.0,0.0,0.0,0.0,0.0,0.0,0.0,0.0,0.0,0.0,0.0,0.0,0.0,0.0,0.0,0.0,0.0,0.0,0.0,0.0,0.0,0.0,0.0,0.0,0.0,0.0,0.0,0.0,0.0,0.0,0.0,0.0,0.0,0.0,0.0,0.0,0.0,0.0,0.0,0.0,0.0,0.0,0.0,0.0,0.0,0.0,0.0,0.0,0.0,0.0,0.0,0.0,0.0,0.0,0.0,0.0,0.0,0.0,-2.5702,-2.496,-2.4223,-2.3519,-2.2793,-2.2189,-2.1643,-2.1651,-2.166,-2.162,0.0,0.0,0.0,0.0,0.0,0.0,0.0,0.0,0.0,0.0,0.0,0.0,0.0,0.0,0.0,0.0,0.0,0.0,0.0,0.0,0.0,0.0,0.0,0.0,0.0,0.0,0.0,0.0,0.0,0.0,0.0,0.0,0.0,0.0,0.0,0.0,0.0,0.0,0.0,0.0,0.0,0.0,0.0,0.0,0.0,0.0,0.0,0.0,0.0,0.0,0.0,0.0,0.0,0.0,0.0,0.0,0.0,0.0,0.0,0.0,0.0,0.0,0.0,0.0,0.0,0.0,0.0,0.0,0.0,0.0,0.0,0.0,0.0,0.0,0.0,0.0,0.0,0.0,0.0,0.0,0.0,0.0,0.0,0.0,0.0,0.0,0.0,0.0,0.0,0.0,0.0,0.0,0.0,0.0,0.0,0.0,0.0,0.0,0.0,0.0,0.0,0.0,-2.7146,-2.6546,-2.5895,-2.5174,-2.4174,-2.3376,-2.2788,-2.2233,-2.1927,-2.1737,0.0,0.0,0.0,0.0,0.0,0.0,0.0,0.0,0.0,0.0,0.0,0.0,0.0,0.0,0.0,0.0,0.0,0.0,0.0,0.0,0.0,0.0,0.0,0.0,0.0,0.0,0.0,0.0,0.0,0.0,0.0,0.0,0.0,0.0,0.0,0.0,0.0,0.0,0.0,0.0,0.0,0.0,0.0,0.0,0.0,0.0,0.0,0.0,0.0,0.0,0.0,0.0,0.0,0.0,0.0,0.0,0.0,0.0,0.0,0.0,-1.9338,0.0,0.0,0.0,0.0,0.0,0.0,0.0,0.0,0.0,0.0,0.0,0.0,0.0,0.0,0.0,0.0,0.0,0.0,0.0,0.0,0.0,0.0,0.0,0.0,0.0,0.0,0.0,0.0,0.0,0.0,0.0,0.0,0.0,0.0,0.0,0.0,0.0,0.0,0.0,0.0,0.0,-2.785,-2.73,-2.6434,-2.5212,-2.4751,-2.3986,-2.2799,-2.2627,-2.2359,-2.1869,-2.1859,0.0,0.0,0.0,0.0,0.0,0.0,0.0,0.0,0.0,0.0,0.0,0.0,0.0,0.0,0.0,0.0,0.0,0.0,0.0,0.0,0.0,0.0,0.0,0.0,0.0,0.0,0.0,0.0,0.0,0.0,0.0,0.0,0.0,0.0,0.0,0.0,0.0,0.0,0.0,0.0,0.0,0.0,0.0,0.0,0.0,0.0,0.0,0.0,0.0,0.0,0.0,0.0,0.0,0.0,0.0,0.0,0.0,0.0,0.0,0.0,-1.9354,0.0,0.0,0.0,0.0,0.0,0.0,0.0,0.0,0.0,0.0,0.0,0.0,0.0,0.0,0.0,0.0,0.0,0.0,0.0,0.0,0.0,0.0,0.0,0.0,0.0,0.0,0.0,0.0,0.0,0.0,0.0,0.0,0.0,0.0,0.0,0.0,0.0,0.0,0.0,0.0,-2.9193,-2.8792,-2.8111,-2.6827,-2.5975,-2.4962,-2.3737,-2.314,-2.2527,-2.1796,-2.1814,0.0,0.0,0.0,0.0,0.0,0.0,0.0,0.0,0.0,0.0,0.0,0.0,0.0,0.0,0.0,0.0,0.0,0.0,0.0,0.0,0.0,0.0,0.0,0.0,0.0,0.0,0.0,0.0,0.0,0.0,0.0,0.0,0.0,0.0,0.0,0.0,0.0,0.0,0.0,0.0,0.0,0.0,0.0,0.0,0.0,0.0,0.0,0.0,0.0,0.0,0.0,0.0,0.0,-1.7707,-1.7957,-1.8182,-1.838,-1.8541,-1.8758,-1.8875,-1.8946,-1.899,-1.8741,0.0,0.0,0.0,0.0,0.0,0.0,0.0,0.0,0.0,0.0,0.0,0.0,0.0,0.0,0.0,0.0,0.0,0.0,0.0,0.0,0.0,0.0,0.0,0.0,-1.8827,-1.9051,-2.0267,0.0,0.0,0.0,0.0,0.0,0.0,0.0,0.0,0.0,0.0,0.0,-3.0697,-3.0432,-2.9916,-2.8882,-2.7642,-2.6339,-2.5068,-2.4086,-2.3016,-2.1937,-2.1889,-2.1896,0.0,0.0,0.0,0.0,0.0,0.0,0.0,0.0,0.0,0.0,0.0,0.0,0.0,0.0,0.0,0.0,0.0,0.0,0.0,0.0,0.0,0.0,0.0,0.0,0.0,0.0,0.0,0.0,0.0,0.0,0.0,0.0,-1.2008,-1.2499,0.0,0.0,0.0,0.0,0.0,0.0,0.0,0.0,0.0,0.0,0.0,0.0,0.0,-1.6676,-1.7085,-1.7131,-1.7444,-1.7926,-1.8178,-1.8315,-1.835,-1.8282,-1.8273,-1.8295,-1.7951,0.0,-1.8276,-1.8247,0.0,0.0,0.0,0.0,0.0,0.0,0.0,0.0,0.0,0.0,0.0,0.0,0.0,0.0,0.0,0.0,0.0,0.0,0.0,0.0,0.0,0.0,-1.8418,-1.8777,-1.8762,-1.8983,0.0,-2.0889,-2.1656,-2.249,-2.3587,0.0,0.0,0.0,0.0,0.0,0.0,0.0,-3.2208,-3.1538,-3.0816,-3.0092,-2.93,-2.8036,-2.6116,-2.5701,-2.4734,-2.2954,-2.2488,-2.214,-2.2065,-2.217,0.0,0.0,0.0,0.0,0.0,0.0,0.0,0.0,0.0,0.0,0.0,0.0,0.0,0.0,0.0,0.0,0.0,0.0,0.0,0.0,0.0,0.0,0.0,0.0,0.0,0.0,0.0,0.0,0.0,-1.2603,-1.3112,-1.3641,-1.4059,-1.4492,0.0,0.0,0.0,0.0,0.0,0.0,0.0,0.0,0.0,-1.6045,-1.6376,-1.6857,-1.729,-1.729,-1.7543,-1.8028,-1.8205,-1.8257,-1.8313,-1.8213,-1.8121,-1.8026,-1.7739,-1.7654,-1.7838,-1.7711,-1.7725,-1.7866,0.0,0.0,0.0,0.0,-1.9176,-1.9197,-1.9194,-1.9206,-1.9206,-1.9264,0.0,0.0,0.0,0.0,0.0,0.0,0.0,0.0,0.0,0.0,-1.8575,-1.897,-1.9082,-1.9332,-2.0284,-2.1319,-2.2156,0.0,-2.3744,-2.5052,-2.6863,0.0,0.0,0.0,0.0,-3.314,-3.3583,-3.3653,-3.3289,-3.2492,-3.1661,-3.0439,-2.8762,-2.7633,-2.6425,-2.4925,-2.4221,-2.3716,-2.3445,-2.3565,-2.3894,0.0,0.0,0.0,0.0,0.0,0.0,0.0,0.0,0.0,0.0,0.0,0.0,0.0,0.0,0.0,0.0,0.0,0.0,0.0,0.0,0.0,0.0,0.0,0.0,0.0,0.0,0.0,0.0,-1.3688,-1.414,-1.463,-1.5176,-1.563,0.0,0.0,0.0,0.0,0.0,0.0,-1.6342,-1.6396,-1.6523,-1.6581,-1.6807,-1.7163,-1.7647,-1.7647,-1.7895,-1.8369,-1.8369,-1.841,-1.8454,-1.831,-1.8187,-1.7892,-1.7649,-1.7496,-1.7375,-1.7217,-1.7353,-1.7664,-1.7861,-1.8219,-1.8594,-1.8792,-1.8848,-1.8888,-1.9186,-1.9225,-1.9237,-1.9374,-1.9449,-1.9448,-1.9271,0.0,0.0,0.0,0.0,-1.8979,-1.9186,-1.9048,-1.8882,-1.9244,-1.9503,-1.9983,-2.086,-2.1879,-2.2791,0.0,-2.4339,-2.5669,-2.7579,0.0,0.0,0.0,0.0,-3.5086,-3.5374,-3.5834,-3.5852,-3.4996,-3.4186,-3.3076,-3.1538,-2.9982,-2.8623,-2.7297,-2.6373,-2.5785,-2.5333,-2.5451,-2.5728,-2.6393,0.0,0.0,0.0,0.0,0.0,0.0,0.0,0.0,0.0,0.0,0.0,0.0,0.0,0.0,0.0,0.0,0.0,0.0,0.0,0.0,0.0,0.0,0.0,0.0,0.0,0.0,0.0,0.0,0.0,-1.5441,-1.6155,0.0,0.0,0.0,0.0,-1.7326,-1.7329,-1.7275,-1.7148,-1.7562,-1.7632,-1.7324,-1.755,-1.7895,-1.8379,-1.8379,-1.8627,-1.9028,-1.9028,-1.9039,-1.906,-1.8758,-1.8404,-1.7976,-1.759,-1.7223,-1.6828,-1.7095,-1.7127,-1.7003,-1.7692,-1.7884,-1.7814,-1.8552,-1.8808,-1.8808,-1.8797,-1.8852,-1.8831,-1.906,-1.9313,-1.9519,-1.945,-1.9461,0.0,0.0,-1.9386,-1.9293,-1.9304,-1.9369,-1.9435,-1.9456,-2.0188,-2.1063,-2.1849,-2.2572,-2.3285,0.0,-2.5524,-2.7142,-2.8425,0.0,-3.2526,-3.4174,-3.5424,-3.6605,-3.7773,-3.7916,-3.7677,-3.7177,-3.696,-3.5968,-3.3869,-3.282,-3.1563,-2.9873,-2.8799,-2.8085,-2.769,-2.7596,-2.7825,-2.8387,-2.9158,0.0,0.0,0.0,0.0,0.0,0.0,0.0,0.0,0.0,0.0,0.0,0.0,0.0,0.0,0.0,0.0,0.0,0.0,0.0,0.0,0.0,0.0,0.0,0.0,0.0,0.0,0.0,0.0,-1.675,-1.7179,0.0,-1.807,-1.8142,-1.8197,-1.8435,-1.8425,-1.8395,-1.8256,-1.8585,-1.8778,-1.8799,-1.9046,-1.9338,-1.9603,-1.9388,-1.942,-1.9738,-1.9444,-1.9308,-1.9159,-1.922,-1.8991,-1.8623,-1.8612,-1.8518,-1.8432,-1.8501,-1.8208,-1.7622,-1.7909,-1.8214,-1.8638,-1.8921,-1.8992,-1.9063,-1.9558,-1.9769,-1.9851,-2.045,-2.0686,-2.0698,-2.0186,-2.0146,-2.0127,-1.9631,-1.9588,-1.9807,-2.0195,-2.036,-2.0526,-2.091,-2.1463,-2.2233,-2.3411,-2.4343,-2.54,-2.7144,-2.748,-2.811,-2.9852,-3.2086,-3.4305,-3.6138,-3.7472,-3.8781,-4.0279,-4.0703,-4.0906,-4.1028,-4.0674,-3.9801,-3.8165,-3.6997,-3.5602,-3.3835,-3.2949,-3.2043,-3.1184,-3.1097,-3.1307,-3.1916,-3.2497,-3.3372,0.0,0.0,0.0,0.0,0.0,0.0,0.0,0.0,0.0,0.0,0.0,0.0,0.0,0.0,0.0,0.0,0.0,0.0,0.0,0.0,0.0,0.0,0.0,0.0,0.0,0.0,-1.751,-1.804,-1.8422,-1.8828,-1.9296,-1.9419,-1.9552,-1.9645,-1.9839,-1.9886,-1.9661,-1.9853,-1.9971,-2.0074,-2.0106,-2.018,-2.042,-2.014,-2.019,-2.0437,-2.0228,-2.0124,-1.9973,-2.021,-2.0085,-1.9709,-1.9855,-1.9839,-1.9761,-1.9761,-1.9486,-1.9009,-1.8556,-1.8696,-1.9155,-1.9387,-1.9482,-1.9713,-2.0377,-2.0603,-2.0757,-2.1358,-2.1564,-2.1488,-2.0957,-2.0923,-2.0973,-2.0458,-2.0417,-2.0659,-2.1286,-2.1533,-2.1848,-2.2557,-2.3206,-2.4068,-2.5468,-2.6427,-2.7654,-2.9764,-2.9626,-2.9864,-3.1727,-3.4067,-3.6397,-3.8436,-3.9932,-4.1364,-4.2887,-4.3644,-4.4053,-4.4161,-4.4018,-4.3382,-4.2167,-4.0944,-3.953,-3.8082,-3.7124,-3.6166,-3.5174,-3.5042,-3.5165,-3.5546,-3.6409,-3.7589,-3.9097,0.0,0.0,0.0,0.0,0.0,0.0,0.0,0.0,0.0,0.0,0.0,0.0,0.0,0.0,0.0,0.0,0.0,0.0,0.0,0.0,0.0,0.0,0.0,-1.7751,-1.8224,-1.8741,-1.9277,-1.9826,-2.0285,-2.0604,-2.0872,-2.1038,-2.1063,-2.1561,-2.166,-2.1383,-2.1469,-2.139,-2.0957,-2.0607,-2.0516,-2.0757,-2.0757,-2.0894,-2.1158,-2.141,-2.1525,-2.1536,-2.1699,-2.158,-2.119,-2.1279,-2.1045,-2.0632,-2.0711,-2.0878,-2.1146,-1.9743,-1.9287,-1.9355,-1.9951,-2.041,-2.0814,-2.1055,-2.1383,-2.1601,-2.1601,-2.1685,-2.188,-2.188,-2.188,-2.1891,-2.1891,-2.1903,-2.1992,-2.2471,-2.2993,-2.3612,-2.4492,-2.5387,-2.6436,-2.7826,-2.8815,-2.9947,-3.1631,-3.203,-3.2507,-3.4133,-3.6496,-3.8943,-4.1074,-4.281,0.0,-4.5622,-4.6514,-4.6847,-4.6474,-4.6795,-4.6706,-4.5798,-4.4563,-4.3479,-4.2544,-4.1339,-4.0349,-3.949,-3.9433,-3.9393,-3.9377,-4.1074,-4.2683,-4.4262,0.0,0.0,0.0,0.0,0.0,0.0,0.0,0.0,0.0,0.0,0.0,0.0,0.0,0.0,0.0,0.0,0.0,0.0,0.0,0.0,0.0,0.0,-1.9371,-1.8429,-1.9086,-1.9736,-1.9839,-2.0425,-2.0961,-2.1446,-2.1561,-2.1777,-2.2103,-2.2281,-2.237,-2.2228,-2.2425,-2.2554,-2.2408,-2.2521,-2.2584,-2.2658,-2.2631,-2.2615,-2.27,-2.2354,-2.2241,-2.2252,-2.2107,-2.2065,-2.1919,-2.2111,-2.2111,-2.2031,-2.235,-2.2474,-2.2266,-2.1101,-2.0814,-2.1162,-2.1613,-2.2259,-2.287,-2.2943,-2.3258,-2.355,-2.355,-2.3599,-2.3584,-2.3275,-2.3332,-2.3448,-2.3313,-2.3436,-2.3788,-2.4789,-2.5182,-2.5539,-2.6771,-2.7459,-2.8288,-2.9885,-3.092,-3.2034,-3.4065,-3.5685,-3.6832,-3.7029,-3.9138,-4.1523,-4.3685,-4.5173,0.0,-4.819,-4.8885,-4.9394,-4.9884,-5.0042,-4.9875,-4.9283,-4.8623,-4.7769,-4.6571,-4.5559,-4.4705,-4.4175,-4.3751,-4.4074,-4.5114,-4.6286,-4.7395,0.0,0.0,0.0,0.0,0.0,0.0,0.0,0.0,0.0,0.0,0.0,0.0,0.0,0.0,0.0,0.0,0.0,0.0,0.0,0.0,0.0,0.0,-2.0534,-2.0874,-2.0154,-2.0606,-2.1102,-2.1474,-2.1939,-2.2403,-2.2855,-2.3014,-2.3227,-2.3559,-2.3705,-2.3771,-2.3771,-2.3845,-2.393,-2.393,-2.4058,-2.4065,-2.3841,-2.3972,-2.3884,-2.3731,-2.3544,-2.3434,-2.3446,-2.3399,-2.344,-2.3452,-2.362,-2.3692,-2.3692,-2.3932,-2.3983,0.0,0.0,0.0,0.0,0.0,-2.3897,-2.4543,-2.4543,-2.4777,-2.5192,-2.5322,-2.5361,-2.5374,-2.5255,-2.533,-2.5404,-2.5329,-2.5575,-2.6066,-2.6875,-2.7335,-2.7921,-2.9229,-2.9981,-3.078,-3.2348,-3.3563,-3.4944,-3.6719,-3.8751,0.0,-4.096,-4.2191,-4.3888,-4.5989,-4.7397,-4.8828,-5.0551,-5.1155,-5.1705,-5.2518,-5.2617,-5.2518,-5.2418,-5.2037,0.0,0.0,0.0,-4.9087,-4.8487,-4.8013,0.0,0.0,0.0,-5.1226,-5.226,-5.3313,0.0,0.0,-5.2769,-5.344,0.0,0.0,0.0,0.0,0.0,0.0,0.0,0.0,0.0,0.0,0.0,0.0,0.0,0.0,0.0,0.0,-2.1708,-2.2474,-2.2574,-2.2616,-2.2893,-2.3448,-2.3826,-2.4148,-2.4484,-2.4764,-2.5017,-2.5045,-2.5311,-2.5538,-2.561,0.0,0.0,0.0,0.0,-2.5104,-2.474,-2.5106,-2.5021,-2.4637,-2.4829,-2.497,-2.4983,-2.5174,-2.5289,-2.5289,-2.5289,-2.5289,-2.5289,-2.5289,-2.554,-2.5845,-2.4377,-2.3959,-2.416,-2.4725,-2.5387,-2.5951,-2.5951,0.0,0.0,-2.7041,-2.7203,-2.7257,-2.7514,-2.7595,-2.7595,-2.7635,-2.7962,-2.8451,-2.89,-2.952,-3.0378,-3.1767,-3.2601,-3.3508,-3.4898,-3.6405,-3.7968,-3.9362,-4.1288,-4.332,-4.5023,-4.5271,-4.601,-4.8121,-4.9548,-5.0956,-5.2541,-5.3143,-5.3747,-5.4546,0.0,0.0,-5.5287,-5.4942,-5.4549,-5.4157,-5.3766,-5.3181,-5.2583,-5.236,-5.2515,-5.311,-5.3674,-5.458,-5.5729,-5.6959,-5.8127,-5.9101,-5.7052,-5.6982,0.0,0.0,0.0,0.0,0.0,0.0,0.0,0.0,0.0,0.0,0.0,0.0,0.0,0.0,0.0,-2.3248,-2.3639,-2.4091,-2.4825,-2.5236,-2.5078,-2.4043,-2.4134,-2.454,-2.5185,-2.5297,-2.5496,-2.604,-2.6198,-2.6372,-2.6649,-2.66,-2.6549,-2.6549,-2.6472,-2.6412,-2.6336,-2.6627,-2.6702,-2.6625,0.0,0.0,-2.6516,-2.6281,-2.6149,-2.6149,-2.6149,-2.6149,-2.6149,-2.6531,-2.7062,-2.7506,-2.6334,-2.6016,-2.6356,-2.6502,-2.7021,-2.7613,-2.7613,-2.7859,-2.8228,-2.8688,-2.8878,-2.8892,-2.9272,-2.9382,0.0,-2.9684,-3.0083,-3.0536,-3.1213,-3.1811,-3.2515,-3.3904,-3.4523,-3.5361,-3.6997,-3.8436,-3.9766,-4.1081,-4.3119,-4.5062,-4.6416,-4.6905,-4.7696,-4.9429,-5.1071,-5.2494,-5.3422,-5.4496,-5.5312,-5.5827,-5.6412,-5.6895,-5.7256,-5.7231,-5.7154,-5.7051,-5.6804,-5.6615,-5.6356,-5.7115,-5.7304,-5.6954,-5.7888,-5.8257,-5.8086,-5.8813,-5.9998,-6.1527,-6.0229,-5.9948,0.0,0.0,0.0,0.0,0.0,0.0,0.0,0.0,0.0,0.0,0.0,-2.1923,0.0,0.0,-2.3816,-2.4317,-2.4858,-2.5368,-2.5812,-2.6388,-2.6374,-2.5491,-2.578,-2.6205,-2.6528,-2.6632,-2.6865,-2.7245,-2.7422,-2.7658,-2.7804,-2.797,-2.8074,-2.8074,-2.8159,-2.8169,-2.7879,-2.8028,-2.7954,-2.7735,-2.7407,-2.7319,-2.7319,-2.7083,-2.7018,-2.7018,-2.7254,-2.7416,-2.7648,-2.8503,-2.8979,-2.9283,-2.8964,-2.8574,-2.8175,-2.8415,-2.8833,-2.9377,-2.9377,-2.9559,-2.9976,-3.0381,-3.0506,-3.0617,-3.1203,-3.133,-3.1441,-3.1838,-3.2212,-3.2667,-3.3315,-3.39,-3.4785,-3.6076,-3.6856,-3.7707,-3.9258,-4.0565,-4.1924,-4.3218,-4.4864,-4.6455,-4.7748,-4.8615,-4.9618,-5.0876,-5.2283,-5.3596,-5.457,-5.5386,-5.6267,-5.721,-5.7641,-5.8141,-5.8709,-5.8965,-5.9105,-5.9289,-5.9284,-5.9237,-5.917,-5.9737,-5.9958,-5.982,-6.0681,-6.1063,-6.0901,-6.172,-6.2586,-6.3387,-6.3174,-6.3192,0.0,0.0,0.0,0.0,0.0,0.0,0.0,0.0,-2.2247,-2.2821,-2.3239,-2.3593,-2.3905,-2.4767,-2.532,-2.5154,-2.5881,-2.6496,-2.6624,-2.7174,-2.7479,-2.7274,-2.7609,-2.7956,-2.8017,-2.8192,-2.8362,-2.8418,-2.8815,-2.909,-2.9163,-2.9387,-2.9529,-2.9529,-2.9716,-2.9579,-2.9196,-2.9142,-2.8964,-2.8666,-2.8261,-2.8104,-2.8104,-2.8104,-2.8133,-2.8204,-2.8668,-2.9,-2.9326,-3.0385,-3.0841,-3.1017,-3.1496,-3.1108,-3.027,-3.0152,-3.0474,-3.0841,-3.0841,-3.1128,-3.1557,-3.1915,-3.2088,-3.2298,-3.2987,-3.3148,-3.3312,-3.3706,-3.4197,-3.4637,-3.5175,-3.5899,-3.6809,-3.8103,-3.8996,-3.9942,-4.1309,-4.2465,-4.3773,-4.5046,-4.6378,-4.7613,-4.8806,-5.0165,-5.1254,-5.1924,-5.3068,-5.4272,-5.5337,-5.6072,-5.6946,-5.8212,-5.8594,-5.9061,-5.9857,-6.0246,-6.0591,-6.1002,-6.1213,-6.1337,-6.1403,-6.1613,-6.1819,-6.1933,-6.2566,-6.301,-6.3298,-6.4122,-6.4634,-6.4874,-6.5353,-6.5677,-2.062,-2.1081,0.0,-2.1576,-2.2138,-2.2732,0.0,0.0,-2.3855,-2.4194,-2.4557,-2.4935,-2.5314,-2.5726,-2.622,-2.6832,-2.7228,-2.7687,-2.8015,-2.8621,-2.9064,-2.8995,-2.8798,-2.883,-2.9059,-2.9122,-2.9298,-2.964,-3.005,-3.0389,-3.0752,-3.074,-3.0732,-3.0732,-3.0284,-3.0006,-3.0006,-2.9959,-2.9974,-2.9897,-2.9819,-2.9819,-2.9819,-2.9819,-2.9985,-3.0381,-3.0764,-3.0915,-3.0961,-3.1391,-3.1772,-3.2193,-3.2912,-3.3365,-3.3351,-3.1703,-3.1269,-3.1609,-3.1609,-3.2053,-3.271,-3.3167,-3.3495,-3.3919,-3.4441,-3.4539,-3.4621,-3.5109,-3.5514,-3.6085,-3.6817,-3.7654,-3.8509,-3.944,-4.0316,-4.1271,-4.2581,-4.3585,-4.4618,-4.59,-4.7149,-4.8389,-4.9258,-5.0766,-5.187,-5.2024,-5.337,-5.4496,-5.5041,-5.6365,-5.7451,-5.7927,-5.885,-5.9927,-6.1029,-6.1166,-6.1438,-6.218,-6.2498,-6.2773,-6.3103,-6.3793,-6.3865,-6.329,-6.367,-6.391,-6.397,-6.4091,-6.4751,-6.5831,-6.5892,-6.5832,-2.2264,0.0,0.0,0.0,-2.398,-2.4585,-2.4686,-2.5259,-2.5794,-2.6174,-2.6364,-2.6489,-2.6688,-2.719,-2.7577,0.0,-2.7975,-2.8426,-2.8576,-2.9429,-3.0088,-3.0293,-3.0752,-3.0755,-2.9997,-2.9942,-3.0095,-3.0507,-3.0867,-3.1236,-3.1614,-3.1792,-3.1918,-3.1918,-3.1666,-3.1517,-3.1517,-3.1071,-3.084,-3.084,-3.0361,-3.0129,-3.0144,-3.0343,-3.0932,-3.1762,-3.2347,-3.273,-3.3002,-3.3354,-3.3579,-3.3758,-3.4164,-3.4376,-3.4425,-3.3548,-3.337,-3.3498,-3.3498,-3.3692,-3.3968,-3.4213,-3.4376,-3.4621,-3.5352,-3.5531,-3.5676,-3.6402,-3.6724,-3.7133,-3.8168,-3.8924,-3.9685,-4.1091,-4.1998,-4.2944,-4.3949,-4.4885,-4.582,-4.687,-4.7933,-4.8886,-4.9752,-5.1076,-5.2077,-5.2307,-5.3747,-5.4868,-5.5337,-5.6583,-5.781,-5.8779,-5.9552,-6.0384,-6.1478,-6.1614,-6.1884,-6.2648,-6.3244,-6.361,-6.3769,-6.4418,-6.4659,-6.4399,-6.4716,-6.4886,-6.4934,-6.515,-6.5483,-6.5967,-6.5967,-6.5941,-2.3703,0.0,0.0,-2.4881,-2.5396,-2.5892,-2.6178,-2.6658,-2.7191,-2.7582,-2.7653,-2.7623,-2.7649,-2.8289,0.0,-2.8186,-2.8755,-2.9268,-2.9268,-3.0101,-3.0854,-3.1108,-3.2085,-3.2281,-3.1152,-3.101,-3.1162,-3.1443,-3.1828,-3.2124,-3.2434,-3.2633,-3.274,-3.274,-3.2664,-3.2588,-3.2588,-3.1993,-3.1763,-3.1686,-3.1055,-3.0871,-3.098,-3.1433,-3.2174,-3.3065,-3.3661,-3.4146,-3.4501,-3.4684,-3.4865,-3.4946,-3.4946,-3.5109,-3.5352,-3.5352,-3.5109,-3.4783,-3.4783,-3.4865,-3.4946,-3.5109,-3.519,-3.5433,-3.6241,-3.6483,-3.6644,-3.7365,-3.7685,-3.8032,-3.9281,-4.0036,-4.0796,-4.2471,-4.3414,-4.4123,-4.4964,-4.5759,-4.6548,-4.7432,-4.841,-4.928,-5.0087,-5.1308,-5.223,-5.2535,-5.3972,-5.5115,-5.5411,-5.6656,-5.8025,-5.9298,-5.99,-6.0522,-6.1383,-6.1654,-6.2086,-6.2715,-6.3442,-6.39,-6.403,-6.4547,-6.4932,-6.4996,-6.5222,-6.5412,-6.5475,-6.5756,-6.5882,-6.6007,-6.6007,-6.6007,0.0,0.0,-2.5182,-2.5555,-2.6,-2.6498,-2.7262,-2.7458,-2.7582,-2.7913,-2.8002,-2.8002,-2.796,-2.8658,-2.919,-2.9128,-2.9864,-3.0378,-3.0378,-3.0986,-3.1463,-3.1463,-3.2223,-3.2701,0.0,-3.2631,-3.265,-3.268,-3.3009,-3.3245,-3.3254,-3.3238,-3.3196,-3.3196,-3.2816,-3.2588,-3.2588,-3.2588,-3.2604,-3.2604,-3.2528,-3.2709,-3.3088,-3.3875,-3.4206,-3.4239,-3.4618,-3.4767,-3.4783,-3.4783,-3.5027,-3.5352,-3.5352,-3.5918,-3.6661,-3.6661,-3.5838,-3.4783,-3.4783,-3.5027,-3.5433,-3.5935,-3.6339,-3.6742,-3.7205,-3.7365,-3.7445,-3.7845,-3.8243,-3.8823,-4.0117,-4.1071,-4.2091,-4.3332,-4.4021,-4.4616,-4.5454,-4.6003,-4.6548,-4.7432,-4.8626,-4.9651,-5.0143,-5.1539,-5.2588,-5.2588,-5.3972,-5.4967,-5.5041,-5.6703,-5.8212,-5.9017,-5.9787,-6.0315,-6.0728,-6.1383,-6.1951,-6.2381,-6.3046,-6.361,-6.3965,-6.4354,-6.4676,-6.4996,-6.4996,-6.5187,-6.5475,-6.5538,-6.5664,-6.6007,-6.6007,-6.6007,0.0,0.0,-2.6518,-2.6663,-2.7189,-2.7752,-2.8024,-2.8296,-2.8514,-2.8659,-2.8677,-2.8618,-2.8397,-2.8767,-2.9136,-2.9217,-2.9633,-3.0123,-3.0325,-3.1019,-3.1581,-3.1832,-3.2539,0.0,0.0,0.0,0.0,-3.3497,-3.3584,-3.3936,-3.4404,-3.4411,-3.4406,-3.4406,-3.3971,-3.382,-3.382,-3.3289,-3.3102,-3.3429,-3.3354,-3.3512,-3.3971,-3.4442,-3.4852,-3.5087,-3.5463,-3.5676,-3.5676,-3.5935,-3.6161,-3.6322,-3.6644,-3.6885,-3.7125,-3.7125,-3.6885,-3.6563,-3.6563,-3.6626,-3.6724,-3.6885,-3.7045,-3.7205,-3.7685,-3.7765,-3.7924,-3.864,-3.8956,-3.9379,-4.0944,-4.1798,-4.2576,-4.3844,-4.4698,-4.5454,-4.6003,-4.6629,-4.7432,-4.8331,-4.928,-5.0065,-5.0555,-5.1693,-5.2892,-5.3648,-5.4496,-5.5263,-5.6072,-5.7019,-5.7882,-5.8594,-5.9368,-6.0039,-6.066,-6.1138,-6.1709,-6.2381,-6.282,-6.3216,-6.361,-6.3965,-6.4354,-6.4676,-6.4676,-6.4804,-6.5187,-6.5187,-6.5251,-6.5314,-6.5314,-6.5314,0.0,-2.6555,-2.7215,-2.7361,-2.7893,-2.8425,-2.8572,-2.8792,-2.8993,-2.8874,-2.8815,-2.8755,-2.8397,-2.8642,-2.8982,-2.9128,-2.9609,-3.0119,-3.0516,-3.1215,-3.1836,-3.2217,-3.2838,0.0,0.0,0.0,0.0,-3.4036,-3.4089,-3.4355,-3.4971,-3.5007,-3.5007,-3.5007,-3.4724,-3.4574,-3.4574,-3.4243,-3.4213,-3.4435,-3.4402,-3.4484,-3.4718,-3.5173,-3.5456,-3.5676,-3.5935,-3.6178,-3.6339,-3.6581,-3.6804,-3.6965,-3.7285,-3.7525,-3.7605,-3.7605,-3.7685,-3.7765,-3.7525,-3.7445,-3.7445,-3.7605,-3.7605,-3.7685,-3.8084,-3.8322,-3.856,-3.9096,-3.9509,-4.0091,-4.1426,-4.2281,-4.3058,-4.4335,-4.527,-4.6003,-4.6488,-4.7213,-4.8092,-4.8749,-4.9595,-5.0322,-5.0711,-5.177,-5.2968,-5.4248,-5.4719,-5.5411,-5.6438,-5.7091,-5.7595,-5.8212,-5.8947,-5.9648,-6.0246,-6.0797,-6.137,-6.1979,-6.2448,-6.2886,-6.3216,-6.3545,-6.3965,-6.4289,-6.4289,-6.4418,-6.4676,-6.4676,-6.474,-6.4804,-6.4804,-6.4868,-2.6481,-2.6829,-2.7306,-2.7673,-2.8095,-2.8458,-2.8842,-2.8957,-2.8838,-2.848,-2.8421,-2.8343,0.0,0.0,-2.8674,-2.9033,-2.9743,-3.0375,-3.0727,-3.1451,-3.2111,0.0,0.0,0.0,0.0,0.0,0.0,-3.4469,0.0,-3.4648,-3.5046,-3.5082,-3.5082,-3.5082,-3.5007,-3.5007,-3.5042,-3.545,-3.5704,-3.5669,-3.5581,-3.5611,-3.5549,-3.5926,-3.6097,-3.6097,-3.6097,-3.6339,-3.6742,-3.6742,-3.7045,-3.7445,-3.7445,-3.7685,-3.8004,-3.8004,-3.8243,-3.8481,-3.7765,-3.7525,-3.7525,-3.7924,-3.8084,-3.8163,-3.8481,-3.8956,-3.9351,-3.9351,-3.9883,-4.0702,-4.1628,-4.2502,-4.344,-4.4723,-4.5657,-4.6467,-4.6912,-4.7715,-4.8432,-4.8907,-4.9695,-5.04,-5.0789,-5.1847,-5.3044,-5.4173,-5.4719,-5.5263,-5.6072,-5.6874,-5.7523,-5.7856,-5.8594,-5.9228,-5.9578,-6.0246,-6.0865,-6.1234,-6.1979,-6.2515,-6.2886,-6.3216,-6.3545,-6.3965,-6.3965,-6.3965,-6.403,-6.403,-6.416,-6.4483,-6.4483,-6.4612,-2.5864,-2.6417,-2.7029,-2.7118,-2.7598,-2.8134,-2.8241,-2.8027,-2.7871,-2.7753,-2.7539,-2.7356,0.0,0.0,0.0,-2.862,-2.909,0.0,-3.0339,-3.0847,0.0,0.0,0.0,-3.352,-3.4314,-3.4928,0.0,0.0,-3.5457,-3.5448,-3.5867,-3.5903,-3.5903,-3.5903,-3.5605,-3.5599,-3.5905,-3.6296,-3.6454,-3.6481,-3.679,-3.6727,-3.6424,-3.6529,-3.6581,-3.6581,-3.6581,-3.6804,-3.7205,-3.7525,-3.7765,-3.7845,-3.8163,-3.8322,-3.8481,-3.8481,-3.8481,-3.864,-3.8798,-3.856,-3.8322,-3.8402,-3.8719,-3.8956,-3.9114,-3.943,-3.9823,-4.0118,-4.0353,-4.0781,-4.1955,-4.2903,-4.3759,-4.4744,-4.5938,-4.6912,-4.7373,-4.8092,-4.8986,-4.9695,-5.0766,-5.1693,-5.2077,-5.2612,-5.3219,-5.3897,-5.457,-5.5189,-5.5705,-5.6438,-5.7091,-5.7523,-5.8239,-5.8947,-5.9578,-6.0039,-6.0591,-6.1234,-6.1681,-6.2153,-6.2515,-6.2848,-6.3178,-6.3545,-6.3545,-6.3675,-6.403,-6.403,-6.403,-6.416,-6.416,-6.416,-2.568,-2.6178,-2.6658,-2.6658,-2.7062,-2.7505,-2.7505,-2.7404,-2.7168,-2.7052,-2.6835,0.0,0.0,0.0,0.0,0.0,0.0,0.0,-2.9941,-3.0365,-3.1057,0.0,-3.294,0.0,-3.4502,-3.537,-3.5998,0.0,-3.6251,-3.6286,-3.6701,-3.659,-3.6442,-3.6442,-3.6235,-3.6373,-3.6954,-3.7036,-3.7106,-3.7363,-3.7419,-3.7285,-3.7045,-3.7045,-3.7045,-3.7045,0.0,-3.7285,-3.7685,-3.7924,-3.8084,-3.8322,-3.8481,-3.8719,-3.8877,-3.8877,-3.9035,-3.9193,-3.9509,-3.9351,-3.9193,-3.9193,-3.9351,-3.9588,-3.9588,-3.9823,-4.0197,-4.0431,-4.0744,-4.1308,-4.2131,-4.3218,-4.4215,-4.5082,-4.6257,-4.7394,-4.7773,-4.8569,-4.946,-5.0322,-5.1331,-5.2154,-5.2535,-5.2916,-5.3318,-5.3747,-5.4496,-5.5115,-5.5337,-5.6219,-5.6946,-5.7379,-5.7882,-5.8594,-5.9298,-5.9718,-6.0204,-6.0824,-6.1275,-6.1749,-6.2086,-6.2515,-6.2848,-6.3178,-6.3178,-6.331,-6.3507,-6.3507,-6.3573,-6.3769,-6.3769,-6.3834,-2.5569,-2.5851,-2.6208,-2.6208,-2.6509,-2.6752,-2.6752,-2.6699,-2.6549,-2.6244,0.0,0.0,-2.5724,0.0,-2.643,-2.6845,0.0,-2.8377,-2.9493,-2.9996,-3.0791,-3.2301,-3.297,-3.3707,-3.4683,-3.5666,-3.6405,-3.6752,-3.6947,-3.715,-3.7383,-3.7034,-3.6905,-3.6961,-3.7052,-3.7396,-3.8094,-3.7777,-3.774,-3.8084,-3.7765,-3.7525,-3.7525,-3.7525,-3.7525,-3.7525,-3.7525,-3.7685,-3.8084,-3.8084,-3.8322,-3.8719,-3.8719,-3.8956,-3.9351,-3.9351,-3.9588,-3.9902,-3.9981,-3.9981,-3.9981,-3.9902,-3.9902,-3.9981,-3.9981,-4.0294,-4.0588,-4.0666,-4.121,-4.1929,-4.2385,-4.3452,-4.4629,-4.5378,-4.6632,-4.7688,-4.8172,-4.8986,-4.9852,-5.0711,-5.1562,-5.2154,-5.2535,-5.2992,-5.337,-5.3747,-5.4421,-5.4967,-5.4967,-5.5999,-5.6874,-5.7307,-5.7667,-5.8141,-5.8947,-5.9368,-5.9787,-6.0177,-6.0892,-6.1438,-6.1749,-6.218,-6.2515,-6.2848,-6.2876,-6.2942,-6.2942,-6.2942,-6.3046,-6.3348,-6.3348,-6.3479,-2.4948,-2.5255,-2.553,-2.553,-2.5823,-2.6059,-2.6059,-2.5628,0.0,0.0,0.0,-2.4411,-2.4711,-2.5,0.0,-2.6152,0.0,0.0,0.0,0.0,-3.0357,0.0,0.0,0.0,0.0,0.0,0.0,0.0,0.0,-3.8059,-3.7402,-3.7329,-3.7425,-3.7745,-3.8137,-3.8449,-3.858,-3.8443,-3.8426,-3.8481,-3.8402,-3.8243,-3.7924,-3.7924,-3.7924,-3.7924,-3.7924,0.0,-3.8481,-3.8481,-3.8798,-3.9193,-3.9193,-3.943,-3.9823,-3.9823,-3.9823,-3.9981,-4.0275,-4.0431,-4.0353,-3.9981,-4.0137,-4.0431,-4.0431,-4.0685,-4.1172,-4.1463,-4.1695,-4.1947,-4.2722,-4.3608,-4.4546,-4.5394,-4.6541,-4.7619,-4.8187,-4.9223,-5.0322,-5.1122,-5.1947,-5.2535,-5.2588,-5.3219,-5.3747,-5.3822,-5.4197,-5.4645,-5.4967,-5.5779,-5.6438,-5.6874,-5.7235,-5.781,-5.8523,-5.9228,-5.9787,-6.0177,-6.0892,-6.1302,-6.137,-6.2046,-6.2448,-6.2448,-6.2715,-6.2942,-6.2942,-6.2942,-6.2914,-6.298,-6.298,-6.298,-2.447,-2.4795,-2.503,-2.4918,-2.4998,-2.5076,-2.4906,0.0,0.0,0.0,0.0,-2.3904,-2.3944,0.0,0.0,0.0,0.0,0.0,0.0,0.0,0.0,0.0,0.0,0.0,0.0,0.0,0.0,0.0,0.0,-3.8428,-3.8063,-3.798,-3.8156,-3.833,-3.8802,-3.9139,-3.9287,-3.91,-3.8956,-3.8956,-3.8719,-3.8481,-3.8322,-3.8322,-3.8322,-3.8322,-3.8322,-3.8402,-3.864,-3.8877,-3.9114,-3.9351,-3.9509,-3.9902,-4.0197,-4.0197,-4.0372,-4.0626,-4.1074,-4.1152,-4.121,-4.121,-4.1074,-4.0919,-4.1152,-4.1308,-4.1618,-4.2005,-4.2236,-4.2544,-4.2927,-4.3792,-4.4746,-4.542,-4.6867,-4.8396,-4.9113,-4.9931,-5.0711,-5.1277,-5.2077,-5.2588,-5.2588,-5.3295,-5.3822,-5.3822,-5.4098,-5.457,-5.4967,-5.5558,-5.6146,-5.6729,-5.7163,-5.7595,-5.8141,-5.8876,-5.9508,-5.9857,-6.0411,-6.0892,-6.1302,-6.1641,-6.1912,-6.2086,-6.2448,-6.2648,-6.2648,-6.2781,-6.2942,-6.2942,-6.2942,-6.2942,-2.3979,-2.4234,-2.4488,-2.4351,-2.4261,-2.4139,-2.3861,-2.3684,0.0,0.0,0.0,-2.3458,-2.3245,0.0,0.0,0.0,0.0,0.0,0.0,0.0,0.0,0.0,0.0,0.0,0.0,0.0,0.0,0.0,0.0,0.0,-3.8574,-3.8786,-3.8932,-3.8956,-3.9356,-3.9717,-4.0059,-3.9666,-3.943,-3.9272,-3.8956,-3.8719,-3.856,-3.856,-3.856,-3.856,-3.856,-3.864,-3.8798,-3.9114,-3.943,-3.9569,-3.9902,-4.0372,-4.0744,-4.0744,-4.1074,-4.1483,-4.185,-4.1927,-4.2005,-4.2293,-4.2005,-4.156,-4.185,-4.1927,-4.2005,-4.2467,-4.2774,-4.3004,-4.3233,-4.4037,-4.5019,-4.5638,-4.7247,-4.8941,-4.9819,-5.032,-5.0753,-5.1331,-5.2077,-5.2588,-5.2588,-5.3295,-5.3822,-5.3822,-5.4047,-5.4421,-5.4967,-5.5263,-5.5779,-5.6583,-5.7019,-5.7379,-5.7784,-5.8523,-5.9088,-5.9438,-5.99,-6.0453,-6.1029,-6.1234,-6.1438,-6.1681,-6.2113,-6.2248,-6.2248,-6.2582,-6.2781,-6.2781,-6.2876,-6.2942,-2.3357,-2.3502,-2.3618,-2.3894,-2.3729,-2.348,-2.348,0.0,0.0,0.0,-2.2306,-2.2257,-2.2544,-2.3096,0.0,0.0,0.0,0.0,0.0,0.0,0.0,0.0,0.0,0.0,0.0,0.0,0.0,0.0,0.0,0.0,-3.8647,-3.9375,-3.9768,-3.9807,-4.0202,-4.0393,-4.0431,-4.0059,-3.9666,-3.9272,-3.9272,-3.9035,-3.856,-3.856,-3.856,-3.856,-3.856,-3.8877,0.0,-3.9272,-3.9726,-4.0431,-4.0431,-4.0977,-4.1695,-4.1695,-4.1927,-4.2293,-4.2293,-4.237,-4.237,-4.237,-4.237,-4.2293,-4.2293,-4.237,-4.2447,-4.2851,-4.2927,-4.3157,-4.3919,-4.447,-4.5126,-4.6334,-4.7389,-4.8376,-4.9304,-4.9801,-5.0321,-5.1262,-5.2077,-5.2588,-5.2588,-5.3295,-5.3822,-5.3822,-5.3822,-5.4122,-5.4892,-5.5041,-5.5337,-5.6146,-5.6656,-5.7019,-5.7379,-5.8167,-5.8735,-5.9114,-5.9787,-6.0246,-6.0315,-6.0961,-6.1302,-6.137,-6.1681,-6.1884,-6.1884,-6.2248,-6.2448,-6.2448,-6.2715,-6.2942,-2.2636,-2.2934,-2.3062,-2.2994,-2.2928,-2.276,-2.2597,0.0,0.0,-2.1847,-2.1921,-2.2049,-2.2146,-2.2809,-2.3568,0.0,0.0,0.0,0.0,0.0,0.0,0.0,0.0,0.0,0.0,0.0,0.0,0.0,0.0,0.0,-3.9281,-3.984,-4.0164,-4.0164,-4.0703,-4.0919,-4.0919,-4.0451,-4.0197,-4.004,-3.9823,-3.9588,-3.9351,-3.9351,-3.9351,-3.9351,-3.9351,-3.9509,0.0,-3.9883,-4.0353,-4.0899,-4.1133,-4.1598,-4.2139,-4.2139,-4.2293,-4.2447,-4.2697,-4.2774,-4.2774,-4.306,-4.3136,-4.3081,-4.2851,-4.2774,-4.2851,-4.3233,-4.3539,-4.3843,-4.4146,-4.4654,-4.546,-4.6463,-4.7352,-4.8244,-4.8866,-4.9511,-5.0033,-5.0391,-5.117,-5.1789,-5.2094,-5.2842,-5.3461,-5.3774,-5.3822,-5.3972,-5.457,-5.4892,-5.5189,-5.5779,-5.6438,-5.6946,-5.7379,-5.7882,-5.8426,-5.9017,-5.9368,-5.9718,-6.0177,-6.0453,-6.0755,-6.0961,-6.1302,-6.1506,-6.1506,-6.1884,-6.2018,-6.2018,-6.2448,-6.2582,-2.1816,-2.2176,-2.2417,-2.2301,-2.2199,-2.2065,0.0,0.0,0.0,-2.1285,-2.1533,-2.1819,-2.1901,-2.2692,-2.3515,0.0,0.0,0.0,0.0,0.0,0.0,0.0,0.0,0.0,0.0,0.0,0.0,0.0,0.0,0.0,-4.0277,-4.0566,-4.0669,-4.0594,-4.1087,-4.1405,-4.1405,-4.0919,-4.0666,-4.0509,-4.0197,-4.0059,-3.9902,-3.9902,-3.9902,-3.9902,-3.9902,-3.9981,0.0,-4.0509,-4.0899,-4.1385,-4.1773,-4.2236,-4.26,-4.26,-4.2754,-4.2984,-4.3233,-4.3462,-4.3615,-4.3822,-4.3974,-4.3919,-4.3615,-4.3386,-4.3233,-4.3539,-4.3995,-4.4428,-4.4504,-4.5031,-4.5716,-4.6364,-4.7127,-4.788,-4.8373,-4.914,-4.9709,-4.987,-5.0565,-5.1201,-5.1577,-5.2437,-5.3197,-5.3534,-5.3726,-5.3972,-5.4322,-5.4719,-5.5189,-5.5558,-5.6219,-5.6801,-5.7163,-5.7595,-5.7999,-5.8735,-5.8947,-5.9298,-5.9857,-6.0039,-6.0315,-6.0618,-6.0961,-6.1166,-6.1166,-6.1478,-6.1681,-6.1681,-6.2018,-6.2315,-2.088,-2.1143,-2.1528,-2.1932,-2.1703,-2.1396,0.0,0.0,0.0,-2.0925,-2.113,-2.1447,-2.1804,-2.2689,-2.3482,-2.4108,0.0,0.0,0.0,0.0,0.0,0.0,0.0,0.0,0.0,0.0,0.0,0.0,0.0,0.0,-4.1524,-4.1559,-4.1434,-4.1137,-4.1546,-4.1773,-4.1773,-4.1405,-4.0919,-4.0509,-4.0509,-4.0275,-3.9902,-3.9902,-3.9902,-3.9902,0.0,-4.0137,0.0,-4.0919,-4.1385,-4.185,-4.2216,-4.2621,-4.3004,-4.3004,-4.3462,-4.4201,-4.4201,-4.4428,-4.4805,-4.4805,-4.4805,-4.4805,-4.4805,-4.4201,-4.3615,-4.3615,-4.4222,-4.488,-4.5256,-4.5704,-4.6002,-4.6002,-4.6596,-4.7342,-4.788,-4.8617,-4.9273,-4.9801,-5.0565,-5.1084,-5.1107,-5.2199,-5.3077,-5.3077,-5.351,-5.3972,-5.4322,-5.4719,-5.5189,-5.5558,-5.5999,-5.6365,-5.6801,-5.7163,-5.7523,-5.7856,-5.8664,-5.9114,-5.9114,-5.9787,-6.0177,-6.0177,-6.0618,-6.0851,-6.0851,-6.1098,-6.1302,-6.1302,-6.1681,-6.2018,-2.0148,-2.0289,-2.0448,-2.0798,-2.0813,-2.0798,-2.1036,0.0,-2.0976,-2.113,-2.1216,-2.1534,-2.2324,-2.3058,-2.3785,-2.4449,-2.6142,0.0,0.0,0.0,0.0,0.0,0.0,0.0,0.0,0.0,0.0,0.0,0.0,0.0,-4.1545,-4.1927,-4.2023,-4.1956,-4.2068,-4.2216,-4.2216,-4.2062,-4.1927,-4.183,-4.1521,-4.1308,-4.123,-4.123,-4.123,0.0,0.0,-4.1676,-4.183,-4.1907,-4.2236,-4.2621,-4.2774,-4.3233,-4.3843,-4.3843,-4.4125,-4.4579,-4.4579,-4.4654,-4.4805,-4.4805,-4.4805,-4.4805,-4.4805,-4.4654,-4.4504,-4.473,-4.5031,-4.533,-4.5704,-4.5928,-4.6002,-4.6002,-4.6596,-4.723,-4.741,-4.8095,-4.8676,-4.8837,-4.9517,-5.012,-5.0472,-5.1342,-5.2235,-5.2956,-5.3197,-5.3512,-5.3924,-5.457,-5.5041,-5.5189,-5.5779,-5.6365,-5.6801,-5.7163,-5.7523,-5.7856,-5.8381,-5.8806,-5.9114,-5.9298,-5.9718,-6.0177,-6.0342,-6.0549,-6.0782,-6.0892,-6.1098,-6.1302,-6.1438,-6.1614,0.0,-1.9813,-1.9972,-2.013,-2.0388,0.0,0.0,0.0,-2.1283,-2.142,-2.1623,-2.1994,-2.2739,-2.3461,-2.4315,-2.5235,0.0,0.0,0.0,0.0,0.0,0.0,0.0,0.0,0.0,0.0,0.0,0.0,0.0,0.0,-4.1866,-4.2177,-4.2464,-4.2803,-4.2688,-4.2621,-4.2621,-4.2447,-4.237,-4.237,-4.2159,-4.2005,-4.2005,-4.2005,-4.2005,0.0,0.0,-4.237,0.0,-4.2754,-4.3004,-4.3233,-4.3539,-4.3995,-4.4428,-4.4428,-4.4654,-4.5031,-4.5031,-4.5106,-4.5256,-4.5256,-4.5256,-4.5256,-4.5256,-4.5031,-4.488,-4.5256,-4.5405,-4.548,-4.5928,-4.6002,-4.6002,-4.6002,-4.6596,-4.7186,-4.7186,-4.7794,-4.84,-4.84,-4.9029,-4.9603,-4.9932,-5.0818,-5.1706,-5.2379,-5.2812,-5.3173,-5.3485,-5.4398,-5.4967,-5.4967,-5.5705,-5.6292,-5.6583,-5.6946,-5.7307,-5.7713,-5.807,-5.8452,-5.8876,-5.9017,-5.9298,-5.9787,-5.99,-6.0204,-6.0549,-6.0687,-6.0892,-6.1098,-6.1098,-6.1302,0.0,0.0,0.0,0.0,0.0,0.0,0.0,0.0,0.0,-2.1725,-2.2198,-2.2689,-2.3135,-2.3983,-2.5075,-2.6408,0.0,0.0,0.0,0.0,0.0,0.0,0.0,0.0,0.0,0.0,0.0,0.0,0.0,0.0,-4.2281,-4.2322,-4.2683,-4.3573,-4.3233,-4.3081,-4.3004,-4.2697,-4.2524,-4.2524,-4.2447,-4.2447,-4.2447,-4.2447,-4.2447,0.0,-4.2524,-4.2524,-4.26,-4.3365,-4.3691,-4.3767,-4.4504,-4.4805,-4.4805,-4.4805,-4.5106,-4.548,-4.548,-4.5704,-4.6002,-4.6002,-4.6002,-4.6002,-4.6002,-4.548,-4.4955,-4.533,-4.548,-4.5555,-4.5928,-4.6002,-4.6002,-4.6002,-4.6596,-4.7186,-4.7186,-4.7794,-4.84,-4.84,-4.9029,-4.9509,-4.9509,-5.058,-5.1441,-5.1489,-5.2331,-5.2956,-5.3004,-5.4131,-5.4967,-5.4967,-5.5681,-5.6219,-5.6219,-5.6583,-5.6946,-5.7307,-5.7713,-5.807,-5.8452,-5.8806,-5.9088,-5.9114,-5.9438,-5.9787,-6.0177,-6.0549,-6.0755,-6.0782,-6.0782,-6.0961,-1.8607,0.0,-1.941,-1.9684,-2.0215,0.0,0.0,0.0,0.0,0.0,0.0,0.0,0.0,0.0,0.0,0.0,0.0,0.0,0.0,0.0,0.0,0.0,0.0,0.0,0.0,0.0,0.0,0.0,0.0,-4.1276,-4.2281,-4.2322,-4.2683,-4.3573,-4.3843,-4.3767,-4.3462,-4.3386,-4.331,-4.331,-4.3004,-4.2851,-4.2851,-4.2851,-4.3004,-4.3386,-4.367,-4.3974,-4.4277,-4.4428,-4.4504,-4.4504,-4.473,-4.4955,-4.5256,-4.5256,-4.548,-4.5853,-4.5853,-4.5928,-4.6002,-4.6002,-4.6002,-4.6002,-4.6002,-4.5853,-4.5779,-4.5853,-4.5853,-4.5853,-4.6002,-4.6002,-4.6002,-4.6002,-4.6596,-4.7186,-4.7186,-4.7794,-4.84,-4.84,-4.9029,-4.9509,-4.9509,-5.027,-5.1032,-5.1441,-5.1706,-5.2018,-5.2427,-5.3644,-5.4377,-5.4377,-5.5505,-5.6219,-5.6219,-5.6583,-5.6874,-5.6946,-5.7498,-5.7927,-5.7999,-5.8452,-5.8806,-5.9114,-5.9438,-5.9787,-6.0177,-6.0315,-6.048,-6.0782,-6.0782,-6.0851,-1.8289,-1.8738,-1.9096,-1.9546,-2.0272,-2.096,0.0,0.0,0.0,0.0,0.0,0.0,0.0,0.0,0.0,0.0,0.0,0.0,0.0,0.0,0.0,0.0,0.0,0.0,0.0,0.0,0.0,0.0,0.0,-4.1793,-4.2522,-4.2952,-4.3467,-4.4105,-4.4352,-4.4277,-4.3919,-4.405,-4.4125,-4.4125,-4.3919,-4.3843,-4.3843,-4.3843,-4.3898,-4.4125,-4.4352,-4.4579,-4.4805,-4.5031,-4.5106,-4.5106,-4.5256,-4.563,-4.5928,-4.5928,-4.6225,-4.6522,-4.6522,-4.6448,-4.6225,-4.6077,-4.6002,-4.6002,-4.6002,-4.6002,-4.6002,-4.6002,-4.6002,-4.6002,-4.6002,-4.6002,-4.6002,-4.6002,-4.6448,-4.6965,-4.7134,-4.7721,-4.8159,-4.8377,-4.8884,-4.9317,-4.9437,-5.0033,-5.0579,-5.1081,-5.1345,-5.1586,-5.1874,-5.2938,-5.3691,-5.3836,-5.4615,-5.5349,-5.5817,-5.606,-5.6305,-5.6776,-5.7138,-5.7569,-5.7856,-5.807,-5.8426,-5.8806,-5.9158,-5.9508,-5.9718,-6.0039,-6.0315,-6.0549,-6.0687,-6.0782,-1.8175,-1.8534,-1.897,-1.9654,-2.0486,-2.1295,0.0,0.0,0.0,0.0,0.0,0.0,0.0,0.0,0.0,0.0,0.0,0.0,0.0,0.0,0.0,0.0,0.0,0.0,0.0,0.0,0.0,0.0,0.0,-4.252,-4.3047,-4.3743,-4.4316,-4.4784,-4.488,-4.473,-4.4352,-4.4654,-4.4805,-4.4805,-4.4805,-4.4805,-4.4805,-4.4805,-4.4805,-4.488,0.0,0.0,-4.5106,-4.548,-4.563,-4.5704,-4.6077,-4.6374,-4.667,-4.667,-4.6891,-4.7186,-4.7186,-4.6965,-4.6596,-4.6225,-4.6077,-4.6077,-4.6002,-4.6002,-4.6002,-4.6002,-4.6002,-4.6002,-4.6002,-4.6002,-4.6002,-4.6002,-4.6299,-4.667,-4.7112,-4.7502,-4.7941,-4.8305,-4.8691,-4.9124,-4.9437,-4.9795,-5.0246,-5.0625,-5.1081,-5.1369,-5.1369,-5.2187,-5.2936,-5.3224,-5.3728,-5.4334,-5.5214,-5.5265,-5.5609,-5.645,-5.67,-5.7163,-5.7856,-5.7927,-5.807,-5.8523,-5.8806,-5.9017,-5.9114,-5.9718,-6.0108,-6.0177,-6.0549,-6.0755,-1.8519,-1.9016,-1.9541,-2.0445,-2.1174,-2.1826,0.0,0.0,0.0,0.0,0.0,0.0,0.0,0.0,0.0,0.0,0.0,0.0,0.0,0.0,0.0,0.0,0.0,0.0,0.0,0.0,0.0,0.0,0.0,-4.3031,-4.388,-4.406,-4.4316,-4.4784,-4.5106,-4.5256,-4.5256,-4.4955,-4.4805,-4.4805,-4.4805,-4.4805,-4.4805,-4.4805,-4.4955,-4.533,0.0,-4.5704,-4.6299,-4.6374,-4.6596,-4.6891,-4.6965,-4.7038,-4.7112,-4.7112,-4.7134,-4.7186,-4.7186,-4.7134,-4.7038,-4.667,-4.6522,-4.6448,-4.6077,-4.6002,-4.6002,-4.6002,-4.6002,-4.6002,-4.6002,-4.6002,-4.6002,-4.6002,-4.6299,-4.667,-4.7112,-4.7502,-4.7941,-4.8305,-4.8691,-4.9124,-4.9437,-4.9795,-5.0246,-5.0625,-5.0768,-5.0816,-5.0816,-5.163,-5.2374,-5.2705,-5.3505,-5.4185,-5.4687,-5.4687,-5.4808,-5.4955,-5.6125,-5.7163,-5.7856,-5.7927,-5.807,-5.8523,-5.8594,-5.8735,-5.9114,-5.9228,-5.9578,-6.0177,-6.0246,-6.048,-1.8648,-1.9414,-2.0342,-2.1334,-2.1712,-2.2088,0.0,0.0,0.0,0.0,0.0,0.0,0.0,0.0,0.0,0.0,0.0,0.0,0.0,0.0,0.0,0.0,0.0,0.0,0.0,0.0,0.0,0.0,0.0,0.0,-4.4356,-4.4857,-4.5243,-4.548,-4.563,-4.5853,-4.6077,-4.5614,-4.5391,-4.548,-4.548,-4.5555,-4.5779,-4.5779,-4.6002,-4.6374,0.0,-4.6596,-4.6891,-4.6891,-4.7038,-4.7186,-4.7186,-4.7332,-4.7575,-4.7794,-4.7868,-4.7794,-4.7575,-4.7502,-4.7428,-4.6817,-4.6596,-4.6522,-4.6151,-4.6002,-4.6002,-4.6002,-4.6002,-4.6002,-4.6002,-4.6002,-4.6002,-4.6002,-4.6151,-4.6448,-4.7038,-4.7355,-4.7648,-4.8305,-4.8691,-4.9124,-4.9437,-4.9795,-5.0246,-5.0625,-5.0696,-5.0696,-5.0696,-5.1054,-5.1483,-5.1788,-5.2245,-5.2869,-5.3732,-5.3828,-5.4048,-5.4536,-5.5395,-5.6158,-5.6821,-5.7249,-5.7688,-5.8141,-5.8381,-5.8594,-5.8806,-5.8947,-5.9228,-5.9648,-5.9787,-5.9996,-1.8879,-1.9866,-2.1088,-2.2149,0.0,-2.2725,-2.4134,0.0,0.0,0.0,0.0,0.0,0.0,0.0,0.0,0.0,0.0,0.0,0.0,0.0,0.0,0.0,0.0,0.0,0.0,0.0,0.0,0.0,0.0,0.0,-4.4819,-4.5483,-4.5784,-4.5822,-4.58,-4.597,-4.6411,-4.6055,-4.5954,-4.605,-4.6014,-4.6161,-4.6566,-4.6566,-4.6802,-4.7186,-4.7186,-4.7259,-4.7355,-4.7355,-4.7428,-4.7502,-4.7502,-4.7648,-4.7941,-4.8328,-4.84,-4.84,-4.8013,-4.7941,-4.7794,-4.7112,-4.6817,-4.667,-4.6299,-4.6077,-4.6002,-4.6002,-4.6002,-4.6002,-4.6002,-4.6002,-4.6002,-4.6002,-4.6077,-4.6299,-4.7038,-4.7259,-4.7575,-4.8232,-4.8691,-4.9124,-4.9437,-4.9795,-5.0246,-5.0625,-5.0696,-5.0696,-5.0696,-5.0696,-5.0837,-5.1141,-5.1211,-5.1663,-5.2808,-5.2998,-5.3313,-5.4019,-5.4623,-5.5234,-5.5736,-5.6303,-5.6888,-5.7539,-5.7822,-5.8034,-5.8104,-5.8412,-5.8622,-5.8692,-5.8971,-5.9083,-1.9316,-2.034,-2.1532,-2.2644,-2.351,0.0,-2.4963,0.0,0.0,0.0,0.0,0.0,0.0,0.0,0.0,0.0,0.0,0.0,0.0,0.0,0.0,0.0,0.0,0.0,0.0,0.0,0.0,0.0,0.0,0.0,-4.5208,-4.5347,-4.5296,-4.5196,-4.5174,-4.539,-4.5747,-4.5725,-4.5949,-4.6368,-4.5899,-4.5993,-4.6441,-4.6441,-4.6687,-4.7186,-4.7186,-4.7428,-4.7794,-4.7794,-4.7941,-4.8328,-4.8328,-4.8328,-4.84,-4.84,-4.84,-4.84,-4.84,-4.84,-4.8328,-4.7868,-4.7502,-4.7038,-4.667,-4.6299,-4.6002,-4.6002,-4.6002,-4.6002,-4.6002,-4.6002,-4.6002,-4.6002,-4.6299,-4.667,-4.7112,-4.7502,-4.7868,-4.8328,-4.8691,-4.9124,-4.9437,-4.9795,-5.0246,-5.0625,-5.0696,-5.0696,-5.0696,-5.0696,-5.0837,-5.1141,-5.1211,-5.1376,-5.187,-5.2218,-5.2521,-5.2546,-5.3869,-5.4799,-5.5152,-5.5223,-5.5625,-5.64,-5.647,-5.6609,-5.6928,-5.6928,-5.7135,-5.7504,-5.7573,-5.7751,-2.0035,-2.1154,-2.2351,-2.348,0.0,0.0,0.0,0.0,0.0,0.0,0.0,0.0,0.0,0.0,0.0,0.0,0.0,0.0,0.0,0.0,0.0,0.0,0.0,0.0,0.0,0.0,0.0,0.0,0.0,0.0,-4.5112,-4.5206,-4.5263,-4.5444,-4.5493,-4.5636,-4.6085,-4.5769,-4.5794,-4.6186,-4.5875,-4.589,-4.6378,-4.6622,-4.7015,-4.7485,-4.7804,-4.8013,-4.8159,-4.8159,-4.8232,-4.84,-4.84,-4.84,-4.84,-4.84,-4.84,-4.84,-4.84,-4.84,-4.8305,-4.7941,-4.7721,-4.7502,-4.7112,-4.667,-4.6374,-4.6374,-4.6225,-4.6002,-4.6002,-4.6002,-4.6077,-4.6299,-4.6522,-4.6743,-4.7428,-4.7721,-4.8013,-4.8618,-4.9029,-4.946,-4.9818,-5.0175,-5.0554,-5.0696,-5.0696,-5.0696,-5.0696,-5.0696,-5.0767,-5.0908,-5.1095,-5.1282,-5.1446,-5.1796,-5.2169,-5.2352,-5.3098,-5.3752,-5.4219,-5.4429,-5.5025,-5.5923,-5.6132,-5.6479,-5.6798,-5.6798,-5.6866,-5.703,-5.703,-5.7072,-2.0703,-2.1903,-2.3147,0.0,0.0,0.0,0.0,0.0,0.0,0.0,0.0,0.0,0.0,0.0,0.0,0.0,0.0,0.0,0.0,0.0,0.0,0.0,0.0,0.0,0.0,0.0,0.0,0.0,0.0,0.0,0.0,-4.4985,-4.5203,-4.54,-4.54,-4.5611,-4.6031,-4.562,-4.5599,-4.5875,-4.5662,-4.5841,-4.6211,-4.6575,-4.7037,-4.7594,-4.801,-4.824,-4.84,-4.84,-4.84,-4.84,-4.84,-4.84,-4.84,-4.84,-4.84,-4.84,-4.84,-4.84,-4.8328,-4.8086,-4.7868,-4.7721,-4.7502,-4.7112,-4.6817,-4.6817,-4.6596,-4.6374,-4.6374,-4.6299,-4.6299,-4.667,-4.6891,-4.7112,-4.7648,-4.7868,-4.8159,-4.8835,-4.9245,-4.9652,-5.0033,-5.0412,-5.0696,-5.0696,-5.0696,-5.0696,-5.0696,-5.0696,-5.0696,-5.0696,-5.0884,-5.1025,-5.1025,-5.1376,-5.1726,-5.2005,-5.2491,-5.2942,-5.3432,-5.3734,-5.4214,-5.4967,-5.5383,-5.5727,-5.6044,-5.618,-5.6275,-5.6275,-5.6275,-5.6275,-2.1176,-2.2472,0.0,0.0,0.0,0.0,0.0,0.0,0.0,0.0,0.0,0.0,0.0,0.0,0.0,0.0,0.0,0.0,0.0,0.0,0.0,0.0,0.0,0.0,0.0,0.0,0.0,0.0,0.0,0.0,0.0,-4.4802,-4.4905,-4.4823,-4.48,-4.5006,-4.5438,-4.5438,-4.5438,-4.5438,-4.5438,-4.5622,-4.6104,-4.6127,-4.6678,-4.7548,-4.7643,-4.7918,-4.8377,-4.8377,-4.84,-4.84,-4.84,-4.84,-4.84,-4.84,-4.84,-4.84,-4.84,-4.84,-4.84,-4.84,-4.8086,-4.7794,-4.7794,-4.7502,-4.7208,-4.7208,-4.7186,-4.7186,-4.7186,-4.6891,-4.667,-4.7112,-4.7502,-4.7794,-4.7794,-4.8086,-4.8546,-4.8908,-4.9245,-4.9652,-5.0033,-5.0412,-5.0696,-5.0696,-5.0696,-5.0696,-5.0696,-5.0696,-5.0696,-5.0696,-5.0696,-5.0696,-5.0696,-5.1025,-5.1211,-5.1211,-5.1935,-5.2515,-5.2861,-5.2929,-5.3067,-5.3478,-5.3793,-5.4174,-5.4511,-5.4872,-5.5099,-5.5099,-5.5099,-5.5099,-2.2254,0.0,0.0,0.0,0.0,0.0,0.0,0.0,0.0,0.0,0.0,0.0,0.0,0.0,0.0,0.0,0.0,0.0,0.0,0.0,0.0,0.0,0.0,0.0,0.0,0.0,0.0,0.0,0.0,0.0,0.0,-4.4682,-4.4959,-4.521,-4.521,-4.5278,-4.5438,-4.5438,-4.5438,-4.5438,-4.5438,-4.5507,-4.5599,-4.5967,-4.6427,-4.7051,-4.7746,-4.826,-4.8659,-4.8745,-4.8691,-4.84,-4.84,-4.84,-4.84,-4.84,-4.84,-4.84,-4.84,-4.84,-4.84,-4.84,-4.8305,-4.8232,-4.8232,-4.7941,-4.7648,-4.7648,-4.7428,-4.7281,-4.7575,-4.7502,-4.7502,-4.7575,-4.7721,-4.7868,-4.8159,-4.8546,-4.8908,-4.9317,-4.9675,-5.0033,-5.0483,-5.0625,-5.0696,-5.0696,-5.0696,-5.0696,-5.0696,-5.0696,-5.0696,-5.0696,-5.0696,-5.0696,-5.0696,-5.0767,-5.0954,-5.1211,-5.1422,-5.1866,-5.2515,-5.2792,-5.3067,-5.3478,-5.3614,-5.3929,-5.4511,-5.4645,-5.4805,-5.5099,-5.5099,-5.4939,0.0,0.0,0.0,0.0,0.0,0.0,0.0,0.0,0.0,0.0,0.0,0.0,0.0,0.0,0.0,0.0,0.0,0.0,0.0,0.0,0.0,0.0,0.0,0.0,0.0,0.0,0.0,0.0,0.0,0.0,0.0,-4.4869,-4.5142,-4.537,-4.5438,-4.5438,-4.5438,-4.5438,-4.5438,-4.5438,-4.5438,-4.5438,-4.5438,-4.5668,-4.615,-4.6749,-4.7889,-4.8638,-4.8991,-4.8984,-4.8835,-4.8618,-4.8473,-4.84,-4.84,-4.84,-4.84,-4.84,-4.84,-4.84,-4.84,-4.84,-4.84,-4.84,-4.84,-4.8232,-4.8013,-4.8013,-4.7868,-4.7721,-4.7941,-4.8013,-4.8013,-4.8013,-4.8159,-4.8328,-4.8618,-4.8908,-4.9317,-4.9652,-4.9961,-5.0246,-5.0813,-5.0884,-5.0978,-5.1119,-5.0978,-5.0837,-5.0696,-5.0696,-5.0696,-5.0696,-5.0696,-5.0696,-5.0696,-5.0696,-5.0767,-5.0954,-5.1141,-5.1516,-5.2169,-5.2515,-5.2861,-5.3273,-5.341,-5.3682,-5.4106,-5.4241,-5.4469,-5.4697,-5.4697,-5.4537,0.0,0.0,0.0,0.0,0.0,0.0,0.0,0.0,0.0,0.0,0.0,0.0,0.0,0.0,0.0,0.0,0.0,0.0,0.0,0.0,0.0,0.0,0.0,0.0,0.0,0.0,0.0,0.0,0.0,0.0,0.0,-4.5142,-4.5438,-4.5438,-4.5438,-4.5438,-4.5438,-4.5438,-4.5438,-4.5438,-4.5438,-4.5438,-4.5438,-4.5438,-4.5919,-4.6818,-4.8193,-4.9039,-4.9438,-4.9173,-4.9052,-4.898,-4.8546,-4.84,-4.84,-4.84,-4.84,-4.84,-4.84,-4.84,-4.84,-4.84,-4.84,-4.84,-4.84,-4.84,-4.84,-4.84,-4.84,-4.84,-4.8473,-4.8473,-4.8473,-4.8473,-4.8763,-4.898,-4.9052,-4.9317,-4.9652,-5.0033,-5.0175,-5.0388,-5.1071,-5.1211,-5.1376,-5.1681,-5.1446,-5.1095,-5.0767,-5.0696,-5.0696,-5.0696,-5.0696,-5.0696,-5.0696,-5.0696,-5.0696,-5.0696,-5.0954,-5.1306,-5.1751,-5.2169,-5.2585,-5.2861,-5.3273,-5.3478,-5.3478,-5.3793,-5.3997,-5.3997,-5.3997,-5.3997,0.0,0.0,0.0,0.0,0.0,0.0,0.0,0.0,0.0,0.0,0.0,0.0,0.0,0.0,0.0,0.0,0.0,0.0,0.0,0.0,0.0,0.0,0.0,0.0,0.0,0.0,0.0,0.0,0.0,0.0,-4.48,-4.5142,-4.5438,-4.5438,-4.5438,-4.5438,-4.5438,-4.5438,-4.5438,-4.5438,-4.5438,-4.5438,-4.5438,-4.5438,-4.6032,-4.716,-4.8484,-4.9125,-4.9368,-4.9344,-4.9245,-4.898,-4.8546,-4.84,-4.84,-4.84,-4.84,-4.84,-4.84,-4.84,-4.84,-4.84,-4.84,-4.84,-4.84,-4.84,-4.84,-4.84,-4.84,-4.8473,-4.8763,-4.8835,-4.8908,-4.9245,-4.9101,-4.9052,-4.9317,-4.9675,-5.0033,-5.0104,-5.0601,-5.1,-5.1141,-5.1446,-5.1586,-5.1376,-5.1282,-5.1095,-5.0767,-5.0696,-5.0696,-5.0696,-5.0696,-5.0696,-5.0696,-5.0696,-5.0696,-5.0696,-5.0767,-5.0954,-5.1306,-5.2005,-5.2585,-5.2861,-5.2998,-5.3204,-5.3478,-5.3546,-5.3725,-5.3997,-5.3997,-5.3861,0.0,0.0,0.0,0.0,0.0,0.0,0.0,0.0,0.0,0.0,0.0,0.0,0.0,0.0,0.0,0.0,0.0,0.0,0.0,0.0,0.0,0.0,0.0,0.0,0.0,0.0,0.0,0.0,0.0,-4.4548,-4.5074,-4.5301,-4.5438,-4.5438,-4.5438,-4.5438,-4.5438,-4.5438,-4.5438,-4.5438,-4.5438,-4.5438,-4.5415,-4.5754,-4.6372,-4.7273,-4.8308,-4.895,-4.9273,-4.918,-4.9083,-4.898,-4.8546,-4.84,-4.84,-4.84,-4.84,-4.84,-4.84,-4.84,-4.84,-4.84,-4.84,-4.84,-4.84,-4.8546,-4.8691,-4.8691,-4.8812,-4.8957,-4.9173,-4.9245,-4.9317,-4.9723,-4.9675,-4.9532,-4.9747,-5.0104,-5.0412,-5.0412,-5.0813,-5.1282,-5.1446,-5.1935,-5.2169,-5.1586,-5.1516,-5.1306,-5.0767,-5.0696,-5.0696,-5.0696,-5.0696,-5.0696,-5.0696,-5.0696,-5.0696,-5.0696,-5.0696,-5.0837,-5.1211,-5.1586,-5.2074,-5.2654,-5.2792,-5.2998,-5.3204,-5.3204,-5.3341,-5.3452,-5.3452,-5.3384,0.0,0.0,0.0,0.0,0.0,0.0,0.0,0.0,0.0,0.0,0.0,0.0,0.0,0.0,0.0,0.0,0.0,0.0,0.0,0.0,0.0,0.0,0.0,0.0,0.0,0.0,0.0,0.0,0.0,-4.4617,-4.537,-4.5438,-4.5438,-4.5438,-4.5438,-4.5438,-4.5438,-4.5438,-4.5438,-4.5438,-4.5438,-4.5438,-4.5415,-4.6069,-4.6641,-4.7132,-4.7973,-4.8591,-4.8988,-4.8709,-4.8708,-4.884,-4.8407,-4.8308,-4.84,-4.84,-4.84,-4.84,-4.84,-4.84,-4.84,-4.84,-4.8473,-4.8473,-4.8473,-4.8763,-4.9124,-4.9124,-4.9317,-4.9509,-4.958,-4.958,-4.9723,-5.0104,-5.0175,-5.0175,-5.0175,-5.0483,-5.0696,-5.0696,-5.1025,-5.1446,-5.1796,-5.2446,-5.2585,-5.182,-5.1681,-5.1471,-5.0767,-5.0696,-5.0696,-5.0696,-5.0696,-5.0696,-5.0696,-5.0696,-5.0696,-5.0696,-5.0696,-5.0837,-5.1095,-5.1141,-5.1516,-5.2144,-5.2585,-5.2861,-5.2929,-5.2929,-5.2929,-5.2929,-5.2929,-5.2929,0.0,0.0,0.0,0.0,0.0,0.0,0.0,0.0,0.0,0.0,0.0,0.0,0.0,0.0,0.0,0.0,0.0,0.0,0.0,0.0,0.0,0.0,0.0,0.0,0.0,0.0,0.0,0.0,-4.4273,-4.4617,-4.537,-4.5438,-4.5438,-4.5438,-4.5438,-4.5438,-4.5438,-4.5438,-4.5438,-4.5438,-4.5438,-4.5438,-4.5415,-4.6069,-4.6452,-4.6547,-4.7738,-4.816,-4.8011,-4.8049,-4.8193,-4.8283,-4.7878,-4.801,-4.84,-4.84,-4.84,-4.84,-4.84,-4.84,-4.84,-4.84,-4.8618,-4.8908,-4.8908,-4.9173,-4.9437,-4.9437,-4.9437,-4.958,-4.9961,-5.0033,-5.0104,-5.0554,-5.0625,-5.0625,-5.0625,-5.0625,-5.0696,-5.0696,-5.126,-5.189,-5.2238,-5.2377,-5.2213,-5.1376,-5.1282,-5.1165,-5.0767,-5.0696,-5.0696,-5.0696,-5.0696,-5.0696,-5.0696,-5.0696,-5.0696,-5.0696,-5.0696,-5.0696,-5.0767,-5.1025,-5.1211,-5.1352,-5.2074,-5.2585,-5.2929,-5.2929,-5.2929,-5.2929,-5.2929,-5.2929,0.0,0.0,0.0,0.0,0.0,0.0,0.0,0.0,0.0,0.0,0.0,0.0,0.0,0.0,0.0,0.0,0.0,0.0,0.0,0.0,0.0,0.0,0.0,0.0,0.0,0.0,0.0,0.0,-4.4273,-4.4617,-4.537,-4.5438,-4.5438,-4.5438,-4.5438,-4.5438,-4.5438,-4.5438,-4.5438,-4.5438,-4.5438,-4.5438,-4.5415,-4.6069,-4.6405,-4.6429,-4.7404,-4.769,-4.7433,-4.7532,-4.7516,-4.7489,-4.7277,-4.7344,-4.7574,-4.7872,-4.7964,-4.801,-4.8286,-4.84,-4.8473,-4.8691,-4.8835,-4.9052,-4.9245,-4.9532,-4.9818,-4.9818,-5.0033,-5.0175,-5.0412,-5.0412,-5.0483,-5.0625,-5.0696,-5.0696,-5.0696,-5.0696,-5.0767,-5.0954,-5.1236,-5.1586,-5.2005,-5.2099,-5.1866,-5.1282,-5.1211,-5.1095,-5.0767,-5.0696,-5.0696,-5.0696,-5.0696,-5.0696,-5.0696,-5.0696,-5.0696,-5.0696,-5.0696,-5.0696,-5.0696,-5.0837,-5.1025,-5.1211,-5.1796,-5.2238,-5.2654,-5.2654,-5.2723,-5.2929,-5.2929,-5.2792,0.0,0.0,0.0,0.0,0.0,0.0,0.0,0.0,0.0,0.0,0.0,0.0,0.0,0.0,0.0,0.0,0.0,0.0,0.0,0.0,0.0,0.0,0.0,0.0,0.0,0.0,0.0,0.0,-4.4411,-4.4732,-4.537,-4.5438,-4.5438,-4.5438,-4.5438,-4.5438,-4.5438,-4.5438,-4.5438,-4.5438,-4.5438,-4.5438,-4.5415,-4.6069,-4.6405,-4.6405,-4.7165,-4.7337,-4.7017,-4.7017,-4.6841,-4.6678,-4.6678,-4.677,-4.6931,-4.7298,-4.7436,-4.7528,-4.8154,-4.8338,-4.8434,-4.8933,-4.9196,-4.934,-4.958,-4.9961,-5.0246,-5.0246,-5.0483,-5.0696,-5.0696,-5.0696,-5.0696,-5.0696,-5.0696,-5.0696,-5.0696,-5.0696,-5.0837,-5.1141,-5.1211,-5.1306,-5.1586,-5.1656,-5.1516,-5.1165,-5.1095,-5.0954,-5.0696,-5.0696,-5.0696,-5.0696,-5.0696,-5.0625,-5.0554,-5.0554,-5.0483,-5.0412,-5.0412,-5.0483,-5.0554,-5.0554,-5.0672,-5.1095,-5.1376,-5.1751,-5.2238,-5.2238,-5.2377,-5.2654,-5.2654,-5.2515,0.0,0.0,0.0,0.0,0.0,0.0,0.0,0.0,0.0,0.0,0.0,0.0,0.0,0.0,0.0,0.0,0.0,0.0,0.0,0.0,0.0,0.0,0.0,0.0,0.0,0.0,0.0,0.0,-4.4594,-4.4937,-4.537,-4.5438,-4.5438,-4.5438,-4.5438,-4.5438,-4.5438,-4.5438,-4.5438,-4.5438,-4.5438,-4.5438,-4.5415,-4.6069,-4.6405,-4.6405,-4.7165,-4.7122,-4.6452,-4.6452,-4.6306,-4.615,-4.615,-4.6449,-4.6885,-4.6908,-4.6908,-4.7047,-4.7909,-4.8213,-4.8377,-4.9201,-4.9723,-5.0033,-5.0033,-5.0317,-5.0696,-5.0696,-5.0696,-5.0696,-5.0696,-5.0696,-5.0696,-5.0696,-5.0696,-5.0696,-5.0696,-5.0696,-5.0837,-5.1141,-5.1211,-5.1211,-5.1211,-5.1211,-5.1095,-5.0767,-5.0696,-5.0696,-5.0696,-5.0696,-5.0696,-5.0696,-5.0696,-5.0554,-5.0175,-5.0104,-4.9961,-4.958,-4.958,-4.9723,-5.0104,-5.0104,-5.0317,-5.0696,-5.0767,-5.1119,-5.182,-5.182,-5.182,-5.189,-5.189,-5.182,0.0,0.0,0.0,0.0,0.0,0.0,0.0,0.0,0.0,0.0,0.0,0.0,0.0,0.0,0.0,0.0,0.0,0.0,0.0,0.0,0.0,0.0,0.0,0.0,0.0,0.0,0.0,0.0,0.0,-4.3959,-4.4359,-4.4359,-4.4359,-4.4359,-4.4359,-4.452,-4.4864,-4.4887,-4.5025,-4.5438,-4.5438,-4.5438,-4.5415,-4.6069,-4.6405,-4.6405,-4.7165,-4.7232,-4.6764,-4.6496,-4.6253,-4.5964,-4.5691,-4.5737,-4.5944,-4.6265,-4.6542,-4.6889,-4.7446,-4.7842,-4.8076,-4.8684,-4.9179,-4.9604,-4.9862,-5.0337,-5.0696,-5.0696,-5.0696,-5.0696,-5.0696,-5.0696,-5.0696,-5.0696,-5.0696,-5.0696,-5.0696,-5.0696,-5.0767,-5.0837,-5.0908,-5.0908,-5.0908,-5.0908,-5.0837,-5.0696,-5.0696,-5.0696,-5.0696,-5.0696,-5.0696,-5.0696,-5.0483,-5.0246,-5.0104,-4.989,-4.9652,-4.9509,-4.9509,-4.958,-4.9723,-4.9723,-4.989,-5.0317,-5.0317,-5.0672,-5.1446,-5.1446,-5.1516,-5.182,-5.182,-5.1656,0.0,0.0,0.0,0.0,0.0,0.0,0.0,0.0,0.0,0.0,0.0,0.0,0.0,0.0,0.0,0.0,0.0,0.0,0.0,0.0,0.0,0.0,0.0,0.0,0.0,0.0,0.0,0.0,0.0,0.0,-4.3808,-4.3808,-4.3808,-4.3808,-4.3808,-4.3969,-4.4336,-4.4336,-4.4497,-4.4841,-4.5025,-4.5094,-4.5185,-4.5999,-4.6405,-4.6405,-4.7165,-4.7298,-4.6965,-4.6697,-4.6294,-4.589,-4.5619,-4.5551,-4.5597,-4.5943,-4.6287,-4.6699,-4.7327,-4.7653,-4.7953,-4.8556,-4.9049,-4.9475,-4.9752,-5.0063,-5.0307,-5.0307,-5.0237,-5.0167,-5.0167,-5.0287,-5.0479,-5.0648,-5.0696,-5.0696,-5.0696,-5.0696,-5.0696,-5.0696,-5.0696,-5.0696,-5.0696,-5.0696,-5.0696,-5.0696,-5.0696,-5.0696,-5.0696,-5.0696,-5.0625,-5.0483,-5.0246,-5.0033,-4.9747,-4.946,-4.9245,-4.915,-4.915,-4.915,-4.9317,-4.9317,-4.9532,-4.989,-4.989,-5.0222,-5.0789,-5.0954,-5.1165,-5.1401,-5.1401,-5.133,0.0,0.0,0.0,0.0,0.0,0.0,0.0,0.0,0.0,0.0,0.0,0.0,0.0,0.0,0.0,0.0,0.0,0.0,0.0,0.0,0.0,0.0,0.0,0.0,0.0,0.0,0.0,0.0,-4.339,-4.3762,-4.3762,-4.3762,-4.3762,-4.3762,-4.3762,-4.3762,-4.3785,-4.3785,-4.3785,-4.3808,-4.4336,-4.4589,-4.4612,-4.5836,-4.6405,-4.6405,-4.7165,-4.7298,-4.7032,-4.6965,-4.6563,-4.5957,-4.589,-4.589,-4.589,-4.589,-4.616,-4.6543,-4.7492,-4.7794,-4.7957,-4.88,-4.931,-4.9607,-4.9607,-4.9607,-4.9631,-4.9631,-4.9358,-4.9084,-4.9084,-4.9469,-4.9974,-5.0551,-5.0672,-5.0672,-5.0696,-5.0696,-5.0696,-5.0696,-5.0696,-5.0696,-5.0696,-5.0696,-5.0696,-5.0696,-5.0696,-5.0696,-5.0696,-5.0696,-5.0554,-5.0175,-5.0104,-4.9747,-4.9052,-4.9003,-4.8835,-4.84,-4.84,-4.8618,-4.898,-4.898,-4.9124,-4.9509,-4.9509,-4.9652,-5.0104,-5.0483,-5.0696,-5.0696,-5.0696,-5.0696,-3.3341,0.0,0.0,0.0,0.0,0.0,0.0,0.0,0.0,0.0,0.0,0.0,0.0,0.0,0.0,0.0,0.0,0.0,0.0,0.0,0.0,0.0,0.0,0.0,0.0,0.0,0.0,0.0,-4.2366,-4.2752,-4.2752,-4.2752,-4.2752,-4.2752,-4.2752,-4.2913,-4.328,-4.328,-4.3464,-4.3808,-4.3969,-4.4222,-4.4612,-4.5485,-4.6076,-4.6405,-4.7165,-4.7431,-4.7364,-4.7098,-4.6898,-4.6697,-4.6362,-4.6271,-4.6271,-4.6271,-4.6496,-4.6855,-4.7131,-4.738,-4.7671,-4.8149,-4.8664,-4.9047,-4.9316,-4.945,-4.9631,-4.9631,-4.9358,-4.9084,-4.9084,-4.9181,-4.9421,-4.9974,-5.0095,-5.0215,-5.0624,-5.0696,-5.0696,-5.0696,-5.0696,-5.0696,-5.0696,-5.0696,-5.0696,-5.0696,-5.0696,-5.0696,-5.0696,-5.0483,-5.0246,-5.0104,-4.9627,-4.9196,-4.9003,-4.8763,-4.8546,-4.84,-4.84,-4.8473,-4.8546,-4.8546,-4.8763,-4.9124,-4.9124,-4.9317,-4.9652,-5.0104,-5.0412,-5.0696,-5.0696,-5.0696,-3.436,-3.4244,-3.4257,0.0,0.0,0.0,-3.5915,-3.675,0.0,0.0,0.0,0.0,0.0,0.0,0.0,0.0,0.0,0.0,0.0,0.0,0.0,0.0,0.0,0.0,0.0,-4.1084,-4.1315,-4.1315,-4.1893,-4.2275,-4.2275,-4.2275,-4.2275,-4.2275,-4.2275,-4.2477,-4.2775,-4.2775,-4.2913,-4.3188,-4.3418,-4.3762,-4.429,-4.5229,-4.5959,-4.6405,-4.7165,-4.7497,-4.7497,-4.7298,-4.7098,-4.6989,-4.6764,-4.663,-4.663,-4.663,-4.6898,-4.7232,-4.7232,-4.7364,-4.7563,-4.7894,-4.8311,-4.8778,-4.9084,-4.9173,-4.9175,-4.9175,-4.884,-4.8459,-4.87,-4.8748,-4.8892,-4.9283,-4.964,-4.995,-5.0076,-5.0386,-5.0696,-5.0696,-5.0696,-5.0696,-5.0696,-5.0696,-5.0696,-5.0696,-5.0696,-5.0625,-5.0483,-5.0246,-4.9961,-4.9675,-4.9268,-4.8908,-4.8763,-4.8546,-4.84,-4.84,-4.84,-4.84,-4.84,-4.84,-4.8546,-4.8763,-4.8763,-4.8908,-4.9317,-4.9818,-5.0317,-5.0696,-5.0696,-5.0696,-3.5243,-3.5163,-3.521,-3.5318,-3.5544,0.0,-3.5949,-3.6825,-3.7601,0.0,0.0,0.0,0.0,0.0,0.0,0.0,0.0,0.0,0.0,0.0,0.0,0.0,0.0,0.0,-4.0126,-4.0751,-4.1136,-4.1136,-4.1843,-4.2184,-4.2184,-4.2252,-4.2275,-4.2275,-4.2275,-4.2275,-4.2275,-4.2275,-4.2275,-4.2275,-4.2798,-4.3257,-4.3805,-4.5085,-4.5865,-4.6402,-4.7141,-4.7497,-4.7497,-4.7497,-4.7298,-4.7055,-4.7055,-4.7055,-4.7055,-4.7055,-4.7232,-4.7497,-4.7497,-4.7497,-4.7563,-4.7894,-4.8248,-4.8641,-4.8942,-4.8837,-4.86,-4.851,-4.7984,-4.7617,-4.8074,-4.8195,-4.8204,-4.8458,-4.9073,-4.9501,-4.9224,-4.9863,-5.0482,-5.0553,-5.0672,-5.0696,-5.0696,-5.0696,-5.0696,-5.0696,-5.0625,-5.0483,-5.0175,-5.0033,-4.9771,-4.9052,-4.898,-4.8763,-4.8473,-4.84,-4.84,-4.84,-4.84,-4.84,-4.84,-4.84,-4.84,-4.84,-4.84,-4.8618,-4.898,-4.9747,-5.0246,-5.0625,-5.0696,-5.0696,-3.6096,-3.5772,-3.5699,-3.6046,-3.6213,0.0,-3.6279,-3.6948,-3.7601,0.0,0.0,0.0,0.0,0.0,0.0,0.0,0.0,0.0,0.0,0.0,0.0,0.0,0.0,0.0,-3.9122,-3.9689,-4.0105,-4.0105,-4.1115,-4.1719,-4.1719,-4.2109,-4.2275,-4.2275,-4.2275,-4.2275,-4.2275,-4.2275,-4.2275,-4.2275,-4.2431,-4.2857,-4.3687,-4.4589,-4.5497,-4.6304,-4.7106,-4.7497,-4.7497,-4.7497,-4.7431,-4.7364,-4.7364,-4.7364,-4.7364,-4.7364,-4.7431,-4.7497,-4.7497,-4.7497,-4.7563,-4.7894,-4.8248,-4.86,-4.8641,-4.8641,-4.8469,-4.7918,-4.763,-4.7521,-4.7617,-4.7466,-4.7384,-4.7841,-4.7827,-4.7811,-4.8166,-4.8755,-4.9274,-4.9556,-5.0196,-5.0696,-5.0696,-5.0696,-5.0696,-5.0696,-5.0412,-5.0175,-5.0104,-4.9627,-4.9124,-4.9003,-4.8691,-4.8473,-4.84,-4.84,-4.84,-4.84,-4.84,-4.84,-4.84,-4.84,-4.84,-4.84,-4.84,-4.8618,-4.898,-4.9747,-5.0175,-5.0246,-5.0554,-5.0696,-3.7566,-3.7205,-3.6893,-3.7007,-3.6961,0.0,0.0,-3.7083,-3.7479,0.0,0.0,0.0,0.0,0.0,0.0,0.0,0.0,0.0,0.0,0.0,0.0,0.0,0.0,0.0,-3.8775,-3.9401,-3.9961,-4.027,-4.0868,-4.1191,-4.1191,-4.1673,-4.1948,-4.1948,-4.2201,-4.2275,-4.2275,-4.2275,-4.2275,-4.2275,-4.2275,-4.2783,-4.3612,-4.449,-4.5355,-4.6228,-4.7149,-4.7497,-4.7497,-4.7497,-4.7497,-4.7497,-4.7497,-4.7497,-4.7497,-4.7497,-4.7497,-4.7497,-4.7497,-4.7497,-4.7563,-4.7894,-4.8158,-4.8313,-4.8535,-4.8445,-4.8182,-4.763,-4.7497,-4.7497,-4.7497,-4.7232,-4.7036,-4.7096,-4.7129,-4.7252,-4.7304,-4.7911,-4.8427,-4.8636,-4.9059,-4.9626,-5.0529,-5.0696,-5.0625,-5.0412,-5.0246,-4.9961,-4.9627,-4.9196,-4.8908,-4.8691,-4.8546,-4.84,-4.84,-4.84,-4.84,-4.84,-4.84,-4.84,-4.84,-4.84,-4.84,-4.84,-4.84,-4.8618,-4.898,-4.9532,-4.989,-5.0104,-5.0483,-5.0696,-3.8818,-3.8554,-3.8186,-3.7916,-3.7758,-3.7575,0.0,0.0,0.0,0.0,0.0,0.0,0.0,0.0,0.0,0.0,0.0,0.0,0.0,0.0,0.0,0.0,0.0,0.0,0.0,-3.8948,-3.9604,-4.0327,-4.0479,-4.0571,-4.0663,-4.1145,-4.1466,-4.1581,-4.1971,-4.2247,-4.2275,-4.2275,-4.2275,-4.2275,-4.2275,-4.2737,-4.3578,-4.4443,-4.535,-4.6216,-4.7101,-4.7497,-4.7497,-4.7497,-4.7497,-4.7497,-4.7497,-4.7497,-4.7497,-4.7497,-4.7497,-4.7497,-4.7497,-4.7497,-4.7563,-4.7828,-4.7894,-4.796,-4.8379,-4.8248,-4.7828,-4.7563,-4.7497,-4.7497,-4.7431,-4.7165,-4.6764,-4.6405,-4.6599,-4.6767,-4.6494,-4.7096,-4.7677,-4.7747,-4.7817,-4.8379,-4.9887,-5.0268,-5.0245,-4.989,-4.989,-4.9675,-4.9052,-4.8908,-4.8763,-4.8473,-4.84,-4.84,-4.84,-4.84,-4.84,-4.84,-4.84,-4.84,-4.84,-4.84,-4.84,-4.84,-4.84,-4.8618,-4.898,-4.9317,-4.9723,-5.0104,-5.0483,-5.0648,-3.9078,-3.8731,-3.8688,-3.8688,-3.8644,-3.8491,-3.8055,0.0,-3.7898,-3.7461,0.0,0.0,0.0,0.0,0.0,0.0,0.0,0.0,0.0,0.0,0.0,0.0,0.0,0.0,0.0,-3.7215,-3.794,-3.8803,-3.9239,-3.9675,-4.0172,-4.064,-4.1122,-4.1558,-4.1627,-4.188,-4.2275,-4.2275,-4.2275,-4.2275,-4.2275,-4.2679,-4.3381,-4.4407,-4.529,-4.6014,-4.7064,-4.7497,-4.7497,-4.7497,-4.7497,-4.7497,-4.7497,-4.7497,-4.7497,-4.7497,-4.7497,-4.7497,-4.7497,-4.7497,-4.7497,-4.7563,-4.7563,-4.763,-4.796,-4.7828,-4.7563,-4.7497,-4.7497,-4.7431,-4.7098,-4.6764,-4.6338,-4.6025,-4.58,-4.5575,-4.5575,-4.5989,-4.6404,-4.6795,-4.7167,-4.7656,-4.8191,-4.8685,-4.8992,-4.8921,-4.9036,-4.9052,-4.898,-4.8691,-4.8473,-4.84,-4.84,-4.84,-4.84,-4.84,-4.84,-4.84,-4.84,-4.84,-4.84,-4.84,-4.84,-4.84,-4.84,-4.8618,-4.898,-4.9317,-4.9723,-5.0104,-5.0483,-5.0431,-4.0344,-3.9886,-3.9602,-3.9318,-3.9034,-3.8709,-3.8575,-3.8313,-3.8051,-3.7833,0.0,0.0,0.0,0.0,0.0,0.0,-3.6042,0.0,0.0,0.0,0.0,0.0,0.0,0.0,0.0,0.0,0.0,0.0,-3.8596,-3.8987,-3.9193,-3.9951,-4.0479,-4.0747,-4.1322,-4.1673,-4.1903,-4.2178,-4.2275,-4.2275,-4.2275,-4.2633,-4.3349,-4.4384,-4.5266,-4.5982,-4.704,-4.7497,-4.7497,-4.7497,-4.7497,-4.7497,-4.7298,-4.7298,-4.7497,-4.7497,-4.7497,-4.7497,-4.7497,-4.7497,-4.7497,-4.7497,-4.7497,-4.7497,-4.7696,-4.763,-4.7497,-4.7497,-4.7497,-4.7431,-4.7098,-4.6697,-4.6338,-4.5957,-4.5619,-4.5438,-4.5438,-4.553,-4.5737,-4.5942,-4.6104,-4.6265,-4.6448,-4.7538,-4.824,-4.8029,-4.8332,-4.8444,-4.8252,-4.8289,-4.84,-4.84,-4.84,-4.84,-4.84,-4.84,-4.84,-4.84,-4.84,-4.84,-4.84,-4.84,-4.84,-4.84,-4.8618,-4.8908,-4.9317,-4.9675,-4.9866,-5.0004,-5.0145,-5.0095,-4.1528,-4.1001,-4.0541,-4.0126,-3.9689,-3.9362,-3.91,-3.875,-3.8423,-3.816,-3.7833,0.0,0.0,0.0,-3.6618,-3.6618,0.0,-3.5354,0.0,0.0,0.0,0.0,0.0,0.0,0.0,0.0,0.0,-3.7563,-3.793,-3.8229,-3.8367,-3.9193,-3.9781,-3.9896,-4.0709,-4.1283,-4.1581,-4.1948,-4.2201,-4.2275,-4.2402,-4.2759,-4.3349,-4.4536,-4.5331,-4.5982,-4.704,-4.7497,-4.7497,-4.7497,-4.7431,-4.7364,-4.7098,-4.7098,-4.7232,-4.7232,-4.7232,-4.7232,-4.7298,-4.7431,-4.7497,-4.7497,-4.7497,-4.7497,-4.7497,-4.7497,-4.7497,-4.7497,-4.7431,-4.7298,-4.6898,-4.6563,-4.616,-4.5822,-4.5551,-4.5438,-4.5438,-4.5438,-4.5438,-4.5438,-4.5438,-4.5438,-4.5438,-4.6541,-4.7422,-4.7075,-4.7515,-4.7744,-4.762,-4.7964,-4.824,-4.8377,-4.84,-4.84,-4.84,-4.84,-4.84,-4.84,-4.84,-4.84,-4.84,-4.84,-4.8473,-4.8546,-4.8696,-4.8963,-4.944,-4.9606,-4.9696,-4.9662,-4.9806,-4.971,-4.2392,-4.1946,-4.1524,-4.1066,-4.0956,-4.0694,-3.9797,-3.9579,-3.9294,-3.8292,-3.8095,-3.7942,-3.7461,-3.6846,-3.6382,-3.6382,-3.5847,0.0,0.0,0.0,0.0,0.0,0.0,0.0,0.0,0.0,0.0,-3.6933,-3.7025,-3.7288,-3.7793,-3.8344,-3.8849,-3.9308,-3.9836,-4.0632,-4.1558,-4.1581,-4.1834,-4.2275,-4.2656,-4.2949,-4.3349,-4.4728,-4.5548,-4.5982,-4.704,-4.7497,-4.7497,-4.7497,-4.7298,-4.7032,-4.6965,-4.6764,-4.6405,-4.6405,-4.6405,-4.6473,-4.6898,-4.7232,-4.7497,-4.7497,-4.7497,-4.7497,-4.7497,-4.7497,-4.7497,-4.7497,-4.7232,-4.6898,-4.654,-4.616,-4.5822,-4.5483,-4.5415,-4.5438,-4.5438,-4.5438,-4.5438,-4.5438,-4.5438,-4.5438,-4.5438,-4.5783,-4.615,-4.615,-4.6586,-4.7069,-4.7502,-4.7594,-4.7849,-4.8331,-4.84,-4.84,-4.84,-4.84,-4.84,-4.84,-4.84,-4.84,-4.84,-4.84,-4.8618,-4.898,-4.8469,-4.8568,-4.9273,-4.8774,-4.872,-4.9109,-4.9638,-4.9325,-4.3846,-4.324,-4.2794,-4.2327,-4.1971,-4.1638,-4.1369,-4.0704,-4.0148,-3.9815,-3.9237,-3.8725,-3.8548,-3.754,-3.6729,-3.6729,-3.6016,-3.5478,0.0,0.0,0.0,0.0,0.0,0.0,0.0,0.0,0.0,-3.5979,-3.6346,-3.6759,-3.7265,-3.8114,-3.8665,-3.8826,-3.9689,-4.0387,-4.1076,-4.1397,-4.1834,-4.2275,-4.2633,-4.2949,-4.3349,-4.4413,-4.5254,-4.5958,-4.668,-4.7185,-4.7497,-4.7232,-4.7098,-4.6965,-4.6429,-4.6227,-4.6092,-4.6338,-4.6405,-4.6405,-4.6563,-4.6697,-4.6831,-4.7098,-4.7165,-4.7232,-4.7431,-4.7364,-4.7165,-4.7165,-4.6898,-4.6496,-4.616,-4.5957,-4.5822,-4.5483,-4.5438,-4.5438,-4.5438,-4.5438,-4.5438,-4.5438,-4.5438,-4.5438,-4.5438,-4.5507,-4.5622,-4.5622,-4.6058,-4.6449,-4.6609,-4.7229,-4.764,-4.7872,-4.8194,-4.84,-4.84,-4.84,-4.84,-4.84,-4.84,-4.84,-4.84,-4.8344,-4.8302,-4.8445,-4.8427,-4.8518,-4.875,-4.8837,-4.8755,-4.8555,-4.8748,-4.8628,-4.5157,-4.4546,-4.3914,-4.3421,-4.2929,-4.2569,-4.2412,-4.1739,-4.111,-4.0867,-4.0038,-3.9299,-3.912,-3.814,-3.7276,-3.7096,-3.6432,-3.5821,0.0,-3.5039,0.0,0.0,0.0,0.0,0.0,0.0,-3.4716,-3.5221,-3.5726,-3.614,0.0,-3.7471,-3.8114,-3.8298,-3.9219,-4.0038,-4.067,-4.1361,-4.187,-4.2189,-4.2753,-4.3012,-4.3161,-4.4033,-4.4713,-4.5286,-4.6001,-4.6526,-4.6836,-4.6827,-4.6697,-4.6563,-4.6092,-4.5822,-4.5754,-4.5957,-4.6136,-4.6204,-4.6204,-4.6271,-4.6405,-4.6697,-4.6764,-4.6831,-4.7032,-4.6965,-4.6764,-4.6764,-4.6496,-4.6136,-4.5957,-4.5822,-4.5686,-4.5415,-4.5438,-4.5438,-4.5438,-4.5438,-4.5438,-4.5438,-4.5438,-4.5438,-4.5438,-4.5438,-4.5438,-4.5438,-4.5645,-4.5921,-4.6104,-4.6701,-4.716,-4.7344,-4.7826,-4.8194,-4.8377,-4.84,-4.8308,-4.8148,-4.8125,-4.8033,-4.7849,-4.7884,-4.7982,-4.8123,-4.8189,-4.8273,-4.841,-4.8468,-4.8339,-4.8002,-4.8002,-4.8002]}]]